Wetterdaten: Freitag, 01.05.2020
Datum Zeit Temp. 2m Temp +5 cm Feuchte A. Luftdruck Regen Wind Richtung Richtung Sonnenschein UV Solar Taupunkt Windchill Windben
01.05.2020 00:00 6,1 C 5,6 C 90 % 1002,8 hPa 0,0 l/m 17,7 km/h (3 Bft) S-SW 202 0 min 0,0 UV-I 0 W/m 4,6 C -0,8 C 25,7 km/h (4 Bft)
01.05.2020 00:01 6,1 C 5,6 C 90 % 1002,8 hPa 0,0 l/m 17,7 km/h (3 Bft) S-SW 202 0 min 0,0 UV-I 0 W/m 4,6 C -0,8 C 24,1 km/h (4 Bft)
01.05.2020 00:02 6,1 C 5,6 C 90 % 1002,9 hPa 0,0 l/m 17,7 km/h (3 Bft) S-SW 202 0 min 0,0 UV-I 0 W/m 4,6 C -0,8 C 25,7 km/h (4 Bft)
01.05.2020 00:03 6,1 C 5,6 C 90 % 1002,8 hPa 0,0 l/m 17,7 km/h (3 Bft) S-SW 202 0 min 0,0 UV-I 0 W/m 4,6 C -0,8 C 25,7 km/h (4 Bft)
01.05.2020 00:04 6,1 C 5,6 C 90 % 1002,8 hPa 0,0 l/m 16,1 km/h (3 Bft) S-SW 202 0 min 0,0 UV-I 0 W/m 4,6 C -0,1 C 20,9 km/h (4 Bft)
01.05.2020 00:05 6,1 C 5,6 C 90 % 1002,9 hPa 0,0 l/m 19,3 km/h (3 Bft) S-SW 202 0 min 0,0 UV-I 0 W/m 4,6 C -1,5 C 33,8 km/h (5 Bft)
01.05.2020 00:06 6,2 C 5,6 C 90 % 1002,8 hPa 0,0 l/m 19,3 km/h (3 Bft) S-SW 202 0 min 0,0 UV-I 0 W/m 4,7 C -1,4 C 27,4 km/h (4 Bft)
01.05.2020 00:07 6,1 C 5,6 C 90 % 1002,8 hPa 0,0 l/m 19,3 km/h (3 Bft) S-SW 202 0 min 0,0 UV-I 0 W/m 4,6 C -1,5 C 25,7 km/h (4 Bft)
01.05.2020 00:08 6,2 C 5,6 C 90 % 1002,8 hPa 0,0 l/m 20,9 km/h (4 Bft) S-SW 202 0 min 0,0 UV-I 0 W/m 4,7 C -2,0 C 25,7 km/h (4 Bft)
01.05.2020 00:09 6,2 C 5,6 C 90 % 1002,8 hPa 0,0 l/m 20,9 km/h (4 Bft) S-SW 202 0 min 0,0 UV-I 0 W/m 4,7 C -2,0 C 41,8 km/h (6 Bft)
01.05.2020 00:10 6,2 C 5,6 C 90 % 1002,7 hPa 0,0 l/m 22,5 km/h (4 Bft) S-SW 202 0 min 0,0 UV-I 0 W/m 4,7 C -2,5 C 30,6 km/h (5 Bft)
01.05.2020 00:11 6,2 C 5,6 C 90 % 1002,9 hPa 0,0 l/m 17,7 km/h (3 Bft) S-SW 202 0 min 0,0 UV-I 0 W/m 4,7 C -0,7 C 22,5 km/h (4 Bft)
01.05.2020 00:12 6,2 C 5,6 C 90 % 1002,9 hPa 0,0 l/m 19,3 km/h (3 Bft) S-SW 202 0 min 0,0 UV-I 0 W/m 4,7 C -1,4 C 27,4 km/h (4 Bft)
01.05.2020 00:13 6,2 C 5,6 C 90 % 1002,9 hPa 0,0 l/m 19,3 km/h (3 Bft) S-SW 202 0 min 0,0 UV-I 0 W/m 4,7 C -1,4 C 24,1 km/h (4 Bft)
01.05.2020 00:14 6,2 C 5,6 C 90 % 1002,9 hPa 0,0 l/m 19,3 km/h (3 Bft) S-SW 202 0 min 0,0 UV-I 0 W/m 4,7 C -1,4 C 30,6 km/h (5 Bft)
01.05.2020 00:15 6,2 C 5,6 C 90 % 1002,9 hPa 0,0 l/m 20,9 km/h (4 Bft) S 180 0 min 0,0 UV-I 0 W/m 4,7 C -2,0 C 27,4 km/h (4 Bft)
01.05.2020 00:16 6,2 C 5,6 C 90 % 1002,9 hPa 0,0 l/m 16,1 km/h (3 Bft) S-SW 202 0 min 0,0 UV-I 0 W/m 4,7 C 0,0 C 30,6 km/h (5 Bft)
01.05.2020 00:17 6,2 C 5,6 C 90 % 1003,0 hPa 0,0 l/m 17,7 km/h (3 Bft) S-SW 202 0 min 0,0 UV-I 0 W/m 4,7 C -0,7 C 27,4 km/h (4 Bft)
01.05.2020 00:18 6,2 C 5,6 C 90 % 1002,9 hPa 0,0 l/m 17,7 km/h (3 Bft) SW 225 0 min 0,0 UV-I 0 W/m 4,7 C -0,7 C 27,4 km/h (4 Bft)
01.05.2020 00:19 6,3 C 5,6 C 90 % 1003,0 hPa 0,0 l/m 25,7 km/h (4 Bft) S-SW 202 0 min 0,0 UV-I 0 W/m 4,8 C -3,4 C 33,8 km/h (5 Bft)
01.05.2020 00:20 6,3 C 5,6 C 90 % 1003,0 hPa 0,0 l/m 16,1 km/h (3 Bft) S-SW 202 0 min 0,0 UV-I 0 W/m 4,8 C 0,1 C 25,7 km/h (4 Bft)
01.05.2020 00:21 6,3 C 5,6 C 90 % 1003,0 hPa 0,0 l/m 16,1 km/h (3 Bft) S-SW 202 0 min 0,0 UV-I 0 W/m 4,8 C 0,1 C 25,7 km/h (4 Bft)
01.05.2020 00:22 6,3 C 5,6 C 90 % 1003,0 hPa 0,0 l/m 16,1 km/h (3 Bft) S-SW 202 0 min 0,0 UV-I 0 W/m 4,8 C 0,1 C 22,5 km/h (4 Bft)
01.05.2020 00:23 6,3 C 5,6 C 90 % 1003,0 hPa 0,0 l/m 19,3 km/h (3 Bft) S-SW 202 0 min 0,0 UV-I 0 W/m 4,8 C -1,2 C 27,4 km/h (4 Bft)
01.05.2020 00:24 6,3 C 5,6 C 90 % 1003,1 hPa 0,0 l/m 16,1 km/h (3 Bft) S-SW 202 0 min 0,0 UV-I 0 W/m 4,8 C 0,1 C 27,4 km/h (4 Bft)
01.05.2020 00:25 6,3 C 5,6 C 90 % 1003,0 hPa 0,0 l/m 20,9 km/h (4 Bft) S-SW 202 0 min 0,0 UV-I 0 W/m 4,8 C -1,8 C 27,4 km/h (4 Bft)
01.05.2020 00:26 6,3 C 5,6 C 90 % 1003,0 hPa 0,0 l/m 17,7 km/h (3 Bft) SW 225 0 min 0,0 UV-I 0 W/m 4,8 C -0,6 C 22,5 km/h (4 Bft)
01.05.2020 00:27 6,2 C 5,6 C 90 % 1002,9 hPa 0,0 l/m 16,1 km/h (3 Bft) S-SW 202 0 min 0,0 UV-I 0 W/m 4,7 C 0,0 C 24,1 km/h (4 Bft)
01.05.2020 00:28 6,3 C 5,6 C 90 % 1002,9 hPa 0,0 l/m 20,9 km/h (4 Bft) S-SW 202 0 min 0,0 UV-I 0 W/m 4,8 C -1,8 C 25,7 km/h (4 Bft)
01.05.2020 00:29 6,2 C 5,6 C 90 % 1003,0 hPa 0,0 l/m 19,3 km/h (3 Bft) S-SW 202 0 min 0,0 UV-I 0 W/m 4,7 C -1,4 C 27,4 km/h (4 Bft)
01.05.2020 00:30 6,2 C 5,6 C 91 % 1003,0 hPa 0,0 l/m 14,5 km/h (3 Bft) S-SW 202 0 min 0,0 UV-I 0 W/m 4,8 C 0,8 C 19,3 km/h (3 Bft)
01.05.2020 00:31 6,2 C 5,6 C 91 % 1003,1 hPa 0,0 l/m 19,3 km/h (3 Bft) S-SW 202 0 min 0,0 UV-I 0 W/m 4,8 C -1,4 C 30,6 km/h (5 Bft)
01.05.2020 00:32 6,2 C 5,6 C 90 % 1003,1 hPa 0,0 l/m 17,7 km/h (3 Bft) S 180 0 min 0,0 UV-I 0 W/m 4,7 C -0,7 C 25,7 km/h (4 Bft)
01.05.2020 00:33 6,2 C 5,6 C 90 % 1003,2 hPa 0,0 l/m 19,3 km/h (3 Bft) S-SW 202 0 min 0,0 UV-I 0 W/m 4,7 C -1,4 C 27,4 km/h (4 Bft)
01.05.2020 00:34 6,2 C 5,6 C 91 % 1003,2 hPa 0,0 l/m 14,5 km/h (3 Bft) S-SW 202 0 min 0,0 UV-I 0 W/m 4,8 C 0,8 C 25,7 km/h (4 Bft)
01.05.2020 00:35 6,2 C 5,6 C 91 % 1003,1 hPa 0,0 l/m 19,3 km/h (3 Bft) S-SW 202 0 min 0,0 UV-I 0 W/m 4,8 C -1,4 C 27,4 km/h (4 Bft)
01.05.2020 00:36 6,2 C 5,6 C 91 % 1003,3 hPa 0,0 l/m 17,7 km/h (3 Bft) S-SW 202 0 min 0,0 UV-I 0 W/m 4,8 C -0,7 C 29,0 km/h (5 Bft)
01.05.2020 00:37 6,2 C 5,6 C 91 % 1003,2 hPa 0,0 l/m 20,9 km/h (4 Bft) S-SW 202 0 min 0,0 UV-I 0 W/m 4,8 C -2,0 C 30,6 km/h (5 Bft)
01.05.2020 00:38 6,2 C 5,6 C 91 % 1003,2 hPa 0,0 l/m 24,1 km/h (4 Bft) S-SW 202 0 min 0,0 UV-I 0 W/m 4,8 C -3,0 C 30,6 km/h (5 Bft)
01.05.2020 00:39 6,3 C 5,6 C 91 % 1003,3 hPa 0,0 l/m 20,9 km/h (4 Bft) S-SW 202 0 min 0,0 UV-I 0 W/m 4,9 C -1,8 C 25,7 km/h (4 Bft)
01.05.2020 00:40 6,3 C 5,6 C 91 % 1003,3 hPa 0,0 l/m 17,7 km/h (3 Bft) S-SW 202 0 min 0,0 UV-I 0 W/m 4,9 C -0,6 C 22,5 km/h (4 Bft)
01.05.2020 00:41 6,2 C 5,6 C 91 % 1003,3 hPa 0,0 l/m 17,7 km/h (3 Bft) S-SW 202 0 min 0,0 UV-I 0 W/m 4,8 C -0,7 C 22,5 km/h (4 Bft)
01.05.2020 00:42 6,2 C 5,6 C 91 % 1003,3 hPa 0,0 l/m 14,5 km/h (3 Bft) S-SW 202 0 min 0,0 UV-I 0 W/m 4,8 C 0,8 C 19,3 km/h (3 Bft)
01.05.2020 00:43 6,2 C 5,6 C 91 % 1003,3 hPa 0,0 l/m 19,3 km/h (3 Bft) S-SW 202 0 min 0,0 UV-I 0 W/m 4,8 C -1,4 C 30,6 km/h (5 Bft)
01.05.2020 00:44 6,2 C 5,6 C 91 % 1003,3 hPa 0,0 l/m 16,1 km/h (3 Bft) S-SW 202 0 min 0,0 UV-I 0 W/m 4,8 C 0,0 C 22,5 km/h (4 Bft)
01.05.2020 00:45 6,3 C 5,6 C 91 % 1003,3 hPa 0,0 l/m 22,5 km/h (4 Bft) S-SW 202 0 min 0,0 UV-I 0 W/m 4,9 C -2,4 C 35,4 km/h (5 Bft)
01.05.2020 00:46 6,3 C 5,6 C 91 % 1003,3 hPa 0,0 l/m 20,9 km/h (4 Bft) S-SW 202 0 min 0,0 UV-I 0 W/m 4,9 C -1,8 C 33,8 km/h (5 Bft)
01.05.2020 00:47 6,3 C 5,6 C 91 % 1003,3 hPa 0,0 l/m 19,3 km/h (3 Bft) S-SW 202 0 min 0,0 UV-I 0 W/m 4,9 C -1,2 C 29,0 km/h (5 Bft)
01.05.2020 00:48 6,3 C 5,6 C 91 % 1003,3 hPa 0,0 l/m 19,3 km/h (3 Bft) S-SW 202 0 min 0,0 UV-I 0 W/m 4,9 C -1,2 C 32,2 km/h (5 Bft)
01.05.2020 00:49 6,2 C 5,6 C 91 % 1003,3 hPa 0,0 l/m 14,5 km/h (3 Bft) S-SW 202 0 min 0,0 UV-I 0 W/m 4,8 C 0,8 C 24,1 km/h (4 Bft)
01.05.2020 00:50 6,3 C 5,6 C 91 % 1003,3 hPa 0,0 l/m 24,1 km/h (4 Bft) S-SW 202 0 min 0,0 UV-I 0 W/m 4,9 C -2,9 C 32,2 km/h (5 Bft)
01.05.2020 00:51 6,3 C 5,6 C 91 % 1003,3 hPa 0,0 l/m 17,7 km/h (3 Bft) S-SW 202 0 min 0,0 UV-I 0 W/m 4,9 C -0,6 C 29,0 km/h (5 Bft)
01.05.2020 00:52 6,3 C 5,6 C 91 % 1003,2 hPa 0,0 l/m 19,3 km/h (3 Bft) S-SW 202 0 min 0,0 UV-I 0 W/m 4,9 C -1,2 C 30,6 km/h (5 Bft)
01.05.2020 00:53 6,3 C 5,6 C 91 % 1003,2 hPa 0,0 l/m 20,9 km/h (4 Bft) S-SW 202 0 min 0,0 UV-I 0 W/m 4,9 C -1,8 C 29,0 km/h (5 Bft)
01.05.2020 00:54 6,2 C 5,6 C 91 % 1003,3 hPa 0,0 l/m 17,7 km/h (3 Bft) S-SW 202 0 min 0,0 UV-I 0 W/m 4,8 C -0,7 C 27,4 km/h (4 Bft)
01.05.2020 00:55 6,3 C 5,6 C 90 % 1003,2 hPa 0,0 l/m 20,9 km/h (4 Bft) S-SW 202 0 min 0,0 UV-I 0 W/m 4,8 C -1,8 C 27,4 km/h (4 Bft)
01.05.2020 00:56 6,2 C 5,6 C 91 % 1003,2 hPa 0,0 l/m 20,9 km/h (4 Bft) S-SW 202 0 min 0,0 UV-I 0 W/m 4,8 C -2,0 C 30,6 km/h (5 Bft)
01.05.2020 00:57 6,2 C 5,6 C 91 % 1003,3 hPa 0,0 l/m 16,1 km/h (3 Bft) SW 225 0 min 0,0 UV-I 0 W/m 4,8 C 0,0 C 20,9 km/h (4 Bft)
01.05.2020 00:58 6,2 C 5,6 C 91 % 1003,3 hPa 0,0 l/m 17,7 km/h (3 Bft) S-SW 202 0 min 0,0 UV-I 0 W/m 4,8 C -0,7 C 25,7 km/h (4 Bft)
01.05.2020 00:59 6,2 C 5,6 C 90 % 1003,4 hPa 0,0 l/m 20,9 km/h (4 Bft) S-SW 202 0 min 0,0 UV-I 0 W/m 4,7 C -2,0 C 37,0 km/h (5 Bft)
01.05.2020 01:00 6,2 C 5,6 C 91 % 1003,4 hPa 0,0 l/m 17,7 km/h (3 Bft) S-SW 202 0 min 0,0 UV-I 0 W/m 4,8 C -0,7 C 22,5 km/h (4 Bft)
01.05.2020 01:01 6,2 C 5,6 C 91 % 1003,3 hPa 0,0 l/m 17,7 km/h (3 Bft) SW 225 0 min 0,0 UV-I 0 W/m 4,8 C -0,7 C 25,7 km/h (4 Bft)
01.05.2020 01:02 6,2 C 5,6 C 91 % 1003,3 hPa 0,0 l/m 19,3 km/h (3 Bft) S-SW 202 0 min 0,0 UV-I 0 W/m 4,8 C -1,4 C 27,4 km/h (4 Bft)
01.05.2020 01:03 6,2 C 5,6 C 91 % 1003,3 hPa 0,0 l/m 24,1 km/h (4 Bft) S-SW 202 0 min 0,0 UV-I 0 W/m 4,8 C -3,0 C 29,0 km/h (5 Bft)
01.05.2020 01:04 6,2 C 5,6 C 91 % 1003,3 hPa 0,0 l/m 20,9 km/h (4 Bft) S-SW 202 0 min 0,0 UV-I 0 W/m 4,8 C -2,0 C 25,7 km/h (4 Bft)
01.05.2020 01:05 6,2 C 5,6 C 91 % 1003,3 hPa 0,0 l/m 17,7 km/h (3 Bft) S-SW 202 0 min 0,0 UV-I 0 W/m 4,8 C -0,7 C 25,7 km/h (4 Bft)
01.05.2020 01:06 6,3 C 5,6 C 91 % 1003,4 hPa 0,0 l/m 19,3 km/h (3 Bft) SW 225 0 min 0,0 UV-I 0 W/m 4,9 C -1,2 C 27,4 km/h (4 Bft)
01.05.2020 01:07 6,2 C 5,6 C 91 % 1003,4 hPa 0,0 l/m 20,9 km/h (4 Bft) S-SW 202 0 min 0,0 UV-I 0 W/m 4,8 C -2,0 C 27,4 km/h (4 Bft)
01.05.2020 01:08 6,2 C 5,6 C 91 % 1003,4 hPa 0,0 l/m 17,7 km/h (3 Bft) S-SW 202 0 min 0,0 UV-I 0 W/m 4,8 C -0,7 C 24,1 km/h (4 Bft)
01.05.2020 01:09 6,2 C 5,6 C 91 % 1003,4 hPa 0,0 l/m 17,7 km/h (3 Bft) S-SW 202 0 min 0,0 UV-I 0 W/m 4,8 C -0,7 C 22,5 km/h (4 Bft)
01.05.2020 01:10 6,2 C 5,6 C 91 % 1003,4 hPa 0,0 l/m 19,3 km/h (3 Bft) S-SW 202 0 min 0,0 UV-I 0 W/m 4,8 C -1,4 C 30,6 km/h (5 Bft)
01.05.2020 01:11 6,2 C 5,6 C 91 % 1003,4 hPa 0,0 l/m 24,1 km/h (4 Bft) S-SW 202 0 min 0,0 UV-I 0 W/m 4,8 C -3,0 C 30,6 km/h (5 Bft)
01.05.2020 01:12 6,2 C 5,6 C 90 % 1003,5 hPa 0,0 l/m 22,5 km/h (4 Bft) S-SW 202 0 min 0,0 UV-I 0 W/m 4,7 C -2,5 C 37,0 km/h (5 Bft)
01.05.2020 01:13 6,2 C 5,6 C 91 % 1003,4 hPa 0,0 l/m 20,9 km/h (4 Bft) S-SW 202 0 min 0,0 UV-I 0 W/m 4,8 C -2,0 C 30,6 km/h (5 Bft)
01.05.2020 01:14 6,2 C 5,6 C 91 % 1003,5 hPa 0,0 l/m 22,5 km/h (4 Bft) S-SW 202 0 min 0,0 UV-I 0 W/m 4,8 C -2,5 C 37,0 km/h (5 Bft)
01.05.2020 01:15 6,2 C 5,6 C 90 % 1003,5 hPa 0,0 l/m 17,7 km/h (3 Bft) S-SW 202 0 min 0,0 UV-I 0 W/m 4,7 C -0,7 C 22,5 km/h (4 Bft)
01.05.2020 01:16 6,2 C 5,6 C 90 % 1003,4 hPa 0,0 l/m 19,3 km/h (3 Bft) S-SW 202 0 min 0,0 UV-I 0 W/m 4,7 C -1,4 C 29,0 km/h (5 Bft)
01.05.2020 01:17 6,2 C 5,6 C 90 % 1003,5 hPa 0,0 l/m 14,5 km/h (3 Bft) S-SW 202 0 min 0,0 UV-I 0 W/m 4,7 C 0,8 C 22,5 km/h (4 Bft)
01.05.2020 01:18 6,2 C 5,6 C 90 % 1003,5 hPa 0,0 l/m 19,3 km/h (3 Bft) S-SW 202 0 min 0,0 UV-I 0 W/m 4,7 C -1,4 C 25,7 km/h (4 Bft)
01.05.2020 01:19 6,2 C 5,6 C 90 % 1003,4 hPa 0,0 l/m 16,1 km/h (3 Bft) SW 225 0 min 0,0 UV-I 0 W/m 4,7 C 0,0 C 25,7 km/h (4 Bft)
01.05.2020 01:20 6,1 C 5,6 C 90 % 1003,4 hPa 0,0 l/m 22,5 km/h (4 Bft) S-SW 202 0 min 0,0 UV-I 0 W/m 4,6 C -2,6 C 32,2 km/h (5 Bft)
01.05.2020 01:21 6,1 C 5,6 C 90 % 1003,4 hPa 0,0 l/m 20,9 km/h (4 Bft) S-SW 202 0 min 0,0 UV-I 0 W/m 4,6 C -2,1 C 29,0 km/h (5 Bft)
01.05.2020 01:22 6,1 C 5,6 C 90 % 1003,4 hPa 0,0 l/m 20,9 km/h (4 Bft) S-SW 202 0 min 0,0 UV-I 0 W/m 4,6 C -2,1 C 32,2 km/h (5 Bft)
01.05.2020 01:23 6,1 C 5,6 C 90 % 1003,5 hPa 0,0 l/m 19,3 km/h (3 Bft) S-SW 202 0 min 0,0 UV-I 0 W/m 4,6 C -1,5 C 29,0 km/h (5 Bft)
01.05.2020 01:24 6,1 C 5,6 C 90 % 1003,4 hPa 0,0 l/m 14,5 km/h (3 Bft) S-SW 202 0 min 0,0 UV-I 0 W/m 4,6 C 0,7 C 27,4 km/h (4 Bft)
01.05.2020 01:25 6,1 C 5,6 C 90 % 1003,5 hPa 0,0 l/m 17,7 km/h (3 Bft) S-SW 202 0 min 0,0 UV-I 0 W/m 4,6 C -0,8 C 24,1 km/h (4 Bft)
01.05.2020 01:26 6,1 C 5,6 C 90 % 1003,5 hPa 0,0 l/m 20,9 km/h (4 Bft) S-SW 202 0 min 0,0 UV-I 0 W/m 4,6 C -2,1 C 30,6 km/h (5 Bft)
01.05.2020 01:27 6,1 C 5,6 C 90 % 1003,6 hPa 0,0 l/m 19,3 km/h (3 Bft) S-SW 202 0 min 0,0 UV-I 0 W/m 4,6 C -1,5 C 24,1 km/h (4 Bft)
01.05.2020 01:28 6,0 C 5,6 C 90 % 1003,5 hPa 0,0 l/m 16,1 km/h (3 Bft) S-SW 202 0 min 0,0 UV-I 0 W/m 4,5 C -0,2 C 20,9 km/h (4 Bft)
01.05.2020 01:29 6,1 C 5,6 C 90 % 1003,4 hPa 0,0 l/m 14,5 km/h (3 Bft) S-SW 202 0 min 0,0 UV-I 0 W/m 4,6 C 0,7 C 20,9 km/h (4 Bft)
01.05.2020 01:30 6,0 C 5,6 C 90 % 1003,5 hPa 0,0 l/m 17,7 km/h (3 Bft) S-SW 202 0 min 0,0 UV-I 0 W/m 4,5 C -1,0 C 22,5 km/h (4 Bft)
01.05.2020 01:31 6,0 C 5,6 C 91 % 1003,4 hPa 0,0 l/m 12,9 km/h (3 Bft) S-SW 202 0 min 0,0 UV-I 0 W/m 4,6 C 1,4 C 17,7 km/h (3 Bft)
01.05.2020 01:32 6,0 C 5,6 C 91 % 1003,4 hPa 0,0 l/m 14,5 km/h (3 Bft) S-SW 202 0 min 0,0 UV-I 0 W/m 4,6 C 0,5 C 20,9 km/h (4 Bft)
01.05.2020 01:33 6,0 C 5,6 C 91 % 1003,4 hPa 0,0 l/m 20,9 km/h (4 Bft) SW 225 0 min 0,0 UV-I 0 W/m 4,6 C -2,2 C 30,6 km/h (5 Bft)
01.05.2020 01:34 6,0 C 5,6 C 91 % 1003,4 hPa 0,0 l/m 16,1 km/h (3 Bft) S-SW 202 0 min 0,0 UV-I 0 W/m 4,6 C -0,2 C 20,9 km/h (4 Bft)
01.05.2020 01:35 6,0 C 5,6 C 91 % 1003,4 hPa 0,0 l/m 16,1 km/h (3 Bft) S-SW 202 0 min 0,0 UV-I 0 W/m 4,6 C -0,2 C 25,7 km/h (4 Bft)
01.05.2020 01:36 6,0 C 5,6 C 91 % 1003,4 hPa 0,0 l/m 17,7 km/h (3 Bft) S-SW 202 0 min 0,0 UV-I 0 W/m 4,6 C -1,0 C 25,7 km/h (4 Bft)
01.05.2020 01:37 6,0 C 5,6 C 91 % 1003,4 hPa 0,0 l/m 17,7 km/h (3 Bft) S-SW 202 0 min 0,0 UV-I 0 W/m 4,6 C -1,0 C 30,6 km/h (5 Bft)
01.05.2020 01:38 6,0 C 5,6 C 91 % 1003,4 hPa 0,0 l/m 17,7 km/h (3 Bft) S-SW 202 0 min 0,0 UV-I 0 W/m 4,6 C -1,0 C 25,7 km/h (4 Bft)
01.05.2020 01:39 6,0 C 5,6 C 91 % 1003,4 hPa 0,0 l/m 17,7 km/h (3 Bft) S-SW 202 0 min 0,0 UV-I 0 W/m 4,6 C -1,0 C 25,7 km/h (4 Bft)
01.05.2020 01:40 6,0 C 5,6 C 91 % 1003,4 hPa 0,0 l/m 17,7 km/h (3 Bft) S-SW 202 0 min 0,0 UV-I 0 W/m 4,6 C -1,0 C 24,1 km/h (4 Bft)
01.05.2020 01:41 6,1 C 5,6 C 91 % 1003,4 hPa 0,0 l/m 17,7 km/h (3 Bft) S-SW 202 0 min 0,0 UV-I 0 W/m 4,7 C -0,8 C 25,7 km/h (4 Bft)
01.05.2020 01:42 6,1 C 5,6 C 91 % 1003,4 hPa 0,0 l/m 17,7 km/h (3 Bft) SW 225 0 min 0,0 UV-I 0 W/m 4,7 C -0,8 C 24,1 km/h (4 Bft)
01.05.2020 01:43 6,0 C 5,6 C 91 % 1003,4 hPa 0,0 l/m 17,7 km/h (3 Bft) S-SW 202 0 min 0,0 UV-I 0 W/m 4,6 C -1,0 C 25,7 km/h (4 Bft)
01.05.2020 01:44 6,1 C 5,6 C 91 % 1003,4 hPa 0,0 l/m 16,1 km/h (3 Bft) S-SW 202 0 min 0,0 UV-I 0 W/m 4,7 C -0,1 C 22,5 km/h (4 Bft)
01.05.2020 01:45 6,1 C 5,6 C 91 % 1003,5 hPa 0,0 l/m 17,7 km/h (3 Bft) S-SW 202 0 min 0,0 UV-I 0 W/m 4,7 C -0,8 C 30,6 km/h (5 Bft)
01.05.2020 01:46 6,1 C 5,6 C 91 % 1003,3 hPa 0,0 l/m 17,7 km/h (3 Bft) S-SW 202 0 min 0,0 UV-I 0 W/m 4,7 C -0,8 C 25,7 km/h (4 Bft)
01.05.2020 01:47 6,1 C 5,6 C 91 % 1003,3 hPa 0,0 l/m 16,1 km/h (3 Bft) S-SW 202 0 min 0,0 UV-I 0 W/m 4,7 C -0,1 C 25,7 km/h (4 Bft)
01.05.2020 01:48 6,1 C 5,6 C 91 % 1003,2 hPa 0,0 l/m 16,1 km/h (3 Bft) S-SW 202 0 min 0,0 UV-I 0 W/m 4,7 C -0,1 C 20,9 km/h (4 Bft)
01.05.2020 01:49 6,1 C 5,6 C 91 % 1003,4 hPa 0,0 l/m 12,9 km/h (3 Bft) S-SW 202 0 min 0,0 UV-I 0 W/m 4,7 C 1,5 C 20,9 km/h (4 Bft)
01.05.2020 01:50 6,0 C 5,6 C 91 % 1003,2 hPa 0,0 l/m 19,3 km/h (3 Bft) S-SW 202 0 min 0,0 UV-I 0 W/m 4,6 C -1,6 C 25,7 km/h (4 Bft)
01.05.2020 01:51 6,0 C 5,6 C 91 % 1003,3 hPa 0,0 l/m 19,3 km/h (3 Bft) S-SW 202 0 min 0,0 UV-I 0 W/m 4,6 C -1,6 C 27,4 km/h (4 Bft)
01.05.2020 01:52 6,0 C 5,6 C 91 % 1003,3 hPa 0,0 l/m 17,7 km/h (3 Bft) S-SW 202 0 min 0,0 UV-I 0 W/m 4,6 C -1,0 C 24,1 km/h (4 Bft)
01.05.2020 01:53 5,9 C 5,6 C 91 % 1003,3 hPa 0,0 l/m 17,7 km/h (3 Bft) S-SW 202 0 min 0,0 UV-I 0 W/m 4,5 C -1,1 C 25,7 km/h (4 Bft)
01.05.2020 01:54 6,0 C 5,6 C 91 % 1003,4 hPa 0,0 l/m 14,5 km/h (3 Bft) S-SW 202 0 min 0,0 UV-I 0 W/m 4,6 C 0,5 C 22,5 km/h (4 Bft)
01.05.2020 01:55 6,0 C 5,6 C 91 % 1003,3 hPa 0,0 l/m 17,7 km/h (3 Bft) S-SW 202 0 min 0,0 UV-I 0 W/m 4,6 C -1,0 C 24,1 km/h (4 Bft)
01.05.2020 01:56 6,0 C 5,6 C 91 % 1003,4 hPa 0,0 l/m 16,1 km/h (3 Bft) S-SW 202 0 min 0,0 UV-I 0 W/m 4,6 C -0,2 C 20,9 km/h (4 Bft)
01.05.2020 01:57 6,0 C 5,6 C 91 % 1003,3 hPa 0,0 l/m 16,1 km/h (3 Bft) S-SW 202 0 min 0,0 UV-I 0 W/m 4,6 C -0,2 C 22,5 km/h (4 Bft)
01.05.2020 01:58 6,0 C 5,6 C 91 % 1003,4 hPa 0,0 l/m 14,5 km/h (3 Bft) S-SW 202 0 min 0,0 UV-I 0 W/m 4,6 C 0,5 C 19,3 km/h (3 Bft)
01.05.2020 01:59 6,0 C 5,6 C 91 % 1003,3 hPa 0,0 l/m 17,7 km/h (3 Bft) S-SW 202 0 min 0,0 UV-I 0 W/m 4,6 C -1,0 C 24,1 km/h (4 Bft)
01.05.2020 02:00 6,0 C 5,6 C 91 % 1003,3 hPa 0,0 l/m 19,3 km/h (3 Bft) S-SW 202 0 min 0,0 UV-I 0 W/m 4,6 C -1,6 C 24,1 km/h (4 Bft)
01.05.2020 02:01 6,1 C 5,6 C 91 % 1003,3 hPa 0,0 l/m 12,9 km/h (3 Bft) S-SW 202 0 min 0,0 UV-I 0 W/m 4,7 C 1,5 C 24,1 km/h (4 Bft)
01.05.2020 02:02 6,0 C 5,6 C 91 % 1003,2 hPa 0,0 l/m 16,1 km/h (3 Bft) S-SW 202 0 min 0,0 UV-I 0 W/m 4,6 C -0,2 C 22,5 km/h (4 Bft)
01.05.2020 02:03 6,0 C 5,6 C 91 % 1003,3 hPa 0,0 l/m 14,5 km/h (3 Bft) S-SW 202 0 min 0,0 UV-I 0 W/m 4,6 C 0,5 C 20,9 km/h (4 Bft)
01.05.2020 02:04 6,0 C 5,6 C 91 % 1003,2 hPa 0,0 l/m 14,5 km/h (3 Bft) S-SW 202 0 min 0,0 UV-I 0 W/m 4,6 C 0,5 C 20,9 km/h (4 Bft)
01.05.2020 02:05 6,0 C 5,6 C 91 % 1003,3 hPa 0,0 l/m 19,3 km/h (3 Bft) S-SW 202 0 min 0,0 UV-I 0 W/m 4,6 C -1,6 C 25,7 km/h (4 Bft)
01.05.2020 02:06 6,0 C 5,6 C 91 % 1003,3 hPa 0,0 l/m 16,1 km/h (3 Bft) S-SW 202 0 min 0,0 UV-I 0 W/m 4,6 C -0,2 C 25,7 km/h (4 Bft)
01.05.2020 02:07 6,0 C 5,6 C 91 % 1003,3 hPa 0,0 l/m 17,7 km/h (3 Bft) S-SW 202 0 min 0,0 UV-I 0 W/m 4,6 C -1,0 C 20,9 km/h (4 Bft)
01.05.2020 02:08 6,1 C 5,6 C 91 % 1003,3 hPa 0,0 l/m 20,9 km/h (4 Bft) S-SW 202 0 min 0,0 UV-I 0 W/m 4,7 C -2,1 C 27,4 km/h (4 Bft)
01.05.2020 02:09 6,1 C 5,6 C 91 % 1003,3 hPa 0,0 l/m 17,7 km/h (3 Bft) S-SW 202 0 min 0,0 UV-I 0 W/m 4,7 C -0,8 C 27,4 km/h (4 Bft)
01.05.2020 02:10 6,1 C 5,6 C 91 % 1003,2 hPa 0,0 l/m 22,5 km/h (4 Bft) S-SW 202 0 min 0,0 UV-I 0 W/m 4,7 C -2,6 C 29,0 km/h (5 Bft)
01.05.2020 02:11 6,1 C 5,6 C 91 % 1003,2 hPa 0,0 l/m 20,9 km/h (4 Bft) S-SW 202 0 min 0,0 UV-I 0 W/m 4,7 C -2,1 C 24,1 km/h (4 Bft)
01.05.2020 02:12 6,1 C 5,6 C 91 % 1003,1 hPa 0,0 l/m 16,1 km/h (3 Bft) S-SW 202 0 min 0,0 UV-I 0 W/m 4,7 C -0,1 C 24,1 km/h (4 Bft)
01.05.2020 02:13 6,1 C 5,6 C 91 % 1003,2 hPa 0,0 l/m 20,9 km/h (4 Bft) S-SW 202 0 min 0,0 UV-I 0 W/m 4,7 C -2,1 C 27,4 km/h (4 Bft)
01.05.2020 02:14 6,1 C 5,6 C 91 % 1003,1 hPa 0,0 l/m 14,5 km/h (3 Bft) S-SW 202 0 min 0,0 UV-I 0 W/m 4,7 C 0,7 C 20,9 km/h (4 Bft)
01.05.2020 02:15 6,1 C 5,6 C 91 % 1003,2 hPa 0,0 l/m 16,1 km/h (3 Bft) S-SW 202 0 min 0,0 UV-I 0 W/m 4,7 C -0,1 C 24,1 km/h (4 Bft)
01.05.2020 02:16 6,1 C 5,6 C 91 % 1003,1 hPa 0,0 l/m 12,9 km/h (3 Bft) S-SW 202 0 min 0,0 UV-I 0 W/m 4,7 C 1,5 C 19,3 km/h (3 Bft)
01.05.2020 02:17 6,1 C 5,6 C 91 % 1003,1 hPa 0,0 l/m 12,9 km/h (3 Bft) S-SW 202 0 min 0,0 UV-I 0 W/m 4,7 C 1,5 C 17,7 km/h (3 Bft)
01.05.2020 02:18 6,1 C 5,6 C 91 % 1003,1 hPa 0,0 l/m 19,3 km/h (3 Bft) S-SW 202 0 min 0,0 UV-I 0 W/m 4,7 C -1,5 C 24,1 km/h (4 Bft)
01.05.2020 02:19 6,1 C 5,6 C 91 % 1003,1 hPa 0,0 l/m 17,7 km/h (3 Bft) S-SW 202 0 min 0,0 UV-I 0 W/m 4,7 C -0,8 C 25,7 km/h (4 Bft)
01.05.2020 02:20 6,1 C 5,6 C 91 % 1003,1 hPa 0,0 l/m 17,7 km/h (3 Bft) S-SW 202 0 min 0,0 UV-I 0 W/m 4,7 C -0,8 C 27,4 km/h (4 Bft)
01.05.2020 02:21 6,1 C 5,6 C 91 % 1003,1 hPa 0,0 l/m 20,9 km/h (4 Bft) S-SW 202 0 min 0,0 UV-I 0 W/m 4,7 C -2,1 C 32,2 km/h (5 Bft)
01.05.2020 02:22 6,1 C 5,6 C 91 % 1003,1 hPa 0,0 l/m 19,3 km/h (3 Bft) S-SW 202 0 min 0,0 UV-I 0 W/m 4,7 C -1,5 C 27,4 km/h (4 Bft)
01.05.2020 02:23 6,1 C 5,6 C 91 % 1003,1 hPa 0,0 l/m 17,7 km/h (3 Bft) S-SW 202 0 min 0,0 UV-I 0 W/m 4,7 C -0,8 C 29,0 km/h (5 Bft)
01.05.2020 02:24 6,1 C 5,6 C 91 % 1003,1 hPa 0,0 l/m 14,5 km/h (3 Bft) S-SW 202 0 min 0,0 UV-I 0 W/m 4,7 C 0,7 C 22,5 km/h (4 Bft)
01.05.2020 02:25 6,1 C 5,6 C 91 % 1003,1 hPa 0,0 l/m 12,9 km/h (3 Bft) S-SW 202 0 min 0,0 UV-I 0 W/m 4,7 C 1,5 C 19,3 km/h (3 Bft)
01.05.2020 02:26 6,1 C 5,6 C 91 % 1003,0 hPa 0,0 l/m 14,5 km/h (3 Bft) S-SW 202 0 min 0,0 UV-I 0 W/m 4,7 C 0,7 C 22,5 km/h (4 Bft)
01.05.2020 02:27 6,1 C 5,6 C 91 % 1003,1 hPa 0,0 l/m 14,5 km/h (3 Bft) SW 225 0 min 0,0 UV-I 0 W/m 4,7 C 0,7 C 19,3 km/h (3 Bft)
01.05.2020 02:28 6,1 C 5,6 C 91 % 1003,0 hPa 0,0 l/m 17,7 km/h (3 Bft) S-SW 202 0 min 0,0 UV-I 0 W/m 4,7 C -0,8 C 25,7 km/h (4 Bft)
01.05.2020 02:29 6,1 C 5,6 C 90 % 1003,1 hPa 0,0 l/m 19,3 km/h (3 Bft) S-SW 202 0 min 0,0 UV-I 0 W/m 4,6 C -1,5 C 27,4 km/h (4 Bft)
01.05.2020 02:30 6,1 C 5,6 C 90 % 1003,0 hPa 0,0 l/m 12,9 km/h (3 Bft) S-SW 202 0 min 0,0 UV-I 0 W/m 4,6 C 1,5 C 22,5 km/h (4 Bft)
01.05.2020 02:31 6,1 C 5,6 C 90 % 1003,0 hPa 0,0 l/m 16,1 km/h (3 Bft) S-SW 202 0 min 0,0 UV-I 0 W/m 4,6 C -0,1 C 20,9 km/h (4 Bft)
01.05.2020 02:32 6,1 C 5,6 C 90 % 1003,1 hPa 0,0 l/m 14,5 km/h (3 Bft) S-SW 202 0 min 0,0 UV-I 0 W/m 4,6 C 0,7 C 20,9 km/h (4 Bft)
01.05.2020 02:33 6,1 C 5,6 C 91 % 1003,1 hPa 0,0 l/m 12,9 km/h (3 Bft) S-SW 202 0 min 0,0 UV-I 0 W/m 4,7 C 1,5 C 17,7 km/h (3 Bft)
01.05.2020 02:34 6,1 C 5,6 C 91 % 1003,1 hPa 0,0 l/m 12,9 km/h (3 Bft) S-SW 202 0 min 0,0 UV-I 0 W/m 4,7 C 1,5 C 19,3 km/h (3 Bft)
01.05.2020 02:35 6,1 C 5,6 C 91 % 1003,0 hPa 0,0 l/m 14,5 km/h (3 Bft) S-SW 202 0 min 0,0 UV-I 0 W/m 4,7 C 0,7 C 25,7 km/h (4 Bft)
01.05.2020 02:36 6,1 C 5,6 C 91 % 1003,1 hPa 0,0 l/m 14,5 km/h (3 Bft) S-SW 202 0 min 0,0 UV-I 0 W/m 4,7 C 0,7 C 24,1 km/h (4 Bft)
01.05.2020 02:37 6,1 C 5,6 C 91 % 1003,0 hPa 0,0 l/m 12,9 km/h (3 Bft) S-SW 202 0 min 0,0 UV-I 0 W/m 4,7 C 1,5 C 17,7 km/h (3 Bft)
01.05.2020 02:38 6,1 C 5,6 C 91 % 1003,0 hPa 0,0 l/m 19,3 km/h (3 Bft) S-SW 202 0 min 0,0 UV-I 0 W/m 4,7 C -1,5 C 27,4 km/h (4 Bft)
01.05.2020 02:39 6,0 C 5,6 C 91 % 1002,9 hPa 0,0 l/m 20,9 km/h (4 Bft) S-SW 202 0 min 0,0 UV-I 0 W/m 4,6 C -2,2 C 32,2 km/h (5 Bft)
01.05.2020 02:40 6,1 C 5,6 C 91 % 1003,0 hPa 0,0 l/m 19,3 km/h (3 Bft) S-SW 202 0 min 0,0 UV-I 0 W/m 4,7 C -1,5 C 24,1 km/h (4 Bft)
01.05.2020 02:41 6,1 C 5,6 C 91 % 1003,0 hPa 0,0 l/m 16,1 km/h (3 Bft) SW 225 0 min 0,0 UV-I 0 W/m 4,7 C -0,1 C 22,5 km/h (4 Bft)
01.05.2020 02:42 6,1 C 5,6 C 91 % 1003,0 hPa 0,0 l/m 16,1 km/h (3 Bft) S-SW 202 0 min 0,0 UV-I 0 W/m 4,7 C -0,1 C 24,1 km/h (4 Bft)
01.05.2020 02:43 6,1 C 5,6 C 91 % 1003,1 hPa 0,0 l/m 16,1 km/h (3 Bft) S-SW 202 0 min 0,0 UV-I 0 W/m 4,7 C -0,1 C 25,7 km/h (4 Bft)
01.05.2020 02:44 6,0 C 5,6 C 91 % 1003,0 hPa 0,0 l/m 22,5 km/h (4 Bft) S 180 0 min 0,0 UV-I 0 W/m 4,6 C -2,8 C 32,2 km/h (5 Bft)
01.05.2020 02:45 6,0 C 5,6 C 91 % 1002,9 hPa 0,0 l/m 20,9 km/h (4 Bft) S-SW 202 0 min 0,0 UV-I 0 W/m 4,6 C -2,2 C 30,6 km/h (5 Bft)
01.05.2020 02:46 6,1 C 5,6 C 91 % 1003,0 hPa 0,0 l/m 19,3 km/h (3 Bft) S-SW 202 0 min 0,0 UV-I 0 W/m 4,7 C -1,5 C 27,4 km/h (4 Bft)
01.05.2020 02:47 6,1 C 5,6 C 90 % 1003,1 hPa 0,0 l/m 14,5 km/h (3 Bft) S-SW 202 0 min 0,0 UV-I 0 W/m 4,6 C 0,7 C 20,9 km/h (4 Bft)
01.05.2020 02:48 6,1 C 5,6 C 90 % 1003,1 hPa 0,0 l/m 19,3 km/h (3 Bft) S-SW 202 0 min 0,0 UV-I 0 W/m 4,6 C -1,5 C 29,0 km/h (5 Bft)
01.05.2020 02:49 6,1 C 5,6 C 90 % 1003,0 hPa 0,0 l/m 12,9 km/h (3 Bft) S-SW 202 0 min 0,0 UV-I 0 W/m 4,6 C 1,5 C 19,3 km/h (3 Bft)
01.05.2020 02:50 6,1 C 5,6 C 90 % 1003,0 hPa 0,0 l/m 16,1 km/h (3 Bft) S-SW 202 0 min 0,0 UV-I 0 W/m 4,6 C -0,1 C 20,9 km/h (4 Bft)
01.05.2020 02:51 6,1 C 5,6 C 90 % 1003,0 hPa 0,0 l/m 16,1 km/h (3 Bft) S-SW 202 0 min 0,0 UV-I 0 W/m 4,6 C -0,1 C 20,9 km/h (4 Bft)
01.05.2020 02:52 6,0 C 5,6 C 90 % 1002,9 hPa 0,0 l/m 17,7 km/h (3 Bft) S-SW 202 0 min 0,0 UV-I 0 W/m 4,5 C -1,0 C 22,5 km/h (4 Bft)
01.05.2020 02:53 6,0 C 5,0 C 90 % 1003,0 hPa 0,0 l/m 16,1 km/h (3 Bft) S-SW 202 0 min 0,0 UV-I 0 W/m 4,5 C -0,2 C 22,5 km/h (4 Bft)
01.05.2020 02:54 5,9 C 5,0 C 90 % 1002,9 hPa 0,0 l/m 16,1 km/h (3 Bft) SW 225 0 min 0,0 UV-I 0 W/m 4,4 C -0,4 C 25,7 km/h (4 Bft)
01.05.2020 02:55 5,9 C 5,0 C 90 % 1003,0 hPa 0,0 l/m 20,9 km/h (4 Bft) S-SW 202 0 min 0,0 UV-I 0 W/m 4,4 C -2,3 C 25,7 km/h (4 Bft)
01.05.2020 02:56 5,9 C 5,0 C 90 % 1002,8 hPa 0,0 l/m 19,3 km/h (3 Bft) S-SW 202 0 min 0,0 UV-I 0 W/m 4,4 C -1,7 C 27,4 km/h (4 Bft)
01.05.2020 02:57 5,9 C 5,0 C 90 % 1002,8 hPa 0,0 l/m 16,1 km/h (3 Bft) S-SW 202 0 min 0,0 UV-I 0 W/m 4,4 C -0,4 C 22,5 km/h (4 Bft)
01.05.2020 02:58 5,8 C 5,0 C 90 % 1002,8 hPa 0,0 l/m 17,7 km/h (3 Bft) S-SW 202 0 min 0,0 UV-I 0 W/m 4,3 C -1,2 C 24,1 km/h (4 Bft)
01.05.2020 02:59 5,8 C 5,0 C 90 % 1002,9 hPa 0,0 l/m 16,1 km/h (3 Bft) S-SW 202 0 min 0,0 UV-I 0 W/m 4,3 C -0,5 C 24,1 km/h (4 Bft)
01.05.2020 03:00 5,8 C 5,0 C 90 % 1002,8 hPa 0,0 l/m 16,1 km/h (3 Bft) S-SW 202 0 min 0,0 UV-I 0 W/m 4,3 C -0,5 C 20,9 km/h (4 Bft)
01.05.2020 03:01 5,8 C 5,0 C 90 % 1002,9 hPa 0,0 l/m 12,9 km/h (3 Bft) S-SW 202 0 min 0,0 UV-I 0 W/m 4,3 C 1,2 C 20,9 km/h (4 Bft)
01.05.2020 03:02 5,7 C 5,0 C 90 % 1002,9 hPa 0,0 l/m 14,5 km/h (3 Bft) S-SW 202 0 min 0,0 UV-I 0 W/m 4,2 C 0,2 C 19,3 km/h (3 Bft)
01.05.2020 03:03 5,7 C 5,0 C 90 % 1002,9 hPa 0,0 l/m 16,1 km/h (3 Bft) S-SW 202 0 min 0,0 UV-I 0 W/m 4,2 C -0,6 C 19,3 km/h (3 Bft)
01.05.2020 03:04 5,7 C 5,0 C 90 % 1002,8 hPa 0,0 l/m 16,1 km/h (3 Bft) S-SW 202 0 min 0,0 UV-I 0 W/m 4,2 C -0,6 C 24,1 km/h (4 Bft)
01.05.2020 03:05 5,7 C 5,0 C 90 % 1002,8 hPa 0,0 l/m 16,1 km/h (3 Bft) S-SW 202 0 min 0,0 UV-I 0 W/m 4,2 C -0,6 C 22,5 km/h (4 Bft)
01.05.2020 03:06 5,7 C 5,0 C 90 % 1002,9 hPa 0,0 l/m 17,7 km/h (3 Bft) S-SW 202 0 min 0,0 UV-I 0 W/m 4,2 C -1,3 C 20,9 km/h (4 Bft)
01.05.2020 03:07 5,7 C 5,0 C 91 % 1002,9 hPa 0,0 l/m 16,1 km/h (3 Bft) S-SW 202 0 min 0,0 UV-I 0 W/m 4,3 C -0,6 C 20,9 km/h (4 Bft)
01.05.2020 03:08 5,7 C 5,0 C 91 % 1003,0 hPa 0,0 l/m 12,9 km/h (3 Bft) S-SW 202 0 min 0,0 UV-I 0 W/m 4,3 C 1,0 C 19,3 km/h (3 Bft)
01.05.2020 03:09 5,6 C 5,0 C 91 % 1002,8 hPa 0,0 l/m 14,5 km/h (3 Bft) S-SW 202 0 min 0,0 UV-I 0 W/m 4,2 C 0,1 C 24,1 km/h (4 Bft)
01.05.2020 03:10 5,6 C 4,4 C 91 % 1002,9 hPa 0,0 l/m 19,3 km/h (3 Bft) S-SW 202 0 min 0,0 UV-I 0 W/m 4,2 C -2,1 C 22,5 km/h (4 Bft)
01.05.2020 03:11 5,6 C 5,0 C 91 % 1002,8 hPa 0,0 l/m 14,5 km/h (3 Bft) S-SW 202 0 min 0,0 UV-I 0 W/m 4,2 C 0,1 C 25,7 km/h (4 Bft)
01.05.2020 03:12 5,6 C 5,0 C 91 % 1002,8 hPa 0,0 l/m 12,9 km/h (3 Bft) S-SW 202 0 min 0,0 UV-I 0 W/m 4,2 C 0,9 C 17,7 km/h (3 Bft)
01.05.2020 03:13 5,6 C 5,0 C 91 % 1002,8 hPa 0,0 l/m 12,9 km/h (3 Bft) S-SW 202 0 min 0,0 UV-I 0 W/m 4,2 C 0,9 C 17,7 km/h (3 Bft)
01.05.2020 03:14 5,6 C 5,0 C 91 % 1002,9 hPa 0,0 l/m 12,9 km/h (3 Bft) S-SW 202 0 min 0,0 UV-I 0 W/m 4,2 C 0,9 C 17,7 km/h (3 Bft)
01.05.2020 03:15 5,6 C 5,0 C 91 % 1002,8 hPa 0,0 l/m 14,5 km/h (3 Bft) S 180 0 min 0,0 UV-I 0 W/m 4,2 C 0,1 C 24,1 km/h (4 Bft)
01.05.2020 03:16 5,6 C 5,0 C 91 % 1002,9 hPa 0,0 l/m 16,1 km/h (3 Bft) S-SW 202 0 min 0,0 UV-I 0 W/m 4,2 C -0,7 C 22,5 km/h (4 Bft)
01.05.2020 03:17 5,6 C 5,0 C 91 % 1002,9 hPa 0,0 l/m 16,1 km/h (3 Bft) S-SW 202 0 min 0,0 UV-I 0 W/m 4,2 C -0,7 C 24,1 km/h (4 Bft)
01.05.2020 03:18 5,7 C 5,0 C 91 % 1003,0 hPa 0,0 l/m 12,9 km/h (3 Bft) S-SW 202 0 min 0,0 UV-I 0 W/m 4,3 C 1,0 C 20,9 km/h (4 Bft)
01.05.2020 03:19 5,7 C 5,0 C 91 % 1002,9 hPa 0,0 l/m 9,7 km/h (2 Bft) S-SW 202 0 min 0,0 UV-I 0 W/m 4,3 C 3,1 C 17,7 km/h (3 Bft)
01.05.2020 03:20 5,7 C 5,0 C 91 % 1003,0 hPa 0,0 l/m 14,5 km/h (3 Bft) S-SW 202 0 min 0,0 UV-I 0 W/m 4,3 C 0,2 C 20,9 km/h (4 Bft)
01.05.2020 03:21 5,7 C 5,0 C 91 % 1003,1 hPa 0,0 l/m 9,7 km/h (2 Bft) S-SW 202 0 min 0,0 UV-I 0 W/m 4,3 C 3,1 C 12,9 km/h (3 Bft)
01.05.2020 03:22 5,7 C 5,0 C 91 % 1003,1 hPa 0,0 l/m 12,9 km/h (3 Bft) S-SW 202 0 min 0,0 UV-I 0 W/m 4,3 C 1,0 C 17,7 km/h (3 Bft)
01.05.2020 03:23 5,7 C 5,0 C 91 % 1003,2 hPa 0,0 l/m 12,9 km/h (3 Bft) S-SW 202 0 min 0,0 UV-I 0 W/m 4,3 C 1,0 C 19,3 km/h (3 Bft)
01.05.2020 03:24 5,7 C 5,0 C 91 % 1003,3 hPa 0,0 l/m 12,9 km/h (3 Bft) S-SW 202 0 min 0,0 UV-I 0 W/m 4,3 C 1,0 C 16,1 km/h (3 Bft)
01.05.2020 03:25 5,8 C 5,0 C 91 % 1003,3 hPa 0,0 l/m 17,7 km/h (3 Bft) SW 225 0 min 0,0 UV-I 0 W/m 4,4 C -1,2 C 22,5 km/h (4 Bft)
01.05.2020 03:26 5,8 C 5,0 C 91 % 1003,3 hPa 0,0 l/m 14,5 km/h (3 Bft) S-SW 202 0 min 0,0 UV-I 0 W/m 4,4 C 0,3 C 22,5 km/h (4 Bft)
01.05.2020 03:27 5,8 C 5,0 C 91 % 1003,3 hPa 0,0 l/m 16,1 km/h (3 Bft) S-SW 202 0 min 0,0 UV-I 0 W/m 4,4 C -0,5 C 20,9 km/h (4 Bft)
01.05.2020 03:28 5,8 C 5,0 C 91 % 1003,4 hPa 0,0 l/m 14,5 km/h (3 Bft) S-SW 202 0 min 0,0 UV-I 0 W/m 4,4 C 0,3 C 20,9 km/h (4 Bft)
01.05.2020 03:29 5,8 C 5,0 C 91 % 1003,4 hPa 0,0 l/m 11,3 km/h (2 Bft) S-SW 202 0 min 0,0 UV-I 0 W/m 4,4 C 2,1 C 19,3 km/h (3 Bft)
01.05.2020 03:30 5,8 C 5,0 C 91 % 1003,4 hPa 0,2 l/m 19,3 km/h (3 Bft) S-SW 202 0 min 0,0 UV-I 0 W/m 4,4 C -1,9 C 27,4 km/h (4 Bft)
01.05.2020 03:31 5,8 C 5,0 C 91 % 1003,4 hPa 0,0 l/m 16,1 km/h (3 Bft) S-SW 202 0 min 0,0 UV-I 0 W/m 4,4 C -0,5 C 24,1 km/h (4 Bft)
01.05.2020 03:32 5,8 C 5,0 C 91 % 1003,4 hPa 0,0 l/m 17,7 km/h (3 Bft) SW 225 0 min 0,0 UV-I 0 W/m 4,4 C -1,2 C 22,5 km/h (4 Bft)
01.05.2020 03:33 5,8 C 5,0 C 91 % 1003,4 hPa 0,2 l/m 16,1 km/h (3 Bft) S-SW 202 0 min 0,0 UV-I 0 W/m 4,4 C -0,5 C 24,1 km/h (4 Bft)
01.05.2020 03:34 5,8 C 5,0 C 91 % 1003,5 hPa 0,0 l/m 16,1 km/h (3 Bft) S-SW 202 0 min 0,0 UV-I 0 W/m 4,4 C -0,5 C 20,9 km/h (4 Bft)
01.05.2020 03:35 5,8 C 5,0 C 91 % 1003,4 hPa 0,2 l/m 11,3 km/h (2 Bft) S-SW 202 0 min 0,0 UV-I 0 W/m 4,4 C 2,1 C 16,1 km/h (3 Bft)
01.05.2020 03:36 5,8 C 5,0 C 91 % 1003,5 hPa 0,0 l/m 9,7 km/h (2 Bft) S-SO 157 0 min 0,0 UV-I 0 W/m 4,4 C 3,2 C 12,9 km/h (3 Bft)
01.05.2020 03:37 5,8 C 5,0 C 92 % 1003,5 hPa 0,2 l/m 12,9 km/h (3 Bft) SW 225 0 min 0,0 UV-I 0 W/m 4,6 C 1,2 C 22,5 km/h (4 Bft)
01.05.2020 03:38 5,8 C 5,0 C 91 % 1003,4 hPa 0,0 l/m 14,5 km/h (3 Bft) S-SW 202 0 min 0,0 UV-I 0 W/m 4,4 C 0,3 C 20,9 km/h (4 Bft)
01.05.2020 03:39 5,7 C 5,0 C 91 % 1003,3 hPa 0,2 l/m 8,0 km/h (2 Bft) SW 225 0 min 0,0 UV-I 0 W/m 4,3 C 4,3 C 12,9 km/h (3 Bft)
01.05.2020 03:40 5,7 C 5,0 C 91 % 1003,3 hPa 0,0 l/m 12,9 km/h (3 Bft) S-SW 202 0 min 0,0 UV-I 0 W/m 4,3 C 1,0 C 20,9 km/h (4 Bft)
01.05.2020 03:41 5,7 C 5,0 C 91 % 1003,2 hPa 0,2 l/m 16,1 km/h (3 Bft) S 180 0 min 0,0 UV-I 0 W/m 4,3 C -0,6 C 24,1 km/h (4 Bft)
01.05.2020 03:42 5,7 C 5,0 C 91 % 1003,2 hPa 0,0 l/m 14,5 km/h (3 Bft) S-SW 202 0 min 0,0 UV-I 0 W/m 4,3 C 0,2 C 20,9 km/h (4 Bft)
01.05.2020 03:43 5,6 C 4,4 C 91 % 1003,1 hPa 0,0 l/m 14,5 km/h (3 Bft) S-SW 202 0 min 0,0 UV-I 0 W/m 4,2 C 0,1 C 22,5 km/h (4 Bft)
01.05.2020 03:44 5,5 C 4,4 C 90 % 1002,9 hPa 0,0 l/m 17,7 km/h (3 Bft) S-SW 202 0 min 0,0 UV-I 0 W/m 4,0 C -1,6 C 22,5 km/h (4 Bft)
01.05.2020 03:45 5,4 C 4,4 C 90 % 1003,0 hPa 0,0 l/m 14,5 km/h (3 Bft) S-SW 202 0 min 0,0 UV-I 0 W/m 3,9 C -0,2 C 22,5 km/h (4 Bft)
01.05.2020 03:46 5,4 C 4,4 C 90 % 1003,1 hPa 0,0 l/m 9,7 km/h (2 Bft) SW 225 0 min 0,0 UV-I 0 W/m 3,9 C 2,7 C 16,1 km/h (3 Bft)
01.05.2020 03:47 5,3 C 4,4 C 90 % 1003,0 hPa 0,0 l/m 11,3 km/h (2 Bft) S-SW 202 0 min 0,0 UV-I 0 W/m 3,8 C 1,5 C 16,1 km/h (3 Bft)
01.05.2020 03:48 5,3 C 4,4 C 90 % 1003,0 hPa 0,0 l/m 8,0 km/h (2 Bft) S-SW 202 0 min 0,0 UV-I 0 W/m 3,8 C 3,9 C 11,3 km/h (2 Bft)
01.05.2020 03:49 5,3 C 4,4 C 90 % 1003,1 hPa 0,0 l/m 12,9 km/h (3 Bft) SW 225 0 min 0,0 UV-I 0 W/m 3,8 C 0,6 C 19,3 km/h (3 Bft)
01.05.2020 03:50 5,3 C 4,4 C 90 % 1003,0 hPa 0,0 l/m 11,3 km/h (2 Bft) S-SW 202 0 min 0,0 UV-I 0 W/m 3,8 C 1,5 C 14,5 km/h (3 Bft)
01.05.2020 03:51 5,3 C 4,4 C 90 % 1003,0 hPa 0,0 l/m 12,9 km/h (3 Bft) S-SW 202 0 min 0,0 UV-I 0 W/m 3,8 C 0,6 C 19,3 km/h (3 Bft)
01.05.2020 03:52 5,3 C 4,4 C 90 % 1003,1 hPa 0,2 l/m 11,3 km/h (2 Bft) SW 225 0 min 0,0 UV-I 0 W/m 3,8 C 1,5 C 16,1 km/h (3 Bft)
01.05.2020 03:53 5,2 C 4,4 C 90 % 1003,1 hPa 0,0 l/m 12,9 km/h (3 Bft) S-SW 202 0 min 0,0 UV-I 0 W/m 3,7 C 0,5 C 19,3 km/h (3 Bft)
01.05.2020 03:54 5,2 C 4,4 C 90 % 1003,1 hPa 0,0 l/m 11,3 km/h (2 Bft) S 180 0 min 0,0 UV-I 0 W/m 3,7 C 1,4 C 20,9 km/h (4 Bft)
01.05.2020 03:55 5,2 C 4,4 C 91 % 1003,2 hPa 0,2 l/m 9,7 km/h (2 Bft) S-SW 202 0 min 0,0 UV-I 0 W/m 3,9 C 2,5 C 12,9 km/h (3 Bft)
01.05.2020 03:56 5,2 C 4,4 C 91 % 1003,0 hPa 0,0 l/m 11,3 km/h (2 Bft) S-SW 202 0 min 0,0 UV-I 0 W/m 3,9 C 1,4 C 17,7 km/h (3 Bft)
01.05.2020 03:57 5,2 C 4,4 C 90 % 1003,1 hPa 0,2 l/m 12,9 km/h (3 Bft) S-SW 202 0 min 0,0 UV-I 0 W/m 3,7 C 0,5 C 17,7 km/h (3 Bft)
01.05.2020 03:58 5,1 C 4,4 C 91 % 1003,1 hPa 0,0 l/m 11,3 km/h (2 Bft) S-SW 202 0 min 0,0 UV-I 0 W/m 3,8 C 1,3 C 16,1 km/h (3 Bft)
01.05.2020 03:59 5,1 C 4,4 C 91 % 1003,1 hPa 0,0 l/m 11,3 km/h (2 Bft) S-SW 202 0 min 0,0 UV-I 0 W/m 3,8 C 1,3 C 16,1 km/h (3 Bft)
01.05.2020 04:00 5,0 C 4,4 C 90 % 1003,0 hPa 0,2 l/m 11,3 km/h (2 Bft) S-SW 202 0 min 0,0 UV-I 0 W/m 3,5 C 1,2 C 17,7 km/h (3 Bft)
01.05.2020 04:01 5,0 C 4,4 C 91 % 1002,9 hPa 0,0 l/m 12,9 km/h (3 Bft) SW 225 0 min 0,0 UV-I 0 W/m 3,7 C 0,2 C 16,1 km/h (3 Bft)
01.05.2020 04:02 5,0 C 4,4 C 91 % 1003,0 hPa 0,0 l/m 11,3 km/h (2 Bft) SW 225 0 min 0,0 UV-I 0 W/m 3,7 C 1,2 C 14,5 km/h (3 Bft)
01.05.2020 04:03 4,9 C 4,4 C 91 % 1003,0 hPa 0,0 l/m 8,0 km/h (2 Bft) SW 225 0 min 0,0 UV-I 0 W/m 3,6 C 3,5 C 9,7 km/h (2 Bft)
01.05.2020 04:04 4,9 C 4,4 C 91 % 1002,9 hPa 0,0 l/m 6,4 km/h (2 Bft) W-SW 247 0 min 0,0 UV-I 0 W/m 3,6 C 4,9 C 8,0 km/h (2 Bft)
01.05.2020 04:05 4,9 C 4,4 C 91 % 1002,9 hPa 0,0 l/m 8,0 km/h (2 Bft) W-SW 247 0 min 0,0 UV-I 0 W/m 3,6 C 3,5 C 12,9 km/h (3 Bft)
01.05.2020 04:06 4,9 C 4,4 C 91 % 1002,8 hPa 0,0 l/m 6,4 km/h (2 Bft) SW 225 0 min 0,0 UV-I 0 W/m 3,6 C 4,9 C 11,3 km/h (2 Bft)
01.05.2020 04:07 4,9 C 4,4 C 91 % 1002,7 hPa 0,0 l/m 6,4 km/h (2 Bft) SW 225 0 min 0,0 UV-I 0 W/m 3,6 C 4,9 C 11,3 km/h (2 Bft)
01.05.2020 04:08 4,8 C 4,4 C 91 % 1002,6 hPa 0,2 l/m 4,8 km/h (1 Bft) W-SW 247 0 min 0,0 UV-I 0 W/m 3,5 C 4,8 C 9,7 km/h (2 Bft)
01.05.2020 04:09 4,8 C 4,4 C 91 % 1002,6 hPa 0,0 l/m 8,0 km/h (2 Bft) W-SW 247 0 min 0,0 UV-I 0 W/m 3,5 C 3,4 C 11,3 km/h (2 Bft)
01.05.2020 04:10 4,8 C 4,4 C 91 % 1002,6 hPa 0,0 l/m 9,7 km/h (2 Bft) W-SW 247 0 min 0,0 UV-I 0 W/m 3,5 C 2,1 C 12,9 km/h (3 Bft)
01.05.2020 04:11 4,8 C 3,9 C 91 % 1002,5 hPa 0,0 l/m 6,4 km/h (2 Bft) W-SW 247 0 min 0,0 UV-I 0 W/m 3,5 C 4,8 C 9,7 km/h (2 Bft)
01.05.2020 04:12 4,8 C 3,9 C 91 % 1002,5 hPa 0,0 l/m 4,8 km/h (1 Bft) W-SW 247 0 min 0,0 UV-I 0 W/m 3,5 C 4,8 C 6,4 km/h (2 Bft)
01.05.2020 04:13 4,8 C 3,9 C 91 % 1002,6 hPa 0,0 l/m 8,0 km/h (2 Bft) W-SW 247 0 min 0,0 UV-I 0 W/m 3,5 C 3,4 C 11,3 km/h (2 Bft)
01.05.2020 04:14 4,8 C 3,9 C 91 % 1002,6 hPa 0,2 l/m 6,4 km/h (2 Bft) W-SW 247 0 min 0,0 UV-I 0 W/m 3,5 C 4,8 C 12,9 km/h (3 Bft)
01.05.2020 04:15 4,8 C 3,9 C 91 % 1002,7 hPa 0,0 l/m 9,7 km/h (2 Bft) W-SW 247 0 min 0,0 UV-I 0 W/m 3,5 C 2,1 C 16,1 km/h (3 Bft)
01.05.2020 04:16 4,8 C 3,9 C 92 % 1002,6 hPa 0,0 l/m 12,9 km/h (3 Bft) W-SW 247 0 min 0,0 UV-I 0 W/m 3,6 C -0,0 C 16,1 km/h (3 Bft)
01.05.2020 04:17 4,7 C 3,9 C 92 % 1002,7 hPa 0,2 l/m 9,7 km/h (2 Bft) W-SW 247 0 min 0,0 UV-I 0 W/m 3,5 C 2,0 C 12,9 km/h (3 Bft)
01.05.2020 04:18 4,7 C 3,9 C 92 % 1002,7 hPa 0,0 l/m 6,4 km/h (2 Bft) SW 225 0 min 0,0 UV-I 0 W/m 3,5 C 4,7 C 9,7 km/h (2 Bft)
01.05.2020 04:19 4,7 C 3,9 C 91 % 1002,9 hPa 0,2 l/m 9,7 km/h (2 Bft) W 270 0 min 0,0 UV-I 0 W/m 3,4 C 2,0 C 12,9 km/h (3 Bft)
01.05.2020 04:20 4,7 C 3,9 C 91 % 1003,1 hPa 0,2 l/m 8,0 km/h (2 Bft) W-SW 247 0 min 0,0 UV-I 0 W/m 3,4 C 3,3 C 16,1 km/h (3 Bft)
01.05.2020 04:21 4,7 C 3,9 C 91 % 1003,2 hPa 0,2 l/m 9,7 km/h (2 Bft) W-SW 247 0 min 0,0 UV-I 0 W/m 3,4 C 2,0 C 14,5 km/h (3 Bft)
01.05.2020 04:22 4,7 C 3,9 C 92 % 1003,4 hPa 0,2 l/m 8,0 km/h (2 Bft) SW 225 0 min 0,0 UV-I 0 W/m 3,5 C 3,3 C 14,5 km/h (3 Bft)
01.05.2020 04:23 4,7 C 3,9 C 92 % 1003,6 hPa 0,2 l/m 14,5 km/h (3 Bft) SW 225 0 min 0,0 UV-I 0 W/m 3,5 C -1,0 C 22,5 km/h (4 Bft)
01.05.2020 04:24 4,6 C 3,9 C 91 % 1003,7 hPa 0,4 l/m 20,9 km/h (4 Bft) W-SW 247 0 min 0,0 UV-I 0 W/m 3,3 C -4,0 C 29,0 km/h (5 Bft)
01.05.2020 04:25 4,5 C 3,9 C 91 % 1003,7 hPa 0,2 l/m 14,5 km/h (3 Bft) W-SW 247 0 min 0,0 UV-I 0 W/m 3,2 C -1,3 C 27,4 km/h (4 Bft)
01.05.2020 04:26 4,4 C 3,9 C 91 % 1003,9 hPa 0,0 l/m 11,3 km/h (2 Bft) SW 225 0 min 0,0 UV-I 0 W/m 3,1 C 0,5 C 14,5 km/h (3 Bft)
01.05.2020 04:27 4,4 C 3,9 C 92 % 1003,9 hPa 0,2 l/m 17,7 km/h (3 Bft) SW 225 0 min 0,0 UV-I 0 W/m 3,2 C -3,0 C 32,2 km/h (5 Bft)
01.05.2020 04:28 4,4 C 3,9 C 92 % 1003,9 hPa 0,2 l/m 24,1 km/h (4 Bft) W-SW 247 0 min 0,0 UV-I 0 W/m 3,2 C -5,5 C 32,2 km/h (5 Bft)
01.05.2020 04:29 4,3 C 3,3 C 91 % 1003,9 hPa 0,2 l/m 24,1 km/h (4 Bft) SW 225 0 min 0,0 UV-I 0 W/m 3,0 C -5,6 C 32,2 km/h (5 Bft)
01.05.2020 04:30 4,2 C 3,3 C 91 % 1004,0 hPa 0,2 l/m 20,9 km/h (4 Bft) SW 225 0 min 0,0 UV-I 0 W/m 2,9 C -4,6 C 30,6 km/h (5 Bft)
01.05.2020 04:31 4,2 C 3,3 C 91 % 1004,1 hPa 0,2 l/m 12,9 km/h (3 Bft) W-SW 247 0 min 0,0 UV-I 0 W/m 2,9 C -0,7 C 19,3 km/h (3 Bft)
01.05.2020 04:32 4,1 C 3,3 C 91 % 1004,1 hPa 0,2 l/m 16,1 km/h (3 Bft) SW 225 0 min 0,0 UV-I 0 W/m 2,8 C -2,6 C 20,9 km/h (4 Bft)
01.05.2020 04:33 4,0 C 3,3 C 91 % 1004,1 hPa 0,0 l/m 14,5 km/h (3 Bft) W-SW 247 0 min 0,0 UV-I 0 W/m 2,7 C -1,9 C 19,3 km/h (3 Bft)
01.05.2020 04:34 3,9 C 3,3 C 91 % 1004,2 hPa 0,2 l/m 14,5 km/h (3 Bft) W-SW 247 0 min 0,0 UV-I 0 W/m 2,6 C -2,0 C 24,1 km/h (4 Bft)
01.05.2020 04:35 3,8 C 2,8 C 91 % 1004,1 hPa 0,0 l/m 12,9 km/h (3 Bft) SW 225 0 min 0,0 UV-I 0 W/m 2,5 C -1,2 C 24,1 km/h (4 Bft)
01.05.2020 04:36 3,7 C 2,8 C 90 % 1004,1 hPa 0,2 l/m 16,1 km/h (3 Bft) SW 225 0 min 0,0 UV-I 0 W/m 2,2 C -3,1 C 24,1 km/h (4 Bft)
01.05.2020 04:37 3,6 C 2,8 C 90 % 1004,1 hPa 0,0 l/m 16,1 km/h (3 Bft) W-SW 247 0 min 0,0 UV-I 0 W/m 2,1 C -3,2 C 22,5 km/h (4 Bft)
01.05.2020 04:38 3,5 C 2,8 C 90 % 1004,0 hPa 0,2 l/m 8,0 km/h (2 Bft) SW 225 0 min 0,0 UV-I 0 W/m 2,0 C 2,0 C 14,5 km/h (3 Bft)
01.05.2020 04:39 3,4 C 2,8 C 90 % 1003,8 hPa 0,0 l/m 9,7 km/h (2 Bft) W 270 0 min 0,0 UV-I 0 W/m 1,9 C 0,5 C 14,5 km/h (3 Bft)
01.05.2020 04:40 3,4 C 2,8 C 90 % 1003,8 hPa 0,2 l/m 9,7 km/h (2 Bft) W-SW 247 0 min 0,0 UV-I 0 W/m 1,9 C 0,5 C 16,1 km/h (3 Bft)
01.05.2020 04:41 3,3 C 2,2 C 91 % 1003,7 hPa 0,2 l/m 8,0 km/h (2 Bft) SW 225 0 min 0,0 UV-I 0 W/m 2,0 C 1,8 C 14,5 km/h (3 Bft)
01.05.2020 04:42 3,2 C 2,2 C 90 % 1003,6 hPa 0,0 l/m 9,7 km/h (2 Bft) W-SW 247 0 min 0,0 UV-I 0 W/m 1,7 C 0,3 C 12,9 km/h (3 Bft)
01.05.2020 04:43 3,2 C 2,2 C 91 % 1003,6 hPa 0,0 l/m 4,8 km/h (1 Bft) W-SW 247 0 min 0,0 UV-I 0 W/m 1,9 C 3,2 C 9,7 km/h (2 Bft)
01.05.2020 04:44 3,1 C 2,2 C 91 % 1003,6 hPa 0,2 l/m 4,8 km/h (1 Bft) W-SW 247 0 min 0,0 UV-I 0 W/m 1,8 C 3,1 C 6,4 km/h (2 Bft)
01.05.2020 04:45 3,1 C 2,2 C 91 % 1003,5 hPa 0,0 l/m 6,4 km/h (2 Bft) W 270 0 min 0,0 UV-I 0 W/m 1,8 C 3,1 C 12,9 km/h (3 Bft)
01.05.2020 04:46 3,0 C 2,2 C 91 % 1003,4 hPa 0,0 l/m 6,4 km/h (2 Bft) W-SW 247 0 min 0,0 UV-I 0 W/m 1,7 C 3,0 C 11,3 km/h (2 Bft)
01.05.2020 04:47 3,0 C 2,2 C 91 % 1003,3 hPa 0,0 l/m 4,8 km/h (1 Bft) SW 225 0 min 0,0 UV-I 0 W/m 1,7 C 3,0 C 6,4 km/h (2 Bft)
01.05.2020 04:48 3,0 C 2,2 C 91 % 1003,4 hPa 0,0 l/m 3,2 km/h (1 Bft) SW 225 0 min 0,0 UV-I 0 W/m 1,7 C 3,0 C 4,8 km/h (1 Bft)
01.05.2020 04:49 3,0 C 2,2 C 91 % 1003,3 hPa 0,0 l/m 6,4 km/h (2 Bft) S-SW 202 0 min 0,0 UV-I 0 W/m 1,7 C 3,0 C 8,0 km/h (2 Bft)
01.05.2020 04:50 2,9 C 2,2 C 91 % 1003,3 hPa 0,0 l/m 8,0 km/h (2 Bft) S-SW 202 0 min 0,0 UV-I 0 W/m 1,6 C 1,4 C 9,7 km/h (2 Bft)
01.05.2020 04:51 2,9 C 2,2 C 91 % 1003,4 hPa 0,0 l/m 6,4 km/h (2 Bft) SW 225 0 min 0,0 UV-I 0 W/m 1,6 C 2,9 C 9,7 km/h (2 Bft)
01.05.2020 04:52 2,9 C 2,2 C 91 % 1003,3 hPa 0,0 l/m 3,2 km/h (1 Bft) SW 225 0 min 0,0 UV-I 0 W/m 1,6 C 2,9 C 4,8 km/h (1 Bft)
01.05.2020 04:53 2,8 C 2,2 C 91 % 1003,3 hPa 0,0 l/m 4,8 km/h (1 Bft) SW 225 0 min 0,0 UV-I 0 W/m 1,5 C 2,8 C 8,0 km/h (2 Bft)
01.05.2020 04:54 2,8 C 2,2 C 91 % 1003,3 hPa 0,0 l/m 4,8 km/h (1 Bft) S-SW 202 0 min 0,0 UV-I 0 W/m 1,5 C 2,8 C 6,4 km/h (2 Bft)
01.05.2020 04:55 2,8 C 2,2 C 91 % 1003,3 hPa 0,0 l/m 4,8 km/h (1 Bft) S-SW 202 0 min 0,0 UV-I 0 W/m 1,5 C 2,8 C 8,0 km/h (2 Bft)
01.05.2020 04:56 2,8 C 2,2 C 91 % 1003,4 hPa 0,0 l/m 3,2 km/h (1 Bft) S-SW 202 0 min 0,0 UV-I 0 W/m 1,5 C 2,8 C 4,8 km/h (1 Bft)
01.05.2020 04:57 2,8 C 2,2 C 92 % 1003,4 hPa 0,0 l/m 4,8 km/h (1 Bft) S-SW 202 0 min 0,0 UV-I 0 W/m 1,6 C 2,8 C 6,4 km/h (2 Bft)
01.05.2020 04:58 2,8 C 2,2 C 92 % 1003,5 hPa 0,0 l/m 6,4 km/h (2 Bft) S-SW 202 0 min 0,0 UV-I 0 W/m 1,6 C 2,8 C 6,4 km/h (2 Bft)
01.05.2020 04:59 2,8 C 2,2 C 92 % 1003,4 hPa 0,0 l/m 8,0 km/h (2 Bft) SW 225 0 min 0,0 UV-I 0 W/m 1,6 C 1,3 C 9,7 km/h (2 Bft)
01.05.2020 05:00 2,8 C 2,2 C 92 % 1003,5 hPa 0,0 l/m 8,0 km/h (2 Bft) SW 225 0 min 0,0 UV-I 0 W/m 1,6 C 1,3 C 11,3 km/h (2 Bft)
01.05.2020 05:01 2,8 C 2,2 C 92 % 1003,5 hPa 0,0 l/m 8,0 km/h (2 Bft) S-SW 202 0 min 0,0 UV-I 0 W/m 1,6 C 1,3 C 11,3 km/h (2 Bft)
01.05.2020 05:02 2,8 C 2,2 C 92 % 1003,5 hPa 0,0 l/m 8,0 km/h (2 Bft) SW 225 0 min 0,0 UV-I 0 W/m 1,6 C 1,3 C 9,7 km/h (2 Bft)
01.05.2020 05:03 2,8 C 2,2 C 92 % 1003,5 hPa 0,0 l/m 8,0 km/h (2 Bft) SW 225 0 min 0,0 UV-I 0 W/m 1,6 C 1,3 C 11,3 km/h (2 Bft)
01.05.2020 05:04 2,8 C 2,2 C 92 % 1003,4 hPa 0,0 l/m 6,4 km/h (2 Bft) SW 225 0 min 0,0 UV-I 0 W/m 1,6 C 2,8 C 9,7 km/h (2 Bft)
01.05.2020 05:05 2,8 C 2,2 C 92 % 1003,5 hPa 0,0 l/m 4,8 km/h (1 Bft) SW 225 0 min 0,0 UV-I 0 W/m 1,6 C 2,8 C 8,0 km/h (2 Bft)
01.05.2020 05:06 2,8 C 2,2 C 92 % 1003,6 hPa 0,0 l/m 6,4 km/h (2 Bft) SW 225 0 min 0,0 UV-I 0 W/m 1,6 C 2,8 C 9,7 km/h (2 Bft)
01.05.2020 05:07 2,8 C 2,2 C 92 % 1003,5 hPa 0,0 l/m 6,4 km/h (2 Bft) SW 225 0 min 0,0 UV-I 0 W/m 1,6 C 2,8 C 12,9 km/h (3 Bft)
01.05.2020 05:08 2,8 C 2,2 C 92 % 1003,6 hPa 0,0 l/m 9,7 km/h (2 Bft) SW 225 0 min 0,0 UV-I 0 W/m 1,6 C -0,1 C 11,3 km/h (2 Bft)
01.05.2020 05:09 2,8 C 2,2 C 92 % 1003,5 hPa 0,0 l/m 6,4 km/h (2 Bft) SW 225 0 min 0,0 UV-I 0 W/m 1,6 C 2,8 C 9,7 km/h (2 Bft)
01.05.2020 05:10 2,9 C 2,2 C 92 % 1003,7 hPa 0,0 l/m 6,4 km/h (2 Bft) SW 225 0 min 0,0 UV-I 0 W/m 1,7 C 2,9 C 8,0 km/h (2 Bft)
01.05.2020 05:11 2,8 C 2,2 C 92 % 1003,6 hPa 0,0 l/m 6,4 km/h (2 Bft) SW 225 0 min 0,0 UV-I 0 W/m 1,6 C 2,8 C 8,0 km/h (2 Bft)
01.05.2020 05:12 2,8 C 2,2 C 92 % 1003,7 hPa 0,0 l/m 8,0 km/h (2 Bft) S-SW 202 0 min 0,0 UV-I 0 W/m 1,6 C 1,3 C 11,3 km/h (2 Bft)
01.05.2020 05:13 2,8 C 2,2 C 92 % 1003,6 hPa 0,0 l/m 8,0 km/h (2 Bft) S-SW 202 0 min 0,0 UV-I 0 W/m 1,6 C 1,3 C 11,3 km/h (2 Bft)
01.05.2020 05:14 2,9 C 2,2 C 92 % 1003,6 hPa 0,0 l/m 6,4 km/h (2 Bft) S-SW 202 0 min 0,0 UV-I 0 W/m 1,7 C 2,9 C 8,0 km/h (2 Bft)
01.05.2020 05:15 2,9 C 2,2 C 92 % 1003,6 hPa 0,0 l/m 6,4 km/h (2 Bft) SW 225 0 min 0,0 UV-I 0 W/m 1,7 C 2,9 C 8,0 km/h (2 Bft)
01.05.2020 05:16 2,9 C 2,2 C 93 % 1003,7 hPa 0,0 l/m 8,0 km/h (2 Bft) S-SW 202 0 min 0,0 UV-I 0 W/m 1,9 C 1,4 C 11,3 km/h (2 Bft)
01.05.2020 05:17 2,9 C 2,8 C 93 % 1003,7 hPa 0,0 l/m 8,0 km/h (2 Bft) S-SW 202 0 min 0,0 UV-I 0 W/m 1,9 C 1,4 C 9,7 km/h (2 Bft)
01.05.2020 05:18 2,9 C 2,8 C 93 % 1003,7 hPa 0,0 l/m 6,4 km/h (2 Bft) S-SW 202 0 min 0,0 UV-I 0 W/m 1,9 C 2,9 C 9,7 km/h (2 Bft)
01.05.2020 05:19 2,9 C 2,8 C 93 % 1003,6 hPa 0,0 l/m 8,0 km/h (2 Bft) S-SW 202 0 min 0,0 UV-I 0 W/m 1,9 C 1,4 C 9,7 km/h (2 Bft)
01.05.2020 05:20 2,9 C 2,8 C 93 % 1003,7 hPa 0,0 l/m 9,7 km/h (2 Bft) S-SW 202 0 min 0,0 UV-I 0 W/m 1,9 C -0,0 C 14,5 km/h (3 Bft)
01.05.2020 05:21 2,9 C 2,8 C 93 % 1003,7 hPa 0,0 l/m 8,0 km/h (2 Bft) S-SW 202 0 min 0,0 UV-I 0 W/m 1,9 C 1,4 C 12,9 km/h (3 Bft)
01.05.2020 05:22 2,9 C 2,8 C 93 % 1003,6 hPa 0,0 l/m 6,4 km/h (2 Bft) S-SW 202 0 min 0,0 UV-I 0 W/m 1,9 C 2,9 C 9,7 km/h (2 Bft)
01.05.2020 05:23 2,9 C 2,8 C 93 % 1003,6 hPa 0,0 l/m 8,0 km/h (2 Bft) S-SW 202 0 min 0,0 UV-I 0 W/m 1,9 C 1,4 C 12,9 km/h (3 Bft)
01.05.2020 05:24 2,9 C 2,8 C 93 % 1003,5 hPa 0,0 l/m 8,0 km/h (2 Bft) SW 225 0 min 0,0 UV-I 0 W/m 1,9 C 1,4 C 14,5 km/h (3 Bft)
01.05.2020 05:25 2,9 C 2,8 C 93 % 1003,6 hPa 0,0 l/m 9,7 km/h (2 Bft) SW 225 0 min 0,0 UV-I 0 W/m 1,9 C -0,0 C 12,9 km/h (3 Bft)
01.05.2020 05:26 2,9 C 2,8 C 93 % 1003,5 hPa 0,0 l/m 6,4 km/h (2 Bft) S-SW 202 0 min 0,0 UV-I 0 W/m 1,9 C 2,9 C 9,7 km/h (2 Bft)
01.05.2020 05:27 2,9 C 2,8 C 93 % 1003,5 hPa 0,0 l/m 11,3 km/h (2 Bft) S-SW 202 0 min 0,0 UV-I 0 W/m 1,9 C -1,2 C 14,5 km/h (3 Bft)
01.05.2020 05:28 2,9 C 2,8 C 93 % 1003,5 hPa 0,0 l/m 8,0 km/h (2 Bft) S-SW 202 0 min 0,0 UV-I 0 W/m 1,9 C 1,4 C 12,9 km/h (3 Bft)
01.05.2020 05:29 2,9 C 2,8 C 92 % 1003,4 hPa 0,0 l/m 6,4 km/h (2 Bft) S-SW 202 0 min 0,0 UV-I 0 W/m 1,7 C 2,9 C 9,7 km/h (2 Bft)
01.05.2020 05:30 2,9 C 2,8 C 93 % 1003,5 hPa 0,0 l/m 6,4 km/h (2 Bft) S-SW 202 0 min 0,0 UV-I 0 W/m 1,9 C 2,9 C 11,3 km/h (2 Bft)
01.05.2020 05:31 2,9 C 2,8 C 93 % 1003,5 hPa 0,0 l/m 8,0 km/h (2 Bft) S 180 0 min 0,0 UV-I 0 W/m 1,9 C 1,4 C 11,3 km/h (2 Bft)
01.05.2020 05:32 2,9 C 2,8 C 93 % 1003,5 hPa 0,0 l/m 6,4 km/h (2 Bft) S-SW 202 0 min 0,0 UV-I 0 W/m 1,9 C 2,9 C 9,7 km/h (2 Bft)
01.05.2020 05:33 2,9 C 2,8 C 93 % 1003,5 hPa 0,0 l/m 8,0 km/h (2 Bft) S-SW 202 0 min 0,0 UV-I 0 W/m 1,9 C 1,4 C 9,7 km/h (2 Bft)
01.05.2020 05:34 2,9 C 2,8 C 93 % 1003,5 hPa 0,0 l/m 6,4 km/h (2 Bft) SW 225 0 min 0,0 UV-I 0 W/m 1,9 C 2,9 C 8,0 km/h (2 Bft)
01.05.2020 05:35 2,9 C 2,8 C 93 % 1003,5 hPa 0,0 l/m 6,4 km/h (2 Bft) S-SW 202 0 min 0,0 UV-I 0 W/m 1,9 C 2,9 C 11,3 km/h (2 Bft)
01.05.2020 05:36 2,9 C 2,8 C 93 % 1003,5 hPa 0,0 l/m 8,0 km/h (2 Bft) S-SW 202 0 min 0,0 UV-I 0 W/m 1,9 C 1,4 C 11,3 km/h (2 Bft)
01.05.2020 05:37 2,9 C 2,8 C 93 % 1003,4 hPa 0,0 l/m 9,7 km/h (2 Bft) S-SW 202 0 min 0,0 UV-I 0 W/m 1,9 C -0,0 C 12,9 km/h (3 Bft)
01.05.2020 05:38 2,9 C 2,8 C 93 % 1003,3 hPa 0,0 l/m 6,4 km/h (2 Bft) S-SW 202 0 min 0,0 UV-I 0 W/m 1,9 C 2,9 C 9,7 km/h (2 Bft)
01.05.2020 05:39 2,9 C 2,8 C 93 % 1003,4 hPa 0,0 l/m 8,0 km/h (2 Bft) S 180 0 min 0,0 UV-I 0 W/m 1,9 C 1,4 C 11,3 km/h (2 Bft)
01.05.2020 05:40 2,9 C 2,8 C 93 % 1003,5 hPa 0,0 l/m 6,4 km/h (2 Bft) S-SW 202 0 min 0,0 UV-I 0 W/m 1,9 C 2,9 C 8,0 km/h (2 Bft)
01.05.2020 05:41 2,9 C 2,8 C 93 % 1003,4 hPa 0,0 l/m 6,4 km/h (2 Bft) S-SW 202 0 min 0,0 UV-I 0 W/m 1,9 C 2,9 C 8,0 km/h (2 Bft)
01.05.2020 05:42 2,9 C 2,8 C 93 % 1003,4 hPa 0,0 l/m 4,8 km/h (1 Bft) SW 225 0 min 0,0 UV-I 0 W/m 1,9 C 2,9 C 8,0 km/h (2 Bft)
01.05.2020 05:43 2,9 C 2,2 C 93 % 1003,4 hPa 0,0 l/m 6,4 km/h (2 Bft) S-SW 202 0 min 0,0 UV-I 0 W/m 1,9 C 2,9 C 8,0 km/h (2 Bft)
01.05.2020 05:44 2,9 C 2,2 C 93 % 1003,4 hPa 0,0 l/m 4,8 km/h (1 Bft) S-SW 202 0 min 0,0 UV-I 0 W/m 1,9 C 2,9 C 8,0 km/h (2 Bft)
01.05.2020 05:45 2,9 C 2,2 C 93 % 1003,3 hPa 0,0 l/m 8,0 km/h (2 Bft) S-SW 202 0 min 0,0 UV-I 0 W/m 1,9 C 1,4 C 12,9 km/h (3 Bft)
01.05.2020 05:46 2,9 C 2,2 C 93 % 1003,4 hPa 0,0 l/m 9,7 km/h (2 Bft) S-SW 202 0 min 0,0 UV-I 0 W/m 1,9 C -0,0 C 12,9 km/h (3 Bft)
01.05.2020 05:47 2,9 C 2,2 C 93 % 1003,4 hPa 0,0 l/m 8,0 km/h (2 Bft) S-SW 202 0 min 0,0 UV-I 0 W/m 1,9 C 1,4 C 11,3 km/h (2 Bft)
01.05.2020 05:48 2,8 C 2,2 C 93 % 1003,4 hPa 0,0 l/m 4,8 km/h (1 Bft) S-SW 202 0 min 0,0 UV-I 0 W/m 1,8 C 2,8 C 8,0 km/h (2 Bft)
01.05.2020 05:49 2,9 C 2,2 C 93 % 1003,4 hPa 0,0 l/m 8,0 km/h (2 Bft) S-SW 202 0 min 0,0 UV-I 0 W/m 1,9 C 1,4 C 9,7 km/h (2 Bft)
01.05.2020 05:50 2,9 C 2,2 C 93 % 1003,3 hPa 0,0 l/m 4,8 km/h (1 Bft) S-SW 202 0 min 0,0 UV-I 0 W/m 1,9 C 2,9 C 8,0 km/h (2 Bft)
01.05.2020 05:51 2,9 C 2,2 C 93 % 1003,3 hPa 0,0 l/m 6,4 km/h (2 Bft) S-SW 202 0 min 0,0 UV-I 0 W/m 1,9 C 2,9 C 9,7 km/h (2 Bft)
01.05.2020 05:52 2,9 C 2,2 C 93 % 1003,3 hPa 0,0 l/m 8,0 km/h (2 Bft) S-SW 202 0 min 0,0 UV-I 0 W/m 1,9 C 1,4 C 9,7 km/h (2 Bft)
01.05.2020 05:53 2,9 C 2,2 C 93 % 1003,3 hPa 0,0 l/m 9,7 km/h (2 Bft) S-SW 202 0 min 0,0 UV-I 0 W/m 1,9 C -0,0 C 11,3 km/h (2 Bft)
01.05.2020 05:54 2,9 C 2,2 C 93 % 1003,2 hPa 0,0 l/m 8,0 km/h (2 Bft) S-SW 202 0 min 0,0 UV-I 0 W/m 1,9 C 1,4 C 9,7 km/h (2 Bft)
01.05.2020 05:55 2,9 C 2,2 C 93 % 1003,3 hPa 0,0 l/m 8,0 km/h (2 Bft) S-SW 202 0 min 0,0 UV-I 0 W/m 1,9 C 1,4 C 12,9 km/h (3 Bft)
01.05.2020 05:56 2,9 C 2,2 C 93 % 1003,3 hPa 0,0 l/m 8,0 km/h (2 Bft) S-SW 202 0 min 0,0 UV-I 0 W/m 1,9 C 1,4 C 12,9 km/h (3 Bft)
01.05.2020 05:57 2,9 C 2,8 C 93 % 1003,3 hPa 0,0 l/m 8,0 km/h (2 Bft) S-SW 202 0 min 0,0 UV-I 0 W/m 1,9 C 1,4 C 9,7 km/h (2 Bft)
01.05.2020 05:58 2,9 C 2,8 C 93 % 1003,4 hPa 0,0 l/m 9,7 km/h (2 Bft) SW 225 0 min 0,0 UV-I 0 W/m 1,9 C -0,0 C 11,3 km/h (2 Bft)
01.05.2020 05:59 3,0 C 2,8 C 93 % 1003,4 hPa 0,0 l/m 9,7 km/h (2 Bft) S-SW 202 0 min 0,0 UV-I 0 W/m 2,0 C 0,1 C 12,9 km/h (3 Bft)
01.05.2020 06:00 3,1 C 2,8 C 93 % 1003,3 hPa 0,0 l/m 11,3 km/h (2 Bft) S-SW 202 0 min 0,0 UV-I 0 W/m 2,1 C -1,0 C 16,1 km/h (3 Bft)
01.05.2020 06:01 3,1 C 2,8 C 93 % 1003,3 hPa 0,0 l/m 11,3 km/h (2 Bft) SW 225 0 min 0,0 UV-I 0 W/m 2,1 C -1,0 C 14,5 km/h (3 Bft)
01.05.2020 06:02 3,1 C 2,8 C 93 % 1003,4 hPa 0,0 l/m 9,7 km/h (2 Bft) S-SW 202 0 min 0,0 UV-I 0 W/m 2,1 C 0,2 C 14,5 km/h (3 Bft)
01.05.2020 06:03 3,2 C 2,8 C 93 % 1003,3 hPa 0,0 l/m 8,0 km/h (2 Bft) S-SW 202 0 min 0,0 UV-I 0 W/m 2,2 C 1,7 C 9,7 km/h (2 Bft)
01.05.2020 06:04 3,2 C 2,8 C 93 % 1003,3 hPa 0,0 l/m 9,7 km/h (2 Bft) S-SW 202 0 min 0,0 UV-I 0 W/m 2,2 C 0,3 C 12,9 km/h (3 Bft)
01.05.2020 06:05 3,2 C 2,8 C 93 % 1003,2 hPa 0,0 l/m 12,9 km/h (3 Bft) S-SW 202 0 min 0,0 UV-I 0 W/m 2,2 C -1,9 C 16,1 km/h (3 Bft)
01.05.2020 06:06 3,3 C 2,8 C 93 % 1003,2 hPa 0,0 l/m 11,3 km/h (2 Bft) S-SW 202 0 min 0,0 UV-I 0 W/m 2,3 C -0,7 C 17,7 km/h (3 Bft)
01.05.2020 06:07 3,3 C 2,8 C 93 % 1003,2 hPa 0,0 l/m 11,3 km/h (2 Bft) SW 225 0 min 0,0 UV-I 0 W/m 2,3 C -0,7 C 12,9 km/h (3 Bft)
01.05.2020 06:08 3,3 C 2,8 C 93 % 1003,2 hPa 0,0 l/m 8,0 km/h (2 Bft) S-SW 202 0 min 0,0 UV-I 0 W/m 2,3 C 1,8 C 16,1 km/h (3 Bft)
01.05.2020 06:09 3,4 C 3,3 C 93 % 1003,2 hPa 0,0 l/m 14,5 km/h (3 Bft) S-SW 202 0 min 0,0 UV-I 0 W/m 2,4 C -2,6 C 19,3 km/h (3 Bft)
01.05.2020 06:10 3,5 C 3,3 C 93 % 1003,1 hPa 0,0 l/m 16,1 km/h (3 Bft) S-SW 202 0 min 0,0 UV-I 0 W/m 2,5 C -3,3 C 30,6 km/h (5 Bft)
01.05.2020 06:11 3,6 C 3,3 C 93 % 1003,2 hPa 0,0 l/m 14,5 km/h (3 Bft) S-SW 202 0 min 0,0 UV-I 0 W/m 2,6 C -2,3 C 19,3 km/h (3 Bft)
01.05.2020 06:12 3,7 C 3,3 C 93 % 1003,1 hPa 0,0 l/m 16,1 km/h (3 Bft) S-SW 202 0 min 0,0 UV-I 0 W/m 2,7 C -3,1 C 20,9 km/h (4 Bft)
01.05.2020 06:13 3,7 C 3,3 C 93 % 1003,0 hPa 0,0 l/m 16,1 km/h (3 Bft) S-SW 202 0 min 0,0 UV-I 0 W/m 2,7 C -3,1 C 19,3 km/h (3 Bft)
01.05.2020 06:14 3,8 C 3,3 C 93 % 1003,0 hPa 0,0 l/m 16,1 km/h (3 Bft) S-SW 202 0 min 0,0 UV-I 0 W/m 2,8 C -2,9 C 22,5 km/h (4 Bft)
01.05.2020 06:15 3,8 C 3,3 C 93 % 1003,1 hPa 0,0 l/m 12,9 km/h (3 Bft) S-SW 202 0 min 0,0 UV-I 0 W/m 2,8 C -1,2 C 16,1 km/h (3 Bft)
01.05.2020 06:16 3,9 C 3,3 C 93 % 1003,0 hPa 0,0 l/m 16,1 km/h (3 Bft) S-SW 202 0 min 0,0 UV-I 0 W/m 2,9 C -2,8 C 19,3 km/h (3 Bft)
01.05.2020 06:17 3,9 C 3,3 C 93 % 1003,0 hPa 0,0 l/m 11,3 km/h (2 Bft) S-SW 202 0 min 0,0 UV-I 0 W/m 2,9 C -0,1 C 16,1 km/h (3 Bft)
01.05.2020 06:18 4,0 C 3,3 C 93 % 1003,1 hPa 0,0 l/m 12,9 km/h (3 Bft) S 180 0 min 0,0 UV-I 0 W/m 3,0 C -1,0 C 19,3 km/h (3 Bft)
01.05.2020 06:19 4,0 C 3,3 C 93 % 1003,1 hPa 0,0 l/m 16,1 km/h (3 Bft) S-SW 202 0 min 0,0 UV-I 0 W/m 3,0 C -2,7 C 20,9 km/h (4 Bft)
01.05.2020 06:20 4,0 C 3,9 C 93 % 1003,1 hPa 0,0 l/m 14,5 km/h (3 Bft) S-SW 202 0 min 0,0 UV-I 0 W/m 3,0 C -1,9 C 17,7 km/h (3 Bft)
01.05.2020 06:21 4,1 C 3,9 C 93 % 1003,1 hPa 0,0 l/m 17,7 km/h (3 Bft) S-SW 202 0 min 0,0 UV-I 0 W/m 3,1 C -3,3 C 20,9 km/h (4 Bft)
01.05.2020 06:22 4,1 C 3,9 C 93 % 1003,1 hPa 0,0 l/m 16,1 km/h (3 Bft) S-SW 202 0 min 0,0 UV-I 0 W/m 3,1 C -2,6 C 24,1 km/h (4 Bft)
01.05.2020 06:23 4,1 C 3,9 C 93 % 1003,1 hPa 0,0 l/m 16,1 km/h (3 Bft) S-SW 202 0 min 0,0 UV-I 0 W/m 3,1 C -2,6 C 24,1 km/h (4 Bft)
01.05.2020 06:24 4,2 C 3,9 C 93 % 1003,1 hPa 0,0 l/m 14,5 km/h (3 Bft) S-SW 202 0 min 0,0 UV-I 0 W/m 3,2 C -1,6 C 19,3 km/h (3 Bft)
01.05.2020 06:25 4,2 C 3,9 C 93 % 1003,1 hPa 0,0 l/m 12,9 km/h (3 Bft) S-SW 202 0 min 0,0 UV-I 0 W/m 3,2 C -0,7 C 16,1 km/h (3 Bft)
01.05.2020 06:26 4,2 C 3,9 C 93 % 1003,2 hPa 0,0 l/m 14,5 km/h (3 Bft) S-SW 202 0 min 0,0 UV-I 0 W/m 3,2 C -1,6 C 19,3 km/h (3 Bft)
01.05.2020 06:27 4,2 C 3,9 C 93 % 1003,2 hPa 0,0 l/m 14,5 km/h (3 Bft) S-SW 202 0 min 0,0 UV-I 0 W/m 3,2 C -1,6 C 19,3 km/h (3 Bft)
01.05.2020 06:28 4,2 C 3,9 C 93 % 1003,2 hPa 0,0 l/m 16,1 km/h (3 Bft) S-SW 202 0 min 0,0 UV-I 5 W/m 3,2 C -2,5 C 20,9 km/h (4 Bft)
01.05.2020 06:29 4,2 C 3,9 C 93 % 1003,1 hPa 0,0 l/m 16,1 km/h (3 Bft) S-SW 202 0 min 0,0 UV-I 5 W/m 3,2 C -2,5 C 20,9 km/h (4 Bft)
01.05.2020 06:30 4,2 C 3,9 C 93 % 1003,1 hPa 0,0 l/m 11,3 km/h (2 Bft) S-SW 202 0 min 0,0 UV-I 7 W/m 3,2 C 0,3 C 16,1 km/h (3 Bft)
01.05.2020 06:31 4,2 C 3,9 C 93 % 1003,1 hPa 0,0 l/m 12,9 km/h (3 Bft) S-SW 202 0 min 0,0 UV-I 9 W/m 3,2 C -0,7 C 22,5 km/h (4 Bft)
01.05.2020 06:32 4,2 C 3,9 C 93 % 1003,2 hPa 0,0 l/m 11,3 km/h (2 Bft) S-SW 202 0 min 0,0 UV-I 9 W/m 3,2 C 0,3 C 16,1 km/h (3 Bft)
01.05.2020 06:33 4,2 C 3,9 C 93 % 1003,2 hPa 0,0 l/m 12,9 km/h (3 Bft) S-SW 202 0 min 0,0 UV-I 11 W/m 3,2 C -0,7 C 17,7 km/h (3 Bft)
01.05.2020 06:34 4,2 C 3,9 C 93 % 1003,1 hPa 0,0 l/m 16,1 km/h (3 Bft) S-SW 202 0 min 0,0 UV-I 11 W/m 3,2 C -2,5 C 24,1 km/h (4 Bft)
01.05.2020 06:35 4,2 C 3,9 C 93 % 1003,1 hPa 0,0 l/m 14,5 km/h (3 Bft) S-SW 202 0 min 0,0 UV-I 12 W/m 3,2 C -1,6 C 19,3 km/h (3 Bft)
01.05.2020 06:36 4,3 C 3,9 C 93 % 1003,2 hPa 0,0 l/m 17,7 km/h (3 Bft) S-SW 202 0 min 0,0 UV-I 12 W/m 3,3 C -3,1 C 24,1 km/h (4 Bft)
01.05.2020 06:37 4,3 C 3,9 C 93 % 1003,1 hPa 0,0 l/m 14,5 km/h (3 Bft) S-SW 202 0 min 0,0 UV-I 12 W/m 3,3 C -1,5 C 22,5 km/h (4 Bft)
01.05.2020 06:38 4,3 C 3,9 C 93 % 1003,1 hPa 0,0 l/m 17,7 km/h (3 Bft) S-SW 202 0 min 0,0 UV-I 14 W/m 3,3 C -3,1 C 27,4 km/h (4 Bft)
01.05.2020 06:39 4,3 C 3,9 C 93 % 1003,1 hPa 0,0 l/m 14,5 km/h (3 Bft) S-SW 202 0 min 0,0 UV-I 16 W/m 3,3 C -1,5 C 24,1 km/h (4 Bft)
01.05.2020 06:40 4,2 C 3,9 C 93 % 1003,2 hPa 0,0 l/m 14,5 km/h (3 Bft) S-SW 202 0 min 0,0 UV-I 19 W/m 3,2 C -1,6 C 17,7 km/h (3 Bft)
01.05.2020 06:41 4,3 C 3,9 C 92 % 1003,2 hPa 0,0 l/m 16,1 km/h (3 Bft) SW 225 0 min 0,0 UV-I 26 W/m 3,1 C -2,3 C 17,7 km/h (3 Bft)
01.05.2020 06:42 4,3 C 3,9 C 93 % 1003,2 hPa 0,0 l/m 9,7 km/h (2 Bft) S 180 0 min 0,0 UV-I 35 W/m 3,3 C 1,5 C 14,5 km/h (3 Bft)
01.05.2020 06:43 4,3 C 3,9 C 92 % 1003,1 hPa 0,0 l/m 11,3 km/h (2 Bft) S-SW 202 0 min 0,0 UV-I 32 W/m 3,1 C 0,4 C 20,9 km/h (4 Bft)
01.05.2020 06:44 4,3 C 3,9 C 93 % 1003,2 hPa 0,0 l/m 14,5 km/h (3 Bft) S-SW 202 0 min 0,0 UV-I 30 W/m 3,3 C -1,5 C 22,5 km/h (4 Bft)
01.05.2020 06:45 4,3 C 3,9 C 93 % 1003,1 hPa 0,0 l/m 11,3 km/h (2 Bft) S-SW 202 0 min 0,0 UV-I 25 W/m 3,3 C 0,4 C 16,1 km/h (3 Bft)
01.05.2020 06:46 4,3 C 3,9 C 93 % 1003,1 hPa 0,0 l/m 14,5 km/h (3 Bft) S-SW 202 0 min 0,0 UV-I 16 W/m 3,3 C -1,5 C 19,3 km/h (3 Bft)
01.05.2020 06:47 4,3 C 3,9 C 93 % 1003,1 hPa 0,0 l/m 14,5 km/h (3 Bft) S-SW 202 0 min 0,0 UV-I 12 W/m 3,3 C -1,5 C 22,5 km/h (4 Bft)
01.05.2020 06:48 4,4 C 3,9 C 93 % 1003,1 hPa 0,0 l/m 12,9 km/h (3 Bft) S-SW 202 0 min 0,0 UV-I 12 W/m 3,4 C -0,5 C 22,5 km/h (4 Bft)
01.05.2020 06:49 4,4 C 3,9 C 93 % 1003,1 hPa 0,0 l/m 14,5 km/h (3 Bft) S-SW 202 0 min 0,0 UV-I 14 W/m 3,4 C -1,4 C 20,9 km/h (4 Bft)
01.05.2020 06:50 4,4 C 3,9 C 93 % 1003,1 hPa 0,0 l/m 11,3 km/h (2 Bft) S-SW 202 0 min 0,0 UV-I 14 W/m 3,4 C 0,5 C 19,3 km/h (3 Bft)
01.05.2020 06:51 4,4 C 3,9 C 93 % 1003,1 hPa 0,0 l/m 14,5 km/h (3 Bft) S-SW 202 0 min 0,0 UV-I 16 W/m 3,4 C -1,4 C 20,9 km/h (4 Bft)
01.05.2020 06:52 4,4 C 3,9 C 93 % 1003,1 hPa 0,0 l/m 16,1 km/h (3 Bft) S-SW 202 0 min 0,0 UV-I 26 W/m 3,4 C -2,2 C 20,9 km/h (4 Bft)
01.05.2020 06:53 4,4 C 3,9 C 93 % 1003,1 hPa 0,0 l/m 9,7 km/h (2 Bft) S-SW 202 0 min 0,0 UV-I 37 W/m 3,4 C 1,6 C 12,9 km/h (3 Bft)
01.05.2020 06:54 4,4 C 3,9 C 93 % 1003,1 hPa 0,0 l/m 9,7 km/h (2 Bft) S-SW 202 0 min 0,0 UV-I 39 W/m 3,4 C 1,6 C 17,7 km/h (3 Bft)
01.05.2020 06:55 4,5 C 3,9 C 93 % 1003,0 hPa 0,0 l/m 14,5 km/h (3 Bft) S-SW 202 0 min 0,0 UV-I 33 W/m 3,5 C -1,3 C 17,7 km/h (3 Bft)
01.05.2020 06:56 4,4 C 4,4 C 93 % 1003,1 hPa 0,0 l/m 14,5 km/h (3 Bft) S-SW 202 0 min 0,0 UV-I 28 W/m 3,4 C -1,4 C 19,3 km/h (3 Bft)
01.05.2020 06:57 4,5 C 4,4 C 93 % 1003,0 hPa 0,0 l/m 16,1 km/h (3 Bft) S-SW 202 0 min 0,0 UV-I 21 W/m 3,5 C -2,1 C 27,4 km/h (4 Bft)
01.05.2020 06:58 4,6 C 4,4 C 93 % 1003,1 hPa 0,0 l/m 16,1 km/h (3 Bft) S-SW 202 0 min 0,0 UV-I 15 W/m 3,6 C -2,0 C 22,5 km/h (4 Bft)
01.05.2020 06:59 4,6 C 4,4 C 93 % 1003,1 hPa 0,0 l/m 17,7 km/h (3 Bft) S-SW 202 0 min 0,0 UV-I 14 W/m 3,6 C -2,7 C 22,5 km/h (4 Bft)
01.05.2020 07:00 4,6 C 4,4 C 93 % 1003,1 hPa 0,0 l/m 17,7 km/h (3 Bft) S-SW 202 0 min 0,0 UV-I 16 W/m 3,6 C -2,7 C 24,1 km/h (4 Bft)
01.05.2020 07:01 4,6 C 4,4 C 93 % 1003,1 hPa 0,0 l/m 16,1 km/h (3 Bft) S-SW 202 0 min 0,0 UV-I 18 W/m 3,6 C -2,0 C 20,9 km/h (4 Bft)
01.05.2020 07:02 4,6 C 4,4 C 93 % 1003,1 hPa 0,0 l/m 16,1 km/h (3 Bft) S-SW 202 0 min 0,0 UV-I 21 W/m 3,6 C -2,0 C 19,3 km/h (3 Bft)
01.05.2020 07:03 4,6 C 4,4 C 93 % 1003,1 hPa 0,0 l/m 12,9 km/h (3 Bft) S-SW 202 0 min 0,0 UV-I 26 W/m 3,6 C -0,2 C 17,7 km/h (3 Bft)
01.05.2020 07:04 4,7 C 4,4 C 93 % 1003,1 hPa 0,0 l/m 12,9 km/h (3 Bft) S-SW 202 0 min 0,0 UV-I 26 W/m 3,7 C -0,1 C 19,3 km/h (3 Bft)
01.05.2020 07:05 4,7 C 4,4 C 93 % 1003,2 hPa 0,0 l/m 11,3 km/h (2 Bft) S-SW 202 0 min 0,0 UV-I 28 W/m 3,7 C 0,9 C 19,3 km/h (3 Bft)
01.05.2020 07:06 4,7 C 4,4 C 93 % 1003,1 hPa 0,0 l/m 9,7 km/h (2 Bft) S-SW 202 0 min 0,0 UV-I 26 W/m 3,7 C 2,0 C 11,3 km/h (2 Bft)
01.05.2020 07:07 4,7 C 4,4 C 93 % 1003,1 hPa 0,0 l/m 9,7 km/h (2 Bft) S-SW 202 0 min 0,0 UV-I 32 W/m 3,7 C 2,0 C 16,1 km/h (3 Bft)
01.05.2020 07:08 4,7 C 4,4 C 93 % 1003,2 hPa 0,0 l/m 6,4 km/h (2 Bft) S-SW 202 0 min 0,0 UV-I 28 W/m 3,7 C 4,7 C 12,9 km/h (3 Bft)
01.05.2020 07:09 4,8 C 4,4 C 93 % 1003,2 hPa 0,0 l/m 9,7 km/h (2 Bft) S-SW 202 0 min 0,0 UV-I 26 W/m 3,8 C 2,1 C 12,9 km/h (3 Bft)
01.05.2020 07:10 4,8 C 4,4 C 93 % 1003,3 hPa 0,0 l/m 11,3 km/h (2 Bft) S 180 0 min 0,0 UV-I 26 W/m 3,8 C 1,0 C 16,1 km/h (3 Bft)
01.05.2020 07:11 4,8 C 4,4 C 93 % 1003,1 hPa 0,0 l/m 12,9 km/h (3 Bft) S-SW 202 0 min 0,0 UV-I 23 W/m 3,8 C -0,0 C 17,7 km/h (3 Bft)
01.05.2020 07:12 4,8 C 4,4 C 93 % 1003,2 hPa 0,0 l/m 8,0 km/h (2 Bft) S-SW 202 0 min 0,0 UV-I 25 W/m 3,8 C 3,4 C 14,5 km/h (3 Bft)
01.05.2020 07:13 4,8 C 4,4 C 93 % 1003,1 hPa 0,0 l/m 9,7 km/h (2 Bft) S-SW 202 0 min 0,0 UV-I 25 W/m 3,8 C 2,1 C 16,1 km/h (3 Bft)
01.05.2020 07:14 4,8 C 4,4 C 93 % 1003,1 hPa 0,0 l/m 12,9 km/h (3 Bft) S-SW 202 0 min 0,0 UV-I 26 W/m 3,8 C -0,0 C 19,3 km/h (3 Bft)
01.05.2020 07:15 4,8 C 4,4 C 93 % 1003,1 hPa 0,0 l/m 12,9 km/h (3 Bft) S-SW 202 0 min 0,0 UV-I 30 W/m 3,8 C -0,0 C 16,1 km/h (3 Bft)
01.05.2020 07:16 4,9 C 4,4 C 93 % 1003,2 hPa 0,0 l/m 11,3 km/h (2 Bft) S-SW 202 0 min 0,0 UV-I 32 W/m 3,9 C 1,1 C 14,5 km/h (3 Bft)
01.05.2020 07:17 4,9 C 4,4 C 93 % 1003,3 hPa 0,0 l/m 12,9 km/h (3 Bft) S-SW 202 0 min 0,0 UV-I 33 W/m 3,9 C 0,1 C 19,3 km/h (3 Bft)
01.05.2020 07:18 4,9 C 4,4 C 93 % 1003,1 hPa 0,0 l/m 12,9 km/h (3 Bft) S 180 0 min 0,0 UV-I 33 W/m 3,9 C 0,1 C 22,5 km/h (4 Bft)
01.05.2020 07:19 4,9 C 4,4 C 93 % 1003,1 hPa 0,0 l/m 8,0 km/h (2 Bft) S-SW 202 0 min 0,0 UV-I 33 W/m 3,9 C 3,5 C 11,3 km/h (2 Bft)
01.05.2020 07:20 4,9 C 4,4 C 93 % 1003,2 hPa 0,0 l/m 12,9 km/h (3 Bft) S-SO 157 0 min 0,0 UV-I 37 W/m 3,9 C 0,1 C 20,9 km/h (4 Bft)
01.05.2020 07:21 5,0 C 4,4 C 93 % 1003,1 hPa 0,0 l/m 12,9 km/h (3 Bft) S-SW 202 0 min 0,0 UV-I 39 W/m 4,0 C 0,2 C 22,5 km/h (4 Bft)
01.05.2020 07:22 5,0 C 4,4 C 93 % 1003,2 hPa 0,0 l/m 12,9 km/h (3 Bft) S-SW 202 0 min 0,0 UV-I 37 W/m 4,0 C 0,2 C 19,3 km/h (3 Bft)
01.05.2020 07:23 5,1 C 4,4 C 93 % 1003,1 hPa 0,0 l/m 16,1 km/h (3 Bft) S-SW 202 0 min 0,0 UV-I 37 W/m 4,1 C -1,3 C 24,1 km/h (4 Bft)
01.05.2020 07:24 5,1 C 4,4 C 93 % 1003,1 hPa 0,0 l/m 16,1 km/h (3 Bft) S-SW 202 0 min 0,0 UV-I 39 W/m 4,1 C -1,3 C 19,3 km/h (3 Bft)
01.05.2020 07:25 5,1 C 4,4 C 93 % 1003,2 hPa 0,0 l/m 11,3 km/h (2 Bft) S 180 0 min 0,0 UV-I 39 W/m 4,1 C 1,3 C 19,3 km/h (3 Bft)
01.05.2020 07:26 5,1 C 4,4 C 93 % 1003,2 hPa 0,0 l/m 14,5 km/h (3 Bft) S 180 0 min 0,0 UV-I 35 W/m 4,1 C -0,5 C 19,3 km/h (3 Bft)
01.05.2020 07:27 5,1 C 4,4 C 93 % 1003,1 hPa 0,0 l/m 16,1 km/h (3 Bft) S-SW 202 0 min 0,0 UV-I 32 W/m 4,1 C -1,3 C 24,1 km/h (4 Bft)
01.05.2020 07:28 5,1 C 4,4 C 93 % 1003,2 hPa 0,0 l/m 14,5 km/h (3 Bft) S-SW 202 0 min 0,0 UV-I 30 W/m 4,1 C -0,5 C 19,3 km/h (3 Bft)
01.05.2020 07:29 5,0 C 4,4 C 92 % 1003,2 hPa 0,0 l/m 9,7 km/h (2 Bft) S-SW 202 0 min 0,0 UV-I 30 W/m 3,8 C 2,3 C 17,7 km/h (3 Bft)
01.05.2020 07:30 5,0 C 4,4 C 92 % 1003,3 hPa 0,0 l/m 12,9 km/h (3 Bft) S-SW 202 0 min 0,0 UV-I 30 W/m 3,8 C 0,2 C 17,7 km/h (3 Bft)
01.05.2020 07:31 5,0 C 4,4 C 92 % 1003,2 hPa 0,0 l/m 14,5 km/h (3 Bft) S-SW 202 0 min 0,0 UV-I 32 W/m 3,8 C -0,7 C 19,3 km/h (3 Bft)
01.05.2020 07:32 5,1 C 4,4 C 92 % 1003,2 hPa 0,0 l/m 14,5 km/h (3 Bft) S-SW 202 0 min 0,0 UV-I 30 W/m 3,9 C -0,5 C 20,9 km/h (4 Bft)
01.05.2020 07:33 5,0 C 4,4 C 92 % 1003,1 hPa 0,0 l/m 14,5 km/h (3 Bft) S-SW 202 0 min 0,0 UV-I 29 W/m 3,8 C -0,7 C 19,3 km/h (3 Bft)
01.05.2020 07:34 5,1 C 4,4 C 92 % 1003,1 hPa 0,0 l/m 9,7 km/h (2 Bft) S-SW 202 0 min 0,0 UV-I 30 W/m 3,9 C 2,4 C 12,9 km/h (3 Bft)
01.05.2020 07:35 5,0 C 4,4 C 92 % 1003,3 hPa 0,0 l/m 12,9 km/h (3 Bft) S 180 0 min 0,0 UV-I 28 W/m 3,8 C 0,2 C 19,3 km/h (3 Bft)
01.05.2020 07:36 5,1 C 4,4 C 92 % 1003,1 hPa 0,0 l/m 20,9 km/h (4 Bft) S 180 0 min 0,0 UV-I 33 W/m 3,9 C -3,4 C 25,7 km/h (4 Bft)
01.05.2020 07:37 5,1 C 4,4 C 92 % 1003,2 hPa 0,0 l/m 14,5 km/h (3 Bft) S-SW 202 0 min 0,0 UV-I 33 W/m 3,9 C -0,5 C 25,7 km/h (4 Bft)
01.05.2020 07:38 5,1 C 4,4 C 92 % 1003,2 hPa 0,0 l/m 11,3 km/h (2 Bft) S-SW 202 0 min 0,0 UV-I 37 W/m 3,9 C 1,3 C 17,7 km/h (3 Bft)
01.05.2020 07:39 5,2 C 5,0 C 92 % 1003,2 hPa 0,0 l/m 11,3 km/h (2 Bft) S-SW 202 0 min 0,0 UV-I 59 W/m 4,0 C 1,4 C 17,7 km/h (3 Bft)
01.05.2020 07:40 5,2 C 5,0 C 92 % 1003,2 hPa 0,0 l/m 12,9 km/h (3 Bft) S-SW 202 0 min 0,0 UV-I 81 W/m 4,0 C 0,5 C 17,7 km/h (3 Bft)
01.05.2020 07:41 5,2 C 5,0 C 92 % 1003,2 hPa 0,0 l/m 12,9 km/h (3 Bft) S-SW 202 0 min 0,0 UV-I 83 W/m 4,0 C 0,5 C 16,1 km/h (3 Bft)
01.05.2020 07:42 5,2 C 5,0 C 92 % 1003,2 hPa 0,0 l/m 14,5 km/h (3 Bft) S-SW 202 0 min 0,0 UV-I 81 W/m 4,0 C -0,4 C 22,5 km/h (4 Bft)
01.05.2020 07:43 5,3 C 5,0 C 92 % 1003,2 hPa 0,0 l/m 16,1 km/h (3 Bft) S-SW 202 0 min 0,0 UV-I 86 W/m 4,1 C -1,1 C 27,4 km/h (4 Bft)
01.05.2020 07:44 5,3 C 5,0 C 93 % 1003,3 hPa 0,0 l/m 14,5 km/h (3 Bft) S 180 0 min 0,5 UV-I 109 W/m 4,3 C -0,3 C 22,5 km/h (4 Bft)
01.05.2020 07:45 5,3 C 5,0 C 92 % 1003,2 hPa 0,0 l/m 14,5 km/h (3 Bft) S-SW 202 0 min 0,5 UV-I 139 W/m 4,1 C -0,3 C 27,4 km/h (4 Bft)
01.05.2020 07:46 5,3 C 5,6 C 92 % 1003,2 hPa 0,0 l/m 14,5 km/h (3 Bft) S-SW 202 0 min 0,7 UV-I 236 W/m 4,1 C -0,3 C 19,3 km/h (3 Bft)
01.05.2020 07:47 5,5 C 5,6 C 93 % 1003,1 hPa 0,0 l/m 17,7 km/h (3 Bft) S-SW 202 0 min 0,6 UV-I 229 W/m 4,5 C -1,6 C 32,2 km/h (5 Bft)
01.05.2020 07:48 5,6 C 6,1 C 92 % 1003,3 hPa 0,0 l/m 17,7 km/h (3 Bft) S-SW 202 0 min 0,5 UV-I 148 W/m 4,4 C -1,5 C 25,7 km/h (4 Bft)
01.05.2020 07:49 5,6 C 5,6 C 92 % 1003,1 hPa 0,0 l/m 12,9 km/h (3 Bft) S-SW 202 0 min 0,5 UV-I 144 W/m 4,4 C 0,9 C 20,9 km/h (4 Bft)
01.05.2020 07:50 5,6 C 6,1 C 92 % 1003,2 hPa 0,0 l/m 9,7 km/h (2 Bft) S-SW 202 0 min 0,6 UV-I 141 W/m 4,4 C 2,9 C 17,7 km/h (3 Bft)
01.05.2020 07:51 5,7 C 6,1 C 92 % 1003,2 hPa 0,0 l/m 16,1 km/h (3 Bft) S-SW 202 0 min 0,7 UV-I 179 W/m 4,5 C -0,6 C 24,1 km/h (4 Bft)
01.05.2020 07:52 5,7 C 6,1 C 92 % 1003,2 hPa 0,0 l/m 14,5 km/h (3 Bft) S-SW 202 0 min 0,6 UV-I 160 W/m 4,5 C 0,2 C 19,3 km/h (3 Bft)
01.05.2020 07:53 5,7 C 6,1 C 92 % 1003,2 hPa 0,0 l/m 14,5 km/h (3 Bft) S 180 0 min 0,7 UV-I 181 W/m 4,5 C 0,2 C 17,7 km/h (3 Bft)
01.05.2020 07:54 5,8 C 6,1 C 92 % 1003,1 hPa 0,0 l/m 14,5 km/h (3 Bft) S-SW 202 0 min 0,8 UV-I 225 W/m 4,6 C 0,3 C 19,3 km/h (3 Bft)
01.05.2020 07:55 5,9 C 6,7 C 92 % 1003,1 hPa 0,0 l/m 14,5 km/h (3 Bft) S-SW 202 0 min 0,7 UV-I 290 W/m 4,7 C 0,4 C 22,5 km/h (4 Bft)
01.05.2020 07:56 5,9 C 6,7 C 92 % 1003,2 hPa 0,0 l/m 16,1 km/h (3 Bft) S 180 0 min 0,6 UV-I 290 W/m 4,7 C -0,4 C 27,4 km/h (4 Bft)
01.05.2020 07:57 5,9 C 6,7 C 92 % 1003,1 hPa 0,0 l/m 14,5 km/h (3 Bft) S-SW 202 0 min 0,7 UV-I 204 W/m 4,7 C 0,4 C 27,4 km/h (4 Bft)
01.05.2020 07:58 6,0 C 6,1 C 92 % 1003,1 hPa 0,0 l/m 16,1 km/h (3 Bft) S-SW 202 0 min 0,6 UV-I 98 W/m 4,8 C -0,2 C 20,9 km/h (4 Bft)
01.05.2020 07:59 6,0 C 6,1 C 92 % 1003,2 hPa 0,0 l/m 17,7 km/h (3 Bft) S-SW 202 0 min 0,6 UV-I 93 W/m 4,8 C -1,0 C 25,7 km/h (4 Bft)
01.05.2020 08:00 6,0 C 6,1 C 91 % 1003,1 hPa 0,0 l/m 16,1 km/h (3 Bft) S-SW 202 0 min 0,6 UV-I 86 W/m 4,6 C -0,2 C 24,1 km/h (4 Bft)
01.05.2020 08:01 5,9 C 6,1 C 91 % 1002,9 hPa 0,0 l/m 19,3 km/h (3 Bft) S-SW 202 0 min 0,6 UV-I 79 W/m 4,5 C -1,7 C 25,7 km/h (4 Bft)
01.05.2020 08:02 5,9 C 5,6 C 91 % 1003,0 hPa 0,0 l/m 14,5 km/h (3 Bft) S 180 0 min 0,6 UV-I 76 W/m 4,5 C 0,4 C 20,9 km/h (4 Bft)
01.05.2020 08:03 5,9 C 5,6 C 91 % 1003,0 hPa 0,0 l/m 19,3 km/h (3 Bft) S-SW 202 0 min 0,6 UV-I 81 W/m 4,5 C -1,7 C 25,7 km/h (4 Bft)
01.05.2020 08:04 5,9 C 6,1 C 91 % 1003,0 hPa 0,0 l/m 16,1 km/h (3 Bft) S-SW 202 0 min 0,7 UV-I 81 W/m 4,5 C -0,4 C 22,5 km/h (4 Bft)
01.05.2020 08:05 5,9 C 6,1 C 91 % 1003,0 hPa 0,0 l/m 16,1 km/h (3 Bft) S-SW 202 0 min 0,6 UV-I 95 W/m 4,5 C -0,4 C 24,1 km/h (4 Bft)
01.05.2020 08:06 5,9 C 6,1 C 90 % 1003,0 hPa 0,0 l/m 25,7 km/h (4 Bft) S-SW 202 0 min 0,7 UV-I 156 W/m 4,4 C -3,9 C 38,6 km/h (5 Bft)
01.05.2020 08:07 5,9 C 6,1 C 91 % 1003,0 hPa 0,0 l/m 19,3 km/h (3 Bft) S-SW 202 0 min 0,9 UV-I 156 W/m 4,5 C -1,7 C 29,0 km/h (5 Bft)
01.05.2020 08:08 5,9 C 6,1 C 91 % 1003,0 hPa 0,0 l/m 16,1 km/h (3 Bft) S-SW 202 0 min 0,9 UV-I 156 W/m 4,5 C -0,4 C 22,5 km/h (4 Bft)
01.05.2020 08:09 6,1 C 6,7 C 91 % 1003,0 hPa 0,0 l/m 17,7 km/h (3 Bft) S-SW 202 0 min 0,7 UV-I 135 W/m 4,7 C -0,8 C 25,7 km/h (4 Bft)
01.05.2020 08:10 6,1 C 6,1 C 91 % 1002,9 hPa 0,0 l/m 19,3 km/h (3 Bft) S-SW 202 0 min 0,7 UV-I 132 W/m 4,7 C -1,5 C 29,0 km/h (5 Bft)
01.05.2020 08:11 6,2 C 6,7 C 90 % 1002,9 hPa 0,0 l/m 16,1 km/h (3 Bft) S-SW 202 0 min 1,0 UV-I 132 W/m 4,7 C 0,0 C 22,5 km/h (4 Bft)
01.05.2020 08:12 6,2 C 6,7 C 90 % 1003,0 hPa 0,0 l/m 22,5 km/h (4 Bft) SW 225 0 min 0,8 UV-I 257 W/m 4,7 C -2,5 C 30,6 km/h (5 Bft)
01.05.2020 08:13 6,2 C 6,7 C 90 % 1003,0 hPa 0,0 l/m 20,9 km/h (4 Bft) SW 225 0 min 0,7 UV-I 257 W/m 4,7 C -2,0 C 30,6 km/h (5 Bft)
01.05.2020 08:14 6,2 C 6,1 C 90 % 1002,9 hPa 0,0 l/m 22,5 km/h (4 Bft) S-SW 202 0 min 0,7 UV-I 161 W/m 4,7 C -2,5 C 30,6 km/h (5 Bft)
01.05.2020 08:15 6,2 C 6,1 C 90 % 1003,1 hPa 0,0 l/m 19,3 km/h (3 Bft) S-SW 202 0 min 0,8 UV-I 174 W/m 4,7 C -1,4 C 33,8 km/h (5 Bft)
01.05.2020 08:16 6,1 C 6,1 C 90 % 1002,9 hPa 0,0 l/m 30,6 km/h (5 Bft) S-SW 202 0 min 0,7 UV-I 113 W/m 4,6 C -5,0 C 40,2 km/h (6 Bft)
01.05.2020 08:17 6,1 C 6,1 C 90 % 1003,1 hPa 0,0 l/m 24,1 km/h (4 Bft) S-SW 202 0 min 0,8 UV-I 171 W/m 4,6 C -3,2 C 30,6 km/h (5 Bft)
01.05.2020 08:18 6,1 C 6,1 C 90 % 1003,0 hPa 0,0 l/m 19,3 km/h (3 Bft) S-SW 202 0 min 0,8 UV-I 232 W/m 4,6 C -1,5 C 27,4 km/h (4 Bft)
01.05.2020 08:19 6,1 C 6,1 C 90 % 1003,0 hPa 0,0 l/m 20,9 km/h (4 Bft) SW 225 0 min 0,9 UV-I 160 W/m 4,6 C -2,1 C 27,4 km/h (4 Bft)
01.05.2020 08:20 6,2 C 6,1 C 90 % 1002,9 hPa 0,0 l/m 16,1 km/h (3 Bft) S 180 0 min 0,8 UV-I 139 W/m 4,7 C 0,0 C 25,7 km/h (4 Bft)
01.05.2020 08:21 6,2 C 6,1 C 90 % 1003,0 hPa 0,0 l/m 19,3 km/h (3 Bft) S-SW 202 0 min 0,8 UV-I 105 W/m 4,7 C -1,4 C 29,0 km/h (5 Bft)
01.05.2020 08:22 6,1 C 6,1 C 90 % 1003,0 hPa 0,0 l/m 22,5 km/h (4 Bft) S-SW 202 0 min 0,8 UV-I 93 W/m 4,6 C -2,6 C 30,6 km/h (5 Bft)
01.05.2020 08:23 6,1 C 6,1 C 89 % 1003,0 hPa 0,0 l/m 22,5 km/h (4 Bft) S-SW 202 0 min 0,7 UV-I 88 W/m 4,4 C -2,6 C 27,4 km/h (4 Bft)
01.05.2020 08:24 6,1 C 6,1 C 89 % 1003,1 hPa 0,0 l/m 20,9 km/h (4 Bft) S-SW 202 0 min 0,8 UV-I 81 W/m 4,4 C -2,1 C 30,6 km/h (5 Bft)
01.05.2020 08:25 6,1 C 6,1 C 89 % 1003,2 hPa 0,0 l/m 17,7 km/h (3 Bft) S-SW 202 0 min 0,8 UV-I 134 W/m 4,4 C -0,8 C 24,1 km/h (4 Bft)
01.05.2020 08:26 6,1 C 6,1 C 89 % 1003,1 hPa 0,0 l/m 16,1 km/h (3 Bft) S 180 0 min 0,9 UV-I 238 W/m 4,4 C -0,1 C 20,9 km/h (4 Bft)
01.05.2020 08:27 6,1 C 6,1 C 90 % 1003,2 hPa 0,0 l/m 12,9 km/h (3 Bft) S-SW 202 0 min 0,9 UV-I 281 W/m 4,6 C 1,5 C 19,3 km/h (3 Bft)
01.05.2020 08:28 6,2 C 6,1 C 90 % 1003,1 hPa 0,0 l/m 25,7 km/h (4 Bft) S-SW 202 0 min 0,8 UV-I 155 W/m 4,7 C -3,5 C 30,6 km/h (5 Bft)
01.05.2020 08:29 6,2 C 6,1 C 89 % 1003,2 hPa 0,0 l/m 22,5 km/h (4 Bft) S-SW 202 0 min 0,9 UV-I 193 W/m 4,5 C -2,5 C 30,6 km/h (5 Bft)
01.05.2020 08:30 6,2 C 6,1 C 89 % 1003,2 hPa 0,0 l/m 22,5 km/h (4 Bft) S-SW 202 0 min 0,9 UV-I 214 W/m 4,5 C -2,5 C 32,2 km/h (5 Bft)
01.05.2020 08:31 6,2 C 6,7 C 89 % 1003,2 hPa 0,0 l/m 19,3 km/h (3 Bft) S-SW 202 0 min 0,9 UV-I 236 W/m 4,5 C -1,4 C 24,1 km/h (4 Bft)
01.05.2020 08:32 6,3 C 6,7 C 90 % 1003,1 hPa 0,0 l/m 16,1 km/h (3 Bft) S-SW 202 0 min 0,8 UV-I 153 W/m 4,8 C 0,1 C 29,0 km/h (5 Bft)
01.05.2020 08:33 6,3 C 6,7 C 90 % 1003,2 hPa 0,0 l/m 11,3 km/h (2 Bft) S-SW 202 0 min 0,8 UV-I 120 W/m 4,8 C 2,7 C 17,7 km/h (3 Bft)
01.05.2020 08:34 6,3 C 6,7 C 90 % 1003,1 hPa 0,0 l/m 17,7 km/h (3 Bft) S-SW 202 0 min 0,9 UV-I 174 W/m 4,8 C -0,6 C 25,7 km/h (4 Bft)
01.05.2020 08:35 6,3 C 6,7 C 90 % 1003,3 hPa 0,0 l/m 19,3 km/h (3 Bft) SW 225 0 min 0,8 UV-I 151 W/m 4,8 C -1,2 C 27,4 km/h (4 Bft)
01.05.2020 08:36 6,3 C 6,7 C 89 % 1003,1 hPa 0,0 l/m 20,9 km/h (4 Bft) S-SW 202 0 min 0,9 UV-I 171 W/m 4,6 C -1,8 C 29,0 km/h (5 Bft)
01.05.2020 08:37 6,3 C 6,7 C 89 % 1003,2 hPa 0,0 l/m 25,7 km/h (4 Bft) S-SW 202 0 min 0,9 UV-I 221 W/m 4,6 C -3,4 C 32,2 km/h (5 Bft)
01.05.2020 08:38 6,2 C 6,7 C 89 % 1003,2 hPa 0,0 l/m 17,7 km/h (3 Bft) SW 225 0 min 0,8 UV-I 133 W/m 4,5 C -0,7 C 29,0 km/h (5 Bft)
01.05.2020 08:39 6,3 C 6,7 C 89 % 1003,3 hPa 0,0 l/m 14,5 km/h (3 Bft) SW 225 0 min 0,8 UV-I 123 W/m 4,6 C 0,9 C 22,5 km/h (4 Bft)
01.05.2020 08:40 6,2 C 6,7 C 89 % 1003,1 hPa 0,0 l/m 17,7 km/h (3 Bft) S-SW 202 0 min 0,9 UV-I 163 W/m 4,5 C -0,7 C 25,7 km/h (4 Bft)
01.05.2020 08:41 6,2 C 6,7 C 88 % 1003,1 hPa 0,0 l/m 24,1 km/h (4 Bft) SW 225 0 min 1,0 UV-I 211 W/m 4,4 C -3,0 C 33,8 km/h (5 Bft)
01.05.2020 08:42 6,2 C 6,7 C 88 % 1003,2 hPa 0,0 l/m 22,5 km/h (4 Bft) SW 225 0 min 1,0 UV-I 255 W/m 4,4 C -2,5 C 32,2 km/h (5 Bft)
01.05.2020 08:43 6,2 C 6,7 C 88 % 1003,1 hPa 0,0 l/m 17,7 km/h (3 Bft) S-SW 202 0 min 1,0 UV-I 250 W/m 4,4 C -0,7 C 25,7 km/h (4 Bft)
01.05.2020 08:44 6,3 C 6,7 C 89 % 1003,1 hPa 0,0 l/m 16,1 km/h (3 Bft) S-SW 202 0 min 1,0 UV-I 206 W/m 4,6 C 0,1 C 27,4 km/h (4 Bft)
01.05.2020 08:45 6,3 C 6,7 C 88 % 1003,2 hPa 0,0 l/m 14,5 km/h (3 Bft) SW 225 0 min 1,1 UV-I 213 W/m 4,5 C 0,9 C 20,9 km/h (4 Bft)
01.05.2020 08:46 6,4 C 6,7 C 89 % 1003,2 hPa 0,0 l/m 17,7 km/h (3 Bft) S-SW 202 0 min 1,4 UV-I 213 W/m 4,7 C -0,4 C 24,1 km/h (4 Bft)
01.05.2020 08:47 6,5 C 7,2 C 89 % 1003,2 hPa 0,0 l/m 16,1 km/h (3 Bft) S-SW 202 0 min 1,1 UV-I 248 W/m 4,8 C 0,4 C 22,5 km/h (4 Bft)
01.05.2020 08:48 6,5 C 7,2 C 88 % 1003,2 hPa 0,0 l/m 17,7 km/h (3 Bft) S-SW 202 0 min 1,1 UV-I 195 W/m 4,7 C -0,3 C 25,7 km/h (4 Bft)
01.05.2020 08:49 6,5 C 7,2 C 88 % 1003,2 hPa 0,0 l/m 22,5 km/h (4 Bft) S-SW 202 0 min 1,5 UV-I 166 W/m 4,7 C -2,1 C 30,6 km/h (5 Bft)
01.05.2020 08:50 6,5 C 6,7 C 88 % 1003,1 hPa 0,0 l/m 22,5 km/h (4 Bft) SW 225 0 min 1,1 UV-I 146 W/m 4,7 C -2,1 C 29,0 km/h (5 Bft)
01.05.2020 08:51 6,4 C 6,7 C 87 % 1003,3 hPa 0,0 l/m 17,7 km/h (3 Bft) S-SW 202 0 min 1,6 UV-I 459 W/m 4,4 C -0,4 C 25,7 km/h (4 Bft)
01.05.2020 08:52 6,6 C 7,2 C 88 % 1003,3 hPa 0,0 l/m 14,5 km/h (3 Bft) SW 225 0 min 1,0 UV-I 459 W/m 4,8 C 1,3 C 20,9 km/h (4 Bft)
01.05.2020 08:53 6,6 C 7,2 C 89 % 1003,2 hPa 0,0 l/m 11,3 km/h (2 Bft) SW 225 0 min 1,0 UV-I 153 W/m 4,9 C 3,0 C 17,7 km/h (3 Bft)
01.05.2020 08:54 6,6 C 7,2 C 88 % 1003,3 hPa 0,0 l/m 14,5 km/h (3 Bft) S-SW 202 0 min 0,9 UV-I 116 W/m 4,8 C 1,3 C 19,3 km/h (3 Bft)
01.05.2020 08:55 6,6 C 7,2 C 88 % 1003,4 hPa 0,0 l/m 16,1 km/h (3 Bft) S-SW 202 0 min 1,0 UV-I 175 W/m 4,8 C 0,5 C 20,9 km/h (4 Bft)
01.05.2020 08:56 6,6 C 7,2 C 89 % 1003,3 hPa 0,0 l/m 16,1 km/h (3 Bft) S-SW 202 0 min 1,4 UV-I 190 W/m 4,9 C 0,5 C 27,4 km/h (4 Bft)
01.05.2020 08:57 6,6 C 7,2 C 88 % 1003,3 hPa 0,0 l/m 19,3 km/h (3 Bft) S-SW 202 0 min 1,1 UV-I 239 W/m 4,8 C -0,8 C 25,7 km/h (4 Bft)
01.05.2020 08:58 6,6 C 7,8 C 88 % 1003,3 hPa 0,0 l/m 17,7 km/h (3 Bft) S-SW 202 0 min 1,2 UV-I 239 W/m 4,8 C -0,2 C 22,5 km/h (4 Bft)
01.05.2020 08:59 6,7 C 7,8 C 88 % 1003,3 hPa 0,0 l/m 20,9 km/h (4 Bft) S-SW 202 0 min 1,5 UV-I 239 W/m 4,9 C -1,3 C 27,4 km/h (4 Bft)
01.05.2020 09:00 6,8 C 7,8 C 88 % 1003,2 hPa 0,0 l/m 17,7 km/h (3 Bft) S-SW 202 0 min 1,3 UV-I 239 W/m 5,0 C 0,1 C 25,7 km/h (4 Bft)
01.05.2020 09:01 6,9 C 7,8 C 88 % 1003,3 hPa 0,0 l/m 14,5 km/h (3 Bft) S-SW 202 0 min 1,3 UV-I 239 W/m 5,1 C 1,6 C 20,9 km/h (4 Bft)
01.05.2020 09:02 6,9 C 7,8 C 88 % 1003,2 hPa 0,0 l/m 14,5 km/h (3 Bft) S-SW 202 0 min 1,8 UV-I 297 W/m 5,1 C 1,6 C 19,3 km/h (3 Bft)
01.05.2020 09:03 7,0 C 7,8 C 88 % 1003,3 hPa 0,0 l/m 14,5 km/h (3 Bft) SW 225 0 min 1,7 UV-I 302 W/m 5,2 C 1,7 C 20,9 km/h (4 Bft)
01.05.2020 09:04 7,0 C 7,8 C 88 % 1003,3 hPa 0,0 l/m 14,5 km/h (3 Bft) S-SW 202 0 min 1,8 UV-I 302 W/m 5,2 C 1,7 C 19,3 km/h (3 Bft)
01.05.2020 09:05 7,1 C 8,3 C 88 % 1003,3 hPa 0,0 l/m 14,5 km/h (3 Bft) SW 225 0 min 1,3 UV-I 302 W/m 5,2 C 1,9 C 17,7 km/h (3 Bft)
01.05.2020 09:06 7,2 C 8,3 C 87 % 1003,3 hPa 0,0 l/m 16,1 km/h (3 Bft) S-SW 202 0 min 1,2 UV-I 160 W/m 5,2 C 1,2 C 24,1 km/h (4 Bft)
01.05.2020 09:07 7,1 C 7,8 C 87 % 1003,3 hPa 0,0 l/m 12,9 km/h (3 Bft) S-SW 202 0 min 1,4 UV-I 160 W/m 5,1 C 2,7 C 16,1 km/h (3 Bft)
01.05.2020 09:08 7,1 C 7,8 C 87 % 1003,3 hPa 0,0 l/m 20,9 km/h (4 Bft) S-SW 202 0 min 1,1 UV-I 156 W/m 5,1 C -0,8 C 30,6 km/h (5 Bft)
01.05.2020 09:09 7,0 C 7,8 C 87 % 1003,3 hPa 0,0 l/m 25,7 km/h (4 Bft) S-SW 202 0 min 1,1 UV-I 134 W/m 5,0 C -2,4 C 37,0 km/h (5 Bft)
01.05.2020 09:10 6,8 C 7,2 C 86 % 1003,3 hPa 0,0 l/m 16,1 km/h (3 Bft) SW 225 0 min 1,3 UV-I 192 W/m 4,6 C 0,7 C 20,9 km/h (4 Bft)
01.05.2020 09:11 6,8 C 7,2 C 87 % 1003,4 hPa 0,0 l/m 19,3 km/h (3 Bft) S-SW 202 0 min 1,2 UV-I 204 W/m 4,8 C -0,6 C 27,4 km/h (4 Bft)
01.05.2020 09:12 6,7 C 7,2 C 87 % 1003,3 hPa 0,0 l/m 20,9 km/h (4 Bft) SW 225 0 min 1,5 UV-I 206 W/m 4,7 C -1,3 C 32,2 km/h (5 Bft)
01.05.2020 09:13 6,7 C 7,2 C 87 % 1003,3 hPa 0,0 l/m 19,3 km/h (3 Bft) SW 225 0 min 2,0 UV-I 445 W/m 4,7 C -0,7 C 25,7 km/h (4 Bft)
01.05.2020 09:14 6,8 C 7,8 C 87 % 1003,4 hPa 0,0 l/m 17,7 km/h (3 Bft) SW 225 0 min 2,0 UV-I 445 W/m 4,8 C 0,1 C 22,5 km/h (4 Bft)
01.05.2020 09:15 6,9 C 7,8 C 88 % 1003,3 hPa 0,0 l/m 17,7 km/h (3 Bft) S-SW 202 0 min 2,0 UV-I 483 W/m 5,1 C 0,2 C 27,4 km/h (4 Bft)
01.05.2020 09:16 7,1 C 8,3 C 88 % 1003,3 hPa 0,0 l/m 17,7 km/h (3 Bft) S-SW 202 0 min 1,4 UV-I 483 W/m 5,2 C 0,4 C 24,1 km/h (4 Bft)
01.05.2020 09:17 7,2 C 8,3 C 87 % 1003,3 hPa 0,0 l/m 12,9 km/h (3 Bft) SW 225 0 min 1,3 UV-I 220 W/m 5,2 C 2,8 C 17,7 km/h (3 Bft)
01.05.2020 09:18 7,2 C 8,3 C 87 % 1003,4 hPa 0,0 l/m 19,3 km/h (3 Bft) S-SW 202 0 min 1,4 UV-I 246 W/m 5,2 C -0,1 C 25,7 km/h (4 Bft)
01.05.2020 09:19 7,2 C 8,3 C 87 % 1003,4 hPa 0,0 l/m 24,1 km/h (4 Bft) S-SW 202 0 min 1,5 UV-I 230 W/m 5,2 C -1,7 C 30,6 km/h (5 Bft)
01.05.2020 09:20 7,2 C 8,3 C 87 % 1003,3 hPa 0,0 l/m 22,5 km/h (4 Bft) S-SW 202 0 min 2,0 UV-I 230 W/m 5,2 C -1,2 C 29,0 km/h (5 Bft)
01.05.2020 09:21 7,2 C 8,3 C 86 % 1003,5 hPa 0,0 l/m 20,9 km/h (4 Bft) SW 225 0 min 1,4 UV-I 230 W/m 5,0 C -0,7 C 33,8 km/h (5 Bft)
01.05.2020 09:22 7,1 C 7,8 C 86 % 1003,3 hPa 0,0 l/m 17,7 km/h (3 Bft) SW 225 0 min 2,0 UV-I 230 W/m 4,9 C 0,4 C 25,7 km/h (4 Bft)
01.05.2020 09:23 7,2 C 8,3 C 87 % 1003,4 hPa 0,0 l/m 14,5 km/h (3 Bft) S-SW 202 0 min 1,4 UV-I 230 W/m 5,2 C 2,0 C 22,5 km/h (4 Bft)
01.05.2020 09:24 7,1 C 7,8 C 86 % 1003,4 hPa 0,0 l/m 19,3 km/h (3 Bft) S-SW 202 0 min 1,3 UV-I 186 W/m 4,9 C -0,2 C 32,2 km/h (5 Bft)
01.05.2020 09:25 7,1 C 7,8 C 86 % 1003,4 hPa 0,0 l/m 17,7 km/h (3 Bft) S-SW 202 0 min 1,3 UV-I 276 W/m 4,9 C 0,4 C 29,0 km/h (5 Bft)
01.05.2020 09:26 7,1 C 7,8 C 86 % 1003,5 hPa 0,0 l/m 27,4 km/h (4 Bft) S-SW 202 0 min 1,5 UV-I 188 W/m 4,9 C -2,8 C 35,4 km/h (5 Bft)
01.05.2020 09:27 6,9 C 7,2 C 85 % 1003,6 hPa 0,0 l/m 20,9 km/h (4 Bft) S-SW 202 0 min 1,2 UV-I 181 W/m 4,6 C -1,0 C 27,4 km/h (4 Bft)
01.05.2020 09:28 6,9 C 7,2 C 85 % 1003,4 hPa 0,0 l/m 27,4 km/h (4 Bft) S-SW 202 0 min 1,2 UV-I 213 W/m 4,6 C -3,0 C 33,8 km/h (5 Bft)
01.05.2020 09:29 6,8 C 7,2 C 85 % 1003,6 hPa 0,0 l/m 25,7 km/h (4 Bft) S-SW 202 0 min 1,3 UV-I 250 W/m 4,5 C -2,7 C 38,6 km/h (5 Bft)
01.05.2020 09:30 6,8 C 7,2 C 85 % 1003,6 hPa 0,0 l/m 32,2 km/h (5 Bft) S-SW 202 0 min 1,1 UV-I 182 W/m 4,5 C -4,4 C 37,0 km/h (5 Bft)
01.05.2020 09:31 6,8 C 7,2 C 85 % 1003,5 hPa 0,0 l/m 24,1 km/h (4 Bft) S-SW 202 0 min 1,2 UV-I 163 W/m 4,5 C -2,2 C 29,0 km/h (5 Bft)
01.05.2020 09:32 6,8 C 7,2 C 86 % 1003,6 hPa 0,0 l/m 19,3 km/h (3 Bft) S-SW 202 0 min 1,6 UV-I 163 W/m 4,6 C -0,6 C 27,4 km/h (4 Bft)
01.05.2020 09:33 6,8 C 7,8 C 86 % 1003,5 hPa 0,0 l/m 17,7 km/h (3 Bft) S-SW 202 0 min 1,6 UV-I 163 W/m 4,6 C 0,1 C 20,9 km/h (4 Bft)
01.05.2020 09:34 6,9 C 7,8 C 86 % 1003,5 hPa 0,0 l/m 17,7 km/h (3 Bft) S-SW 202 0 min 1,3 UV-I 200 W/m 4,7 C 0,2 C 20,9 km/h (4 Bft)
01.05.2020 09:35 7,0 C 7,8 C 86 % 1003,6 hPa 0,0 l/m 14,5 km/h (3 Bft) S-SW 202 0 min 1,4 UV-I 165 W/m 4,8 C 1,7 C 22,5 km/h (4 Bft)
01.05.2020 09:36 7,0 C 7,8 C 86 % 1003,5 hPa 0,0 l/m 14,5 km/h (3 Bft) S-SW 202 0 min 1,4 UV-I 195 W/m 4,8 C 1,7 C 20,9 km/h (4 Bft)
01.05.2020 09:37 7,1 C 7,8 C 86 % 1003,6 hPa 0,0 l/m 20,9 km/h (4 Bft) SW 225 0 min 1,9 UV-I 195 W/m 4,9 C -0,8 C 30,6 km/h (5 Bft)
01.05.2020 09:38 7,1 C 7,8 C 86 % 1003,4 hPa 0,0 l/m 24,1 km/h (4 Bft) S-SW 202 0 min 1,4 UV-I 149 W/m 4,9 C -1,8 C 32,2 km/h (5 Bft)
01.05.2020 09:39 7,1 C 7,8 C 84 % 1003,4 hPa 0,0 l/m 22,5 km/h (4 Bft) SW 225 0 min 1,4 UV-I 167 W/m 4,6 C -1,3 C 29,0 km/h (5 Bft)
01.05.2020 09:40 6,9 C 7,2 C 84 % 1003,5 hPa 0,0 l/m 24,1 km/h (4 Bft) SW 225 0 min 1,4 UV-I 160 W/m 4,4 C -2,1 C 32,2 km/h (5 Bft)
01.05.2020 09:41 6,9 C 7,2 C 84 % 1003,5 hPa 0,0 l/m 20,9 km/h (4 Bft) S-SW 202 0 min 1,5 UV-I 204 W/m 4,4 C -1,0 C 29,0 km/h (5 Bft)
01.05.2020 09:42 6,9 C 7,2 C 84 % 1003,6 hPa 0,0 l/m 19,3 km/h (3 Bft) S-SW 202 0 min 1,6 UV-I 216 W/m 4,4 C -0,5 C 30,6 km/h (5 Bft)
01.05.2020 09:43 6,8 C 7,2 C 85 % 1003,5 hPa 0,0 l/m 17,7 km/h (3 Bft) S-SW 202 0 min 1,5 UV-I 163 W/m 4,5 C 0,1 C 22,5 km/h (4 Bft)
01.05.2020 09:44 6,8 C 7,2 C 85 % 1003,5 hPa 0,0 l/m 24,1 km/h (4 Bft) S-SW 202 0 min 1,5 UV-I 155 W/m 4,5 C -2,2 C 33,8 km/h (5 Bft)
01.05.2020 09:45 6,8 C 7,2 C 85 % 1003,6 hPa 0,0 l/m 22,5 km/h (4 Bft) S-SW 202 0 min 1,5 UV-I 206 W/m 4,5 C -1,7 C 27,4 km/h (4 Bft)
01.05.2020 09:46 6,8 C 7,2 C 85 % 1003,4 hPa 0,0 l/m 22,5 km/h (4 Bft) SW 225 0 min 1,7 UV-I 216 W/m 4,5 C -1,7 C 29,0 km/h (5 Bft)
01.05.2020 09:47 6,8 C 7,2 C 85 % 1003,5 hPa 0,0 l/m 14,5 km/h (3 Bft) SW 225 0 min 1,7 UV-I 250 W/m 4,5 C 1,5 C 25,7 km/h (4 Bft)
01.05.2020 09:48 6,9 C 7,8 C 85 % 1003,5 hPa 0,0 l/m 17,7 km/h (3 Bft) S-SW 202 0 min 1,8 UV-I 265 W/m 4,6 C 0,2 C 25,7 km/h (4 Bft)
01.05.2020 09:49 6,9 C 7,8 C 85 % 1003,4 hPa 0,0 l/m 17,7 km/h (3 Bft) S-SW 202 0 min 1,5 UV-I 204 W/m 4,6 C 0,2 C 22,5 km/h (4 Bft)
01.05.2020 09:52 7,0 C 7,8 C 85 % 1003,4 hPa 0,0 l/m 16,9 km/h (3 Bft) SW 234 0 min 1,3 UV-I 190 W/m 4,7 C 0,6 C 24,1 km/h (4 Bft)
01.05.2020 09:54 7,1 C 7,2 C 85 % 1003,5 hPa 0,0 l/m 17,0 km/h (3 Bft) S-SW 192 0 min 1,0 UV-I 164 W/m 4,8 C 0,7 C 25,7 km/h (4 Bft)
01.05.2020 09:56 7,0 C 7,2 C 85 % 1003,5 hPa 0,0 l/m 16,2 km/h (3 Bft) SW 223 0 min 0,8 UV-I 140 W/m 4,7 C 0,9 C 32,2 km/h (5 Bft)
01.05.2020 09:58 6,9 C 7,2 C 85 % 1003,6 hPa 0,0 l/m 24,0 km/h (4 Bft) SW 221 0 min 0,8 UV-I 134 W/m 4,6 C -2,1 C 33,8 km/h (5 Bft)
01.05.2020 10:00 6,9 C 7,2 C 85 % 1003,5 hPa 0,0 l/m 15,7 km/h (3 Bft) S-SW 207 0 min 0,8 UV-I 147 W/m 4,6 C 1,1 C 25,7 km/h (4 Bft)
01.05.2020 10:02 6,9 C 7,2 C 85 % 1003,5 hPa 0,0 l/m 15,0 km/h (3 Bft) S-SW 200 0 min 1,1 UV-I 189 W/m 4,6 C 1,4 C 27,4 km/h (4 Bft)
01.05.2020 10:04 6,9 C 7,2 C 85 % 1003,4 hPa 0,0 l/m 18,8 km/h (3 Bft) S-SW 205 0 min 1,3 UV-I 229 W/m 4,6 C -0,3 C 32,2 km/h (5 Bft)
01.05.2020 10:06 7,0 C 7,8 C 85 % 1003,5 hPa 0,0 l/m 14,6 km/h (3 Bft) S-SW 203 0 min 1,0 UV-I 186 W/m 4,7 C 1,7 C 25,7 km/h (4 Bft)
01.05.2020 10:08 7,0 C 7,2 C 85 % 1003,4 hPa 0,0 l/m 16,7 km/h (3 Bft) S-SW 194 0 min 1,2 UV-I 223 W/m 4,7 C 0,7 C 24,1 km/h (4 Bft)
01.05.2020 10:10 7,1 C 7,8 C 86 % 1003,3 hPa 0,0 l/m 16,7 km/h (3 Bft) S 190 0 min 1,2 UV-I 205 W/m 4,9 C 0,9 C 24,1 km/h (4 Bft)
01.05.2020 10:12 7,1 C 7,8 C 86 % 1003,4 hPa 0,0 l/m 18,8 km/h (3 Bft) SW 229 0 min 1,2 UV-I 207 W/m 4,9 C -0,0 C 27,4 km/h (4 Bft)
01.05.2020 10:14 7,0 C 7,8 C 86 % 1003,4 hPa 0,0 l/m 19,4 km/h (3 Bft) S-SW 198 0 min 1,5 UV-I 232 W/m 4,8 C -0,4 C 32,2 km/h (5 Bft)
01.05.2020 10:16 7,0 C 7,8 C 86 % 1003,3 hPa 0,0 l/m 23,7 km/h (4 Bft) S 187 0 min 2,0 UV-I 304 W/m 4,8 C -1,8 C 37,0 km/h (5 Bft)
01.05.2020 10:18 7,1 C 7,8 C 87 % 1003,3 hPa 0,0 l/m 18,8 km/h (3 Bft) S-SW 205 0 min 1,8 UV-I 299 W/m 5,1 C -0,0 C 25,7 km/h (4 Bft)
01.05.2020 10:20 7,2 C 7,8 C 87 % 1003,4 hPa 0,0 l/m 21,0 km/h (4 Bft) S-SW 199 0 min 1,7 UV-I 256 W/m 5,2 C -0,7 C 32,2 km/h (5 Bft)
01.05.2020 10:22 7,2 C 7,8 C 87 % 1003,3 hPa 0,0 l/m 19,9 km/h (4 Bft) S-SW 202 0 min 1,7 UV-I 272 W/m 5,2 C -0,3 C 32,2 km/h (5 Bft)
01.05.2020 10:24 7,1 C 7,8 C 86 % 1003,2 hPa 0,0 l/m 22,3 km/h (4 Bft) S-SW 198 0 min 1,8 UV-I 302 W/m 4,9 C -1,3 C 33,8 km/h (5 Bft)
01.05.2020 10:26 7,1 C 7,8 C 87 % 1003,5 hPa 0,0 l/m 19,2 km/h (3 Bft) S 190 0 min 1,6 UV-I 279 W/m 5,1 C -0,2 C 32,2 km/h (5 Bft)
01.05.2020 10:28 7,1 C 7,8 C 87 % 1003,3 hPa 0,0 l/m 19,1 km/h (3 Bft) S-SW 201 0 min 1,6 UV-I 269 W/m 5,1 C -0,1 C 32,2 km/h (5 Bft)
01.05.2020 10:30 7,0 C 7,8 C 87 % 1003,3 hPa 0,0 l/m 19,2 km/h (3 Bft) W-SW 238 0 min 1,3 UV-I 216 W/m 5,0 C -0,3 C 29,0 km/h (5 Bft)
01.05.2020 10:32 6,9 C 7,8 C 87 % 1003,2 hPa 0,0 l/m 18,0 km/h (3 Bft) SW 219 0 min 1,3 UV-I 217 W/m 4,9 C 0,1 C 32,2 km/h (5 Bft)
01.05.2020 10:34 7,0 C 7,8 C 88 % 1003,3 hPa 0,0 l/m 14,5 km/h (3 Bft) S-SW 195 0 min 2,0 UV-I 343 W/m 5,2 C 1,7 C 29,0 km/h (5 Bft)
01.05.2020 10:36 7,1 C 8,3 C 87 % 1003,3 hPa 0,0 l/m 16,5 km/h (3 Bft) W-SW 247 0 min 1,9 UV-I 297 W/m 5,1 C 0,9 C 24,1 km/h (4 Bft)
01.05.2020 10:38 7,2 C 8,9 C 88 % 1003,2 hPa 0,0 l/m 16,9 km/h (3 Bft) S 189 0 min 3,0 UV-I 309 W/m 5,3 C 0,9 C 27,4 km/h (4 Bft)
01.05.2020 10:40 7,4 C 9,4 C 87 % 1003,1 hPa 0,0 l/m 18,2 km/h (3 Bft) SW 229 0 min 2,8 UV-I 309 W/m 5,4 C 0,6 C 29,0 km/h (5 Bft)
01.05.2020 10:42 7,3 C 8,9 C 86 % 1003,2 hPa 0,0 l/m 18,8 km/h (3 Bft) S 186 0 min 1,9 UV-I 290 W/m 5,1 C 0,2 C 29,0 km/h (5 Bft)
01.05.2020 10:44 7,3 C 8,3 C 86 % 1003,2 hPa 0,0 l/m 15,7 km/h (3 Bft) S-SW 193 0 min 2,1 UV-I 322 W/m 5,1 C 1,5 C 27,4 km/h (4 Bft)
01.05.2020 10:46 7,3 C 8,3 C 86 % 1003,2 hPa 0,0 l/m 17,7 km/h (3 Bft) S-SW 201 0 min 2,0 UV-I 266 W/m 5,1 C 0,7 C 25,7 km/h (4 Bft)
01.05.2020 10:48 7,2 C 8,3 C 86 % 1003,0 hPa 0,0 l/m 16,7 km/h (3 Bft) S-SW 205 0 min 1,9 UV-I 220 W/m 5,0 C 1,0 C 25,7 km/h (4 Bft)
01.05.2020 10:50 7,1 C 7,8 C 86 % 1003,2 hPa 0,0 l/m 16,4 km/h (3 Bft) S-SW 202 0 min 2,1 UV-I 227 W/m 4,9 C 1,0 C 24,1 km/h (4 Bft)
01.05.2020 10:52 7,2 C 8,3 C 86 % 1003,1 hPa 0,0 l/m 20,9 km/h (4 Bft) S-SW 208 0 min 2,7 UV-I 317 W/m 5,0 C -0,7 C 32,2 km/h (5 Bft)
01.05.2020 10:54 7,2 C 8,3 C 86 % 1003,0 hPa 0,0 l/m 18,7 km/h (3 Bft) S 187 0 min 2,8 UV-I 343 W/m 5,0 C 0,2 C 25,7 km/h (4 Bft)
01.05.2020 10:56 7,4 C 9,4 C 86 % 1003,1 hPa 0,0 l/m 15,7 km/h (3 Bft) SW 215 0 min 2,9 UV-I 460 W/m 5,2 C 1,7 C 22,5 km/h (4 Bft)
01.05.2020 10:58 7,6 C 8,9 C 85 % 1003,1 hPa 0,0 l/m 17,7 km/h (3 Bft) S-SW 209 0 min 2,4 UV-I 339 W/m 5,2 C 1,1 C 24,1 km/h (4 Bft)
01.05.2020 11:00 7,5 C 8,9 C 85 % 1003,1 hPa 0,0 l/m 17,1 km/h (3 Bft) SW 217 0 min 2,2 UV-I 312 W/m 5,1 C 1,2 C 25,7 km/h (4 Bft)
01.05.2020 11:02 7,4 C 8,3 C 85 % 1003,2 hPa 0,0 l/m 17,3 km/h (3 Bft) S-SW 200 0 min 2,1 UV-I 321 W/m 5,0 C 1,0 C 27,4 km/h (4 Bft)
01.05.2020 11:04 7,6 C 8,9 C 86 % 1003,0 hPa 0,0 l/m 13,4 km/h (3 Bft) SW 221 0 min 2,1 UV-I 318 W/m 5,4 C 3,0 C 19,3 km/h (3 Bft)
01.05.2020 11:06 7,6 C 8,9 C 85 % 1003,3 hPa 0,0 l/m 18,6 km/h (3 Bft) S-SW 208 0 min 2,1 UV-I 334 W/m 5,2 C 0,7 C 25,7 km/h (4 Bft)
01.05.2020 11:08 7,6 C 8,9 C 85 % 1003,2 hPa 0,0 l/m 16,7 km/h (3 Bft) S-SW 205 0 min 2,0 UV-I 321 W/m 5,2 C 1,5 C 24,1 km/h (4 Bft)
01.05.2020 11:10 7,6 C 8,9 C 85 % 1003,3 hPa 0,0 l/m 15,1 km/h (3 Bft) SW 218 0 min 2,0 UV-I 331 W/m 5,2 C 2,2 C 22,5 km/h (4 Bft)
01.05.2020 11:12 7,7 C 9,4 C 85 % 1003,0 hPa 0,0 l/m 12,6 km/h (3 Bft) S-SW 196 0 min 2,4 UV-I 393 W/m 5,3 C 3,5 C 17,7 km/h (3 Bft)
01.05.2020 11:14 7,8 C 9,4 C 84 % 1003,0 hPa 0,0 l/m 17,0 km/h (3 Bft) S-SW 206 0 min 2,3 UV-I 344 W/m 5,3 C 1,6 C 30,6 km/h (5 Bft)
01.05.2020 11:16 7,7 C 8,9 C 83 % 1003,3 hPa 0,0 l/m 21,0 km/h (4 Bft) S-SW 200 0 min 2,0 UV-I 286 W/m 5,0 C -0,0 C 32,2 km/h (5 Bft)
01.05.2020 11:18 7,6 C 8,3 C 84 % 1003,3 hPa 0,0 l/m 18,4 km/h (3 Bft) S-SO 163 0 min 1,6 UV-I 226 W/m 5,1 C 0,8 C 22,5 km/h (4 Bft)
01.05.2020 11:20 7,5 C 8,3 C 85 % 1003,2 hPa 0,0 l/m 14,2 km/h (3 Bft) SW 228 0 min 1,3 UV-I 194 W/m 5,1 C 2,5 C 22,5 km/h (4 Bft)
01.05.2020 11:22 7,4 C 7,8 C 85 % 1003,3 hPa 0,0 l/m 15,7 km/h (3 Bft) SW 224 0 min 1,5 UV-I 213 W/m 5,0 C 1,7 C 24,1 km/h (4 Bft)
01.05.2020 11:24 7,3 C 7,8 C 85 % 1003,3 hPa 0,0 l/m 16,5 km/h (3 Bft) S 174 0 min 1,6 UV-I 245 W/m 4,9 C 1,2 C 24,1 km/h (4 Bft)
01.05.2020 11:26 7,2 C 7,2 C 86 % 1003,4 hPa 0,0 l/m 16,3 km/h (3 Bft) S-SW 211 0 min 1,4 UV-I 213 W/m 5,0 C 1,2 C 29,0 km/h (5 Bft)
01.05.2020 11:28 7,1 C 7,2 C 87 % 1003,3 hPa 0,0 l/m 16,4 km/h (3 Bft) SW 219 0 min 1,6 UV-I 246 W/m 5,1 C 1,0 C 22,5 km/h (4 Bft)
01.05.2020 11:30 7,2 C 7,8 C 87 % 1003,4 hPa 0,0 l/m 14,1 km/h (3 Bft) S 191 0 min 1,8 UV-I 275 W/m 5,2 C 2,2 C 20,9 km/h (4 Bft)
01.05.2020 11:32 7,2 C 7,8 C 86 % 1003,4 hPa 0,0 l/m 15,1 km/h (3 Bft) S-SW 198 0 min 2,2 UV-I 320 W/m 5,0 C 1,7 C 20,9 km/h (4 Bft)
01.05.2020 11:34 7,3 C 7,8 C 86 % 1003,4 hPa 0,0 l/m 16,0 km/h (3 Bft) S-SW 201 0 min 2,2 UV-I 319 W/m 5,1 C 1,4 C 24,1 km/h (4 Bft)
01.05.2020 11:36 7,3 C 7,8 C 85 % 1003,3 hPa 0,0 l/m 16,4 km/h (3 Bft) S 189 0 min 2,0 UV-I 296 W/m 4,9 C 1,2 C 25,7 km/h (4 Bft)
01.05.2020 11:38 7,2 C 7,8 C 85 % 1003,3 hPa 0,0 l/m 17,1 km/h (3 Bft) S-SW 211 0 min 1,8 UV-I 267 W/m 4,9 C 0,8 C 27,4 km/h (4 Bft)
01.05.2020 11:40 7,2 C 7,8 C 85 % 1003,4 hPa 0,0 l/m 17,5 km/h (3 Bft) SW 226 0 min 1,6 UV-I 230 W/m 4,9 C 0,6 C 27,4 km/h (4 Bft)
01.05.2020 11:42 7,1 C 7,8 C 85 % 1003,4 hPa 0,0 l/m 15,8 km/h (3 Bft) S-SW 213 0 min 1,4 UV-I 206 W/m 4,8 C 1,3 C 22,5 km/h (4 Bft)
01.05.2020 11:44 7,1 C 7,8 C 85 % 1003,4 hPa 0,0 l/m 13,1 km/h (3 Bft) SW 215 0 min 1,4 UV-I 203 W/m 4,8 C 2,6 C 22,5 km/h (4 Bft)
01.05.2020 11:46 7,0 C 7,8 C 83 % 1003,5 hPa 0,0 l/m 17,6 km/h (3 Bft) S-SW 202 0 min 1,5 UV-I 211 W/m 4,3 C 0,3 C 27,4 km/h (4 Bft)
01.05.2020 11:48 6,9 C 7,8 C 83 % 1003,5 hPa 0,0 l/m 20,6 km/h (4 Bft) S-SW 209 0 min 1,4 UV-I 200 W/m 4,2 C -0,9 C 30,6 km/h (5 Bft)
01.05.2020 11:50 6,8 C 7,2 C 84 % 1003,4 hPa 0,0 l/m 20,6 km/h (4 Bft) S-SW 199 0 min 1,3 UV-I 184 W/m 4,3 C -1,1 C 29,0 km/h (5 Bft)
01.05.2020 11:52 6,7 C 7,2 C 84 % 1003,4 hPa 0,0 l/m 20,1 km/h (4 Bft) S 173 0 min 1,2 UV-I 177 W/m 4,2 C -1,0 C 30,6 km/h (5 Bft)
01.05.2020 11:54 6,6 C 6,7 C 84 % 1003,4 hPa 0,0 l/m 19,5 km/h (3 Bft) S-SW 203 0 min 1,1 UV-I 161 W/m 4,1 C -0,9 C 29,0 km/h (5 Bft)
01.05.2020 11:56 6,6 C 6,7 C 85 % 1003,3 hPa 0,0 l/m 14,1 km/h (3 Bft) SW 218 0 min 1,0 UV-I 148 W/m 4,3 C 1,5 C 29,0 km/h (5 Bft)
01.05.2020 11:58 6,7 C 7,2 C 85 % 1003,4 hPa 0,0 l/m 14,6 km/h (3 Bft) S-SW 194 0 min 1,0 UV-I 160 W/m 4,4 C 1,3 C 20,9 km/h (4 Bft)
01.05.2020 12:00 6,7 C 7,2 C 85 % 1003,3 hPa 0,0 l/m 13,9 km/h (3 Bft) SW 223 0 min 1,4 UV-I 222 W/m 4,4 C 1,7 C 20,9 km/h (4 Bft)
01.05.2020 12:02 6,7 C 7,8 C 85 % 1003,3 hPa 0,0 l/m 15,6 km/h (3 Bft) S-SW 200 0 min 2,1 UV-I 316 W/m 4,4 C 0,9 C 20,9 km/h (4 Bft)
01.05.2020 12:04 6,8 C 8,9 C 85 % 1003,1 hPa 0,0 l/m 16,1 km/h (3 Bft) S-SW 206 0 min 2,8 UV-I 437 W/m 4,5 C 0,7 C 22,5 km/h (4 Bft)
01.05.2020 12:06 7,0 C 8,9 C 84 % 1003,2 hPa 0,0 l/m 20,9 km/h (4 Bft) S-SW 201 0 min 3,1 UV-I 485 W/m 4,5 C -0,9 C 27,4 km/h (4 Bft)
01.05.2020 12:08 7,2 C 9,4 C 84 % 1003,2 hPa 0,0 l/m 16,3 km/h (3 Bft) S-SW 211 0 min 3,5 UV-I 476 W/m 4,7 C 1,2 C 22,5 km/h (4 Bft)
01.05.2020 12:10 7,3 C 10,0 C 84 % 1003,1 hPa 0,0 l/m 15,6 km/h (3 Bft) S-SW 212 0 min 3,4 UV-I 472 W/m 4,8 C 1,6 C 24,1 km/h (4 Bft)
01.05.2020 12:12 7,4 C 9,4 C 83 % 1003,1 hPa 0,0 l/m 17,2 km/h (3 Bft) S 178 0 min 3,1 UV-I 449 W/m 4,7 C 1,0 C 25,7 km/h (4 Bft)
01.05.2020 12:14 7,6 C 10,0 C 84 % 1003,1 hPa 0,0 l/m 14,7 km/h (3 Bft) SW 224 0 min 3,5 UV-I 458 W/m 5,1 C 2,4 C 22,5 km/h (4 Bft)
01.05.2020 12:16 7,7 C 10,6 C 83 % 1003,1 hPa 0,0 l/m 14,7 km/h (3 Bft) S 178 2 min 4,0 UV-I 677 W/m 5,0 C 2,5 C 20,9 km/h (4 Bft)
01.05.2020 12:18 7,8 C 11,1 C 83 % 1003,1 hPa 0,0 l/m 13,6 km/h (3 Bft) S-SW 212 2 min 4,0 UV-I 693 W/m 5,1 C 3,1 C 22,5 km/h (4 Bft)
01.05.2020 12:20 8,0 C 11,1 C 83 % 1003,1 hPa 0,0 l/m 15,8 km/h (3 Bft) S-SW 193 2 min 4,0 UV-I 692 W/m 5,3 C 2,4 C 24,1 km/h (4 Bft)
01.05.2020 12:22 8,1 C 11,7 C 82 % 1003,1 hPa 0,0 l/m 21,7 km/h (4 Bft) SW 215 2 min 4,1 UV-I 661 W/m 5,2 C 0,3 C 30,6 km/h (5 Bft)
01.05.2020 12:24 8,1 C 11,7 C 82 % 1003,3 hPa 0,0 l/m 17,8 km/h (3 Bft) S-SW 212 2 min 4,0 UV-I 677 W/m 5,2 C 1,6 C 29,0 km/h (5 Bft)
01.05.2020 12:26 8,3 C 11,1 C 82 % 1003,3 hPa 0,0 l/m 18,5 km/h (3 Bft) W-SW 242 2 min 3,6 UV-I 709 W/m 5,4 C 1,6 C 29,0 km/h (5 Bft)
01.05.2020 12:28 8,2 C 11,1 C 82 % 1003,2 hPa 0,0 l/m 17,4 km/h (3 Bft) S-SW 198 0 min 3,4 UV-I 514 W/m 5,3 C 1,9 C 27,4 km/h (4 Bft)
01.05.2020 12:30 8,3 C 11,7 C 84 % 1003,3 hPa 0,0 l/m 16,4 km/h (3 Bft) W-SW 238 2 min 4,2 UV-I 588 W/m 5,8 C 2,5 C 27,4 km/h (4 Bft)
01.05.2020 12:32 8,3 C 11,7 C 81 % 1003,3 hPa 0,0 l/m 18,3 km/h (3 Bft) S-SW 207 2 min 3,6 UV-I 632 W/m 5,2 C 1,7 C 25,7 km/h (4 Bft)
01.05.2020 12:34 8,4 C 11,7 C 83 % 1003,3 hPa 0,0 l/m 16,3 km/h (3 Bft) S 182 0 min 3,7 UV-I 559 W/m 5,7 C 2,6 C 24,1 km/h (4 Bft)
01.05.2020 12:36 8,3 C 11,1 C 81 % 1003,3 hPa 0,0 l/m 18,6 km/h (3 Bft) S-SW 209 0 min 3,2 UV-I 504 W/m 5,2 C 1,6 C 25,7 km/h (4 Bft)
01.05.2020 12:38 8,3 C 10,6 C 82 % 1003,3 hPa 0,0 l/m 15,5 km/h (3 Bft) S-SW 202 0 min 3,2 UV-I 440 W/m 5,4 C 2,9 C 22,5 km/h (4 Bft)
01.05.2020 12:40 8,3 C 10,6 C 83 % 1003,3 hPa 0,0 l/m 11,6 km/h (2 Bft) SW 223 0 min 2,8 UV-I 407 W/m 5,6 C 4,8 C 16,1 km/h (3 Bft)
01.05.2020 12:42 8,2 C 10,0 C 81 % 1003,3 hPa 0,0 l/m 14,9 km/h (3 Bft) S-SW 204 0 min 2,3 UV-I 333 W/m 5,1 C 3,0 C 25,7 km/h (4 Bft)
01.05.2020 12:44 8,1 C 9,4 C 82 % 1003,3 hPa 0,0 l/m 18,6 km/h (3 Bft) SW 217 0 min 2,0 UV-I 281 W/m 5,2 C 1,3 C 25,7 km/h (4 Bft)
01.05.2020 12:46 7,8 C 8,9 C 81 % 1003,3 hPa 0,0 l/m 17,8 km/h (3 Bft) SW 225 0 min 2,0 UV-I 268 W/m 4,7 C 1,3 C 27,4 km/h (4 Bft)
01.05.2020 12:48 7,8 C 8,9 C 82 % 1003,3 hPa 0,0 l/m 18,0 km/h (3 Bft) SW 227 0 min 1,7 UV-I 242 W/m 4,9 C 1,2 C 27,4 km/h (4 Bft)
01.05.2020 12:50 7,8 C 9,4 C 81 % 1003,3 hPa 0,0 l/m 22,2 km/h (4 Bft) SW 223 0 min 2,2 UV-I 277 W/m 4,7 C -0,3 C 32,2 km/h (5 Bft)
01.05.2020 12:52 7,9 C 9,4 C 82 % 1003,2 hPa 0,0 l/m 23,1 km/h (4 Bft) S-SW 197 0 min 2,7 UV-I 388 W/m 5,0 C -0,5 C 32,2 km/h (5 Bft)
01.05.2020 12:54 8,1 C 10,0 C 82 % 1003,1 hPa 0,0 l/m 19,5 km/h (3 Bft) S-SW 211 0 min 3,7 UV-I 393 W/m 5,2 C 1,0 C 33,8 km/h (5 Bft)
01.05.2020 12:56 8,6 C 11,7 C 82 % 1003,2 hPa 0,0 l/m 22,1 km/h (4 Bft) S-SW 209 0 min 5,3 UV-I 438 W/m 5,7 C 0,8 C 33,8 km/h (5 Bft)
01.05.2020 12:58 8,9 C 12,8 C 82 % 1003,3 hPa 0,0 l/m 18,8 km/h (3 Bft) S-SW 211 2 min 5,1 UV-I 830 W/m 6,0 C 2,3 C 25,7 km/h (4 Bft)
01.05.2020 13:00 9,1 C 12,8 C 81 % 1003,0 hPa 0,0 l/m 18,0 km/h (3 Bft) S-SW 208 2 min 4,8 UV-I 764 W/m 6,0 C 2,8 C 27,4 km/h (4 Bft)
01.05.2020 13:02 9,3 C 12,2 C 80 % 1003,0 hPa 0,0 l/m 17,0 km/h (3 Bft) SW 229 2 min 3,7 UV-I 745 W/m 6,0 C 3,5 C 32,2 km/h (5 Bft)
01.05.2020 13:04 9,4 C 12,8 C 79 % 1003,2 hPa 0,0 l/m 17,0 km/h (3 Bft) S 171 2 min 4,4 UV-I 745 W/m 5,9 C 3,6 C 25,7 km/h (4 Bft)
01.05.2020 13:06 9,4 C 12,2 C 78 % 1003,1 hPa 0,0 l/m 17,5 km/h (3 Bft) S-SW 204 2 min 3,4 UV-I 801 W/m 5,8 C 3,4 C 33,8 km/h (5 Bft)
01.05.2020 13:08 9,2 C 11,7 C 78 % 1003,1 hPa 0,0 l/m 16,9 km/h (3 Bft) S-SW 206 0 min 2,9 UV-I 366 W/m 5,6 C 3,4 C 22,5 km/h (4 Bft)
01.05.2020 13:10 9,1 C 11,7 C 79 % 1003,0 hPa 0,0 l/m 16,7 km/h (3 Bft) SW 230 0 min 3,4 UV-I 352 W/m 5,7 C 3,3 C 24,1 km/h (4 Bft)
01.05.2020 13:12 9,1 C 11,7 C 79 % 1003,1 hPa 0,0 l/m 14,8 km/h (3 Bft) S 186 0 min 2,7 UV-I 376 W/m 5,7 C 4,1 C 22,5 km/h (4 Bft)
01.05.2020 13:14 9,1 C 11,7 C 79 % 1003,1 hPa 0,0 l/m 18,2 km/h (3 Bft) SW 229 0 min 2,6 UV-I 408 W/m 5,7 C 2,8 C 32,2 km/h (5 Bft)
01.05.2020 13:16 9,3 C 12,8 C 78 % 1003,0 hPa 0,0 l/m 18,9 km/h (3 Bft) S-SW 205 0 min 4,1 UV-I 459 W/m 5,7 C 2,8 C 27,4 km/h (4 Bft)
01.05.2020 13:18 9,3 C 12,2 C 79 % 1003,1 hPa 0,0 l/m 16,0 km/h (3 Bft) SW 223 0 min 3,8 UV-I 492 W/m 5,8 C 3,9 C 25,7 km/h (4 Bft)
01.05.2020 13:20 9,3 C 12,2 C 77 % 1003,2 hPa 0,0 l/m 15,0 km/h (3 Bft) W-SW 238 0 min 3,1 UV-I 431 W/m 5,5 C 4,3 C 22,5 km/h (4 Bft)
01.05.2020 13:22 9,3 C 12,2 C 78 % 1003,0 hPa 0,0 l/m 16,9 km/h (3 Bft) S-SW 208 0 min 3,5 UV-I 396 W/m 5,7 C 3,5 C 27,4 km/h (4 Bft)
01.05.2020 13:24 9,3 C 12,2 C 77 % 1003,0 hPa 0,0 l/m 17,9 km/h (3 Bft) S-SW 206 0 min 3,2 UV-I 383 W/m 5,5 C 3,1 C 25,7 km/h (4 Bft)
01.05.2020 13:26 9,2 C 11,7 C 77 % 1003,1 hPa 0,0 l/m 17,3 km/h (3 Bft) SW 227 0 min 2,8 UV-I 361 W/m 5,4 C 3,2 C 24,1 km/h (4 Bft)
01.05.2020 13:28 9,2 C 11,1 C 78 % 1003,0 hPa 0,0 l/m 13,3 km/h (3 Bft) S-SW 198 0 min 2,7 UV-I 344 W/m 5,6 C 4,9 C 25,7 km/h (4 Bft)
01.05.2020 13:30 9,2 C 11,7 C 78 % 1003,0 hPa 0,0 l/m 13,6 km/h (3 Bft) SW 214 0 min 2,5 UV-I 324 W/m 5,6 C 4,8 C 20,9 km/h (4 Bft)
01.05.2020 13:32 9,4 C 12,2 C 78 % 1003,0 hPa 0,0 l/m 17,0 km/h (3 Bft) SW 216 0 min 2,8 UV-I 390 W/m 5,8 C 3,6 C 24,1 km/h (4 Bft)
01.05.2020 13:34 9,6 C 12,8 C 76 % 1003,0 hPa 0,0 l/m 18,3 km/h (3 Bft) S-SW 201 0 min 4,0 UV-I 390 W/m 5,6 C 3,4 C 29,0 km/h (5 Bft)
01.05.2020 13:36 9,7 C 12,8 C 75 % 1003,0 hPa 0,0 l/m 18,7 km/h (3 Bft) S-SW 210 0 min 3,5 UV-I 493 W/m 5,5 C 3,3 C 27,4 km/h (4 Bft)
01.05.2020 13:38 9,5 C 11,7 C 75 % 1002,8 hPa 0,0 l/m 14,1 km/h (3 Bft) SW 223 0 min 2,4 UV-I 201 W/m 5,3 C 4,9 C 25,7 km/h (4 Bft)
01.05.2020 13:40 9,6 C 12,2 C 75 % 1002,9 hPa 0,0 l/m 20,4 km/h (4 Bft) S-SW 211 0 min 4,4 UV-I 345 W/m 5,4 C 2,6 C 29,0 km/h (5 Bft)
01.05.2020 13:42 10,2 C 14,4 C 76 % 1002,9 hPa 0,0 l/m 16,5 km/h (3 Bft) SW 230 2 min 5,2 UV-I 837 W/m 6,2 C 4,8 C 25,7 km/h (4 Bft)
01.05.2020 13:44 10,2 C 13,3 C 74 % 1002,9 hPa 0,0 l/m 20,3 km/h (4 Bft) S 191 2 min 2,7 UV-I 859 W/m 5,8 C 3,4 C 37,0 km/h (5 Bft)
01.05.2020 13:46 9,8 C 11,7 C 73 % 1002,9 hPa 0,0 l/m 23,2 km/h (4 Bft) SW 220 0 min 2,7 UV-I 325 W/m 5,2 C 2,1 C 35,4 km/h (5 Bft)
01.05.2020 13:48 9,7 C 12,8 C 76 % 1002,8 hPa 0,0 l/m 16,8 km/h (3 Bft) SW 222 0 min 4,0 UV-I 397 W/m 5,7 C 4,0 C 25,7 km/h (4 Bft)
01.05.2020 13:50 10,1 C 15,0 C 77 % 1002,8 hPa 0,0 l/m 13,9 km/h (3 Bft) S-SW 209 0 min 5,5 UV-I 464 W/m 6,3 C 5,7 C 22,5 km/h (4 Bft)
01.05.2020 13:52 10,2 C 13,3 C 75 % 1002,9 hPa 0,0 l/m 16,5 km/h (3 Bft) S-SW 213 0 min 3,2 UV-I 411 W/m 6,0 C 4,8 C 27,4 km/h (4 Bft)
01.05.2020 13:54 10,1 C 13,9 C 73 % 1002,7 hPa 0,0 l/m 17,8 km/h (3 Bft) S-SW 213 0 min 4,2 UV-I 402 W/m 5,5 C 4,2 C 27,4 km/h (4 Bft)
01.05.2020 13:56 10,5 C 15,0 C 75 % 1002,8 hPa 0,0 l/m 16,9 km/h (3 Bft) SW 224 2 min 5,8 UV-I 1028 W/m 6,3 C 5,0 C 27,4 km/h (4 Bft)
01.05.2020 13:58 10,7 C 15,6 C 72 % 1002,7 hPa 0,0 l/m 19,2 km/h (3 Bft) S 188 2 min 5,6 UV-I 932 W/m 5,9 C 4,4 C 30,6 km/h (5 Bft)
01.05.2020 14:00 10,8 C 15,6 C 71 % 1002,7 hPa 0,0 l/m 18,5 km/h (3 Bft) SW 217 2 min 5,5 UV-I 934 W/m 5,8 C 4,8 C 25,7 km/h (4 Bft)
01.05.2020 14:02 11,1 C 16,7 C 72 % 1002,7 hPa 0,0 l/m 19,3 km/h (3 Bft) S-SW 198 2 min 5,6 UV-I 976 W/m 6,2 C 4,9 C 29,0 km/h (5 Bft)
01.05.2020 14:04 11,1 C 16,7 C 69 % 1002,7 hPa 0,0 l/m 22,6 km/h (4 Bft) SW 233 2 min 5,5 UV-I 932 W/m 5,6 C 3,9 C 32,2 km/h (5 Bft)
01.05.2020 14:06 11,2 C 16,7 C 67 % 1002,7 hPa 0,0 l/m 21,5 km/h (4 Bft) S-SO 147 2 min 5,6 UV-I 946 W/m 5,3 C 4,4 C 29,0 km/h (5 Bft)
01.05.2020 14:08 11,4 C 16,7 C 67 % 1002,7 hPa 0,0 l/m 18,4 km/h (3 Bft) S-SW 209 2 min 5,6 UV-I 964 W/m 5,5 C 5,6 C 30,6 km/h (5 Bft)
01.05.2020 14:10 11,6 C 16,7 C 67 % 1002,7 hPa 0,0 l/m 19,5 km/h (3 Bft) S-SW 196 2 min 5,0 UV-I 1000 W/m 5,7 C 5,5 C 27,4 km/h (4 Bft)
01.05.2020 14:12 11,6 C 16,7 C 66 % 1002,6 hPa 0,0 l/m 18,5 km/h (3 Bft) S-SW 200 2 min 5,0 UV-I 1027 W/m 5,5 C 5,8 C 32,2 km/h (5 Bft)
01.05.2020 14:14 11,6 C 16,1 C 66 % 1002,6 hPa 0,0 l/m 17,0 km/h (3 Bft) S-SW 198 2 min 3,2 UV-I 838 W/m 5,5 C 6,3 C 30,6 km/h (5 Bft)
01.05.2020 14:16 11,2 C 13,9 C 67 % 1002,8 hPa 0,0 l/m 17,4 km/h (3 Bft) S-SW 209 0 min 3,7 UV-I 259 W/m 5,3 C 5,7 C 29,0 km/h (5 Bft)
01.05.2020 14:18 11,6 C 16,7 C 69 % 1002,7 hPa 0,0 l/m 17,6 km/h (3 Bft) SW 227 2 min 5,7 UV-I 1000 W/m 6,1 C 6,1 C 30,6 km/h (5 Bft)
01.05.2020 14:20 11,7 C 17,2 C 65 % 1002,6 hPa 0,0 l/m 20,4 km/h (4 Bft) W 271 2 min 5,8 UV-I 1016 W/m 5,3 C 5,4 C 30,6 km/h (5 Bft)
01.05.2020 14:22 11,8 C 17,8 C 66 % 1002,7 hPa 0,0 l/m 16,5 km/h (3 Bft) S 190 2 min 5,8 UV-I 1009 W/m 5,7 C 6,8 C 29,0 km/h (5 Bft)
01.05.2020 14:24 11,9 C 17,2 C 66 % 1002,7 hPa 0,0 l/m 20,2 km/h (4 Bft) SW 223 2 min 4,4 UV-I 1041 W/m 5,8 C 5,7 C 35,4 km/h (5 Bft)
01.05.2020 14:26 11,5 C 14,4 C 65 % 1002,7 hPa 0,0 l/m 20,7 km/h (4 Bft) SW 217 0 min 2,7 UV-I 526 W/m 5,2 C 5,0 C 35,4 km/h (5 Bft)
01.05.2020 14:28 11,1 C 13,9 C 68 % 1002,7 hPa 0,0 l/m 20,2 km/h (4 Bft) S 182 0 min 2,9 UV-I 288 W/m 5,4 C 4,6 C 33,8 km/h (5 Bft)
01.05.2020 14:30 10,9 C 13,3 C 68 % 1002,8 hPa 0,0 l/m 27,2 km/h (4 Bft) S-SW 196 0 min 3,8 UV-I 496 W/m 5,2 C 2,5 C 46,7 km/h (6 Bft)
01.05.2020 14:32 10,8 C 13,3 C 71 % 1002,9 hPa 0,0 l/m 20,5 km/h (4 Bft) S-SW 209 0 min 3,5 UV-I 533 W/m 5,8 C 4,2 C 40,2 km/h (6 Bft)
01.05.2020 14:34 10,8 C 12,2 C 72 % 1002,9 hPa 0,0 l/m 22,1 km/h (4 Bft) S-SW 198 0 min 2,5 UV-I 453 W/m 6,0 C 3,7 C 45,1 km/h (6 Bft)
01.05.2020 14:36 10,4 C 11,7 C 71 % 1002,9 hPa 0,0 l/m 27,2 km/h (4 Bft) S-SW 205 0 min 2,6 UV-I 384 W/m 5,4 C 1,8 C 37,0 km/h (5 Bft)
01.05.2020 14:38 10,3 C 12,2 C 74 % 1003,0 hPa 0,0 l/m 21,5 km/h (4 Bft) SW 219 0 min 3,6 UV-I 441 W/m 5,9 C 3,2 C 38,6 km/h (5 Bft)
01.05.2020 14:40 10,4 C 13,3 C 72 % 1002,9 hPa 0,0 l/m 25,8 km/h (4 Bft) S-SW 197 0 min 4,4 UV-I 587 W/m 5,6 C 2,2 C 38,6 km/h (5 Bft)
01.05.2020 14:42 10,6 C 13,9 C 73 % 1003,0 hPa 0,0 l/m 19,0 km/h (3 Bft) SW 221 2 min 3,9 UV-I 722 W/m 6,0 C 4,4 C 29,0 km/h (5 Bft)
01.05.2020 14:44 10,3 C 12,8 C 71 % 1003,0 hPa 0,0 l/m 25,4 km/h (4 Bft) S 188 0 min 2,7 UV-I 365 W/m 5,3 C 2,1 C 35,4 km/h (5 Bft)
01.05.2020 14:46 10,2 C 11,7 C 72 % 1002,9 hPa 0,0 l/m 15,2 km/h (3 Bft) SW 222 0 min 1,8 UV-I 259 W/m 5,4 C 5,3 C 22,5 km/h (4 Bft)
01.05.2020 14:48 10,0 C 11,1 C 73 % 1003,0 hPa 0,0 l/m 15,9 km/h (3 Bft) W-SW 249 0 min 1,5 UV-I 205 W/m 5,4 C 4,8 C 24,1 km/h (4 Bft)
01.05.2020 14:50 9,8 C 10,6 C 71 % 1003,0 hPa 0,0 l/m 21,8 km/h (4 Bft) W 273 0 min 0,9 UV-I 136 W/m 4,8 C 2,5 C 32,2 km/h (5 Bft)
01.05.2020 14:52 9,6 C 9,4 C 72 % 1003,3 hPa 0,0 l/m 23,2 km/h (4 Bft) SW 223 0 min 0,7 UV-I 94 W/m 4,8 C 1,8 C 35,4 km/h (5 Bft)
01.05.2020 14:54 9,1 C 7,8 C 75 % 1003,3 hPa 0,0 l/m 18,7 km/h (3 Bft) W 263 0 min 0,3 UV-I 68 W/m 4,9 C 2,6 C 30,6 km/h (5 Bft)
01.05.2020 14:56 8,4 C 6,1 C 78 % 1003,3 hPa 0,6 l/m 18,8 km/h (3 Bft) W-SW 247 0 min 0,1 UV-I 65 W/m 4,8 C 1,6 C 27,4 km/h (4 Bft)
01.05.2020 14:58 7,7 C 6,1 C 80 % 1003,3 hPa 0,4 l/m 18,3 km/h (3 Bft) SW 217 0 min 0,5 UV-I 86 W/m 4,5 C 0,9 C 32,2 km/h (5 Bft)
01.05.2020 15:00 7,2 C 6,1 C 83 % 1003,4 hPa 0,4 l/m 7,9 km/h (2 Bft) S-SW 213 0 min 0,9 UV-I 148 W/m 4,5 C 6,0 C 17,7 km/h (3 Bft)
01.05.2020 15:02 6,9 C 6,7 C 86 % 1003,2 hPa 0,0 l/m 8,9 km/h (2 Bft) SW 217 0 min 2,1 UV-I 304 W/m 4,7 C 4,9 C 14,5 km/h (3 Bft)
01.05.2020 15:04 7,4 C 9,4 C 89 % 1003,1 hPa 0,0 l/m 10,4 km/h (2 Bft) S-SO 153 2 min 4,8 UV-I 675 W/m 5,7 C 4,5 C 16,1 km/h (3 Bft)
01.05.2020 15:06 7,8 C 10,0 C 89 % 1003,0 hPa 0,0 l/m 8,4 km/h (2 Bft) SW 219 2 min 2,8 UV-I 877 W/m 6,1 C 6,2 C 12,9 km/h (3 Bft)
01.05.2020 15:08 7,8 C 9,4 C 88 % 1003,1 hPa 0,0 l/m 13,0 km/h (3 Bft) S-SW 203 0 min 3,2 UV-I 337 W/m 5,9 C 3,4 C 24,1 km/h (4 Bft)
01.05.2020 15:10 8,2 C 11,1 C 89 % 1003,0 hPa 0,0 l/m 11,0 km/h (2 Bft) SW 225 0 min 4,5 UV-I 476 W/m 6,5 C 5,0 C 17,7 km/h (3 Bft)
01.05.2020 15:12 8,6 C 12,2 C 88 % 1003,0 hPa 0,0 l/m 13,7 km/h (3 Bft) S-SW 205 2 min 4,8 UV-I 676 W/m 6,7 C 4,0 C 17,7 km/h (3 Bft)
01.05.2020 15:14 8,9 C 13,3 C 89 % 1003,0 hPa 0,0 l/m 9,6 km/h (2 Bft) S 181 2 min 4,6 UV-I 754 W/m 7,2 C 6,6 C 14,5 km/h (3 Bft)
01.05.2020 15:16 9,4 C 13,9 C 88 % 1003,0 hPa 0,0 l/m 12,3 km/h (3 Bft) SW 225 2 min 4,6 UV-I 743 W/m 7,5 C 5,7 C 20,9 km/h (4 Bft)
01.05.2020 15:18 9,4 C 13,9 C 85 % 1003,0 hPa 0,0 l/m 13,5 km/h (3 Bft) S-SW 209 2 min 4,6 UV-I 737 W/m 7,0 C 5,1 C 19,3 km/h (3 Bft)
01.05.2020 15:20 9,7 C 13,9 C 84 % 1002,9 hPa 0,0 l/m 15,1 km/h (3 Bft) SW 216 2 min 4,6 UV-I 738 W/m 7,1 C 4,7 C 25,7 km/h (4 Bft)
01.05.2020 15:22 9,8 C 13,9 C 83 % 1002,9 hPa 0,0 l/m 18,6 km/h (3 Bft) SW 221 2 min 4,6 UV-I 756 W/m 7,1 C 3,5 C 27,4 km/h (4 Bft)
01.05.2020 15:24 9,8 C 13,3 C 81 % 1002,8 hPa 0,0 l/m 20,4 km/h (4 Bft) S-SW 212 2 min 4,6 UV-I 739 W/m 6,7 C 2,9 C 29,0 km/h (5 Bft)
01.05.2020 15:26 9,9 C 13,9 C 82 % 1002,8 hPa 0,0 l/m 21,8 km/h (4 Bft) S-SW 211 2 min 4,6 UV-I 741 W/m 7,0 C 2,6 C 33,8 km/h (5 Bft)
01.05.2020 15:28 10,2 C 14,4 C 82 % 1002,8 hPa 0,0 l/m 13,5 km/h (3 Bft) S-SW 210 2 min 4,6 UV-I 754 W/m 7,3 C 6,0 C 19,3 km/h (3 Bft)
01.05.2020 15:30 10,5 C 15,6 C 84 % 1002,8 hPa 0,0 l/m 13,1 km/h (3 Bft) S-SW 198 2 min 4,6 UV-I 762 W/m 7,9 C 6,6 C 20,9 km/h (4 Bft)
01.05.2020 15:32 10,8 C 15,6 C 81 % 1002,8 hPa 0,0 l/m 13,1 km/h (3 Bft) S-SW 200 2 min 4,5 UV-I 783 W/m 7,7 C 6,9 C 22,5 km/h (4 Bft)
01.05.2020 15:34 10,8 C 15,0 C 80 % 1002,8 hPa 0,0 l/m 14,3 km/h (3 Bft) S-SW 196 2 min 3,8 UV-I 816 W/m 7,5 C 6,4 C 27,4 km/h (4 Bft)
01.05.2020 15:36 10,6 C 12,8 C 79 % 1002,9 hPa 0,0 l/m 20,2 km/h (4 Bft) SW 226 0 min 2,5 UV-I 460 W/m 7,1 C 4,0 C 29,0 km/h (5 Bft)
01.05.2020 15:38 10,4 C 12,2 C 79 % 1002,8 hPa 0,0 l/m 17,0 km/h (3 Bft) SW 232 0 min 2,7 UV-I 357 W/m 6,9 C 4,8 C 27,4 km/h (4 Bft)
01.05.2020 15:40 10,3 C 11,7 C 80 % 1002,8 hPa 0,0 l/m 13,2 km/h (3 Bft) SW 229 0 min 2,1 UV-I 220 W/m 7,0 C 6,3 C 20,9 km/h (4 Bft)
01.05.2020 15:42 10,2 C 11,1 C 80 % 1002,7 hPa 0,0 l/m 12,7 km/h (3 Bft) S-SW 193 0 min 1,5 UV-I 172 W/m 6,9 C 6,4 C 20,9 km/h (4 Bft)
01.05.2020 15:44 10,1 C 10,6 C 77 % 1002,8 hPa 0,0 l/m 16,6 km/h (3 Bft) S-SW 211 0 min 1,1 UV-I 141 W/m 6,3 C 4,6 C 25,7 km/h (4 Bft)
01.05.2020 15:46 9,9 C 10,0 C 77 % 1002,7 hPa 0,0 l/m 14,3 km/h (3 Bft) SW 218 0 min 0,7 UV-I 99 W/m 6,1 C 5,3 C 20,9 km/h (4 Bft)
01.05.2020 15:48 9,8 C 10,0 C 77 % 1002,8 hPa 0,0 l/m 9,1 km/h (2 Bft) W-SW 243 0 min 0,2 UV-I 73 W/m 6,0 C 7,9 C 16,1 km/h (3 Bft)
01.05.2020 15:50 9,7 C 9,4 C 78 % 1002,9 hPa 0,0 l/m 10,0 km/h (2 Bft) SW 223 0 min 0,4 UV-I 87 W/m 6,1 C 7,3 C 19,3 km/h (3 Bft)
01.05.2020 15:52 9,7 C 10,0 C 78 % 1002,8 hPa 0,0 l/m 6,8 km/h (2 Bft) S-SW 201 0 min 0,9 UV-I 165 W/m 6,1 C 9,4 C 11,3 km/h (2 Bft)
01.05.2020 15:54 9,8 C 11,1 C 79 % 1002,9 hPa 0,0 l/m 12,0 km/h (2 Bft) SW 229 0 min 2,0 UV-I 269 W/m 6,3 C 6,3 C 17,7 km/h (3 Bft)
01.05.2020 15:56 10,3 C 13,9 C 81 % 1002,9 hPa 0,0 l/m 14,3 km/h (3 Bft) S-SW 205 0 min 4,1 UV-I 287 W/m 7,2 C 5,8 C 25,7 km/h (4 Bft)
01.05.2020 15:58 10,8 C 13,9 C 80 % 1002,9 hPa 0,0 l/m 8,5 km/h (2 Bft) SW 221 0 min 3,4 UV-I 474 W/m 7,5 C 9,4 C 12,9 km/h (3 Bft)
01.05.2020 16:00 11,1 C 14,4 C 78 % 1002,8 hPa 0,0 l/m 10,2 km/h (2 Bft) W-SW 239 2 min 2,9 UV-I 619 W/m 7,4 C 8,7 C 16,1 km/h (3 Bft)
01.05.2020 16:02 11,1 C 13,3 C 76 % 1002,9 hPa 0,0 l/m 17,4 km/h (3 Bft) W-SW 239 0 min 1,7 UV-I 441 W/m 7,0 C 5,6 C 27,4 km/h (4 Bft)
01.05.2020 16:04 10,8 C 11,7 C 75 % 1002,9 hPa 0,0 l/m 15,5 km/h (3 Bft) SW 215 0 min 1,7 UV-I 225 W/m 6,5 C 5,9 C 24,1 km/h (4 Bft)
01.05.2020 16:06 10,8 C 12,2 C 79 % 1002,8 hPa 0,0 l/m 12,3 km/h (3 Bft) W-SW 250 0 min 3,6 UV-I 362 W/m 7,3 C 7,3 C 20,9 km/h (4 Bft)
01.05.2020 16:08 10,9 C 13,3 C 78 % 1002,8 hPa 0,0 l/m 15,0 km/h (3 Bft) W 266 2 min 3,4 UV-I 640 W/m 7,2 C 6,2 C 25,7 km/h (4 Bft)
01.05.2020 16:10 10,7 C 11,1 C 75 % 1002,8 hPa 0,0 l/m 16,2 km/h (3 Bft) W-SW 240 0 min 1,4 UV-I 114 W/m 6,5 C 5,5 C 24,1 km/h (4 Bft)
01.05.2020 16:12 10,3 C 10,0 C 76 % 1002,8 hPa 0,0 l/m 13,6 km/h (3 Bft) W 261 0 min 1,0 UV-I 89 W/m 6,3 C 6,1 C 20,9 km/h (4 Bft)
01.05.2020 16:14 10,1 C 9,4 C 76 % 1002,8 hPa 0,0 l/m 12,2 km/h (2 Bft) W 278 0 min 0,7 UV-I 72 W/m 6,1 C 6,5 C 17,7 km/h (3 Bft)
01.05.2020 16:16 9,8 C 8,9 C 78 % 1002,9 hPa 0,0 l/m 10,9 km/h (2 Bft) W 262 0 min 0,0 UV-I 46 W/m 6,1 C 6,9 C 19,3 km/h (3 Bft)
01.05.2020 16:18 9,6 C 8,3 C 80 % 1003,2 hPa 0,4 l/m 15,7 km/h (3 Bft) W-NW 283 0 min 0,0 UV-I 34 W/m 6,3 C 4,4 C 25,7 km/h (4 Bft)
01.05.2020 16:20 9,2 C 7,2 C 80 % 1003,4 hPa 0,4 l/m 17,6 km/h (3 Bft) S-SW 201 0 min 0,0 UV-I 41 W/m 5,9 C 3,1 C 29,0 km/h (5 Bft)
01.05.2020 16:22 8,4 C 6,7 C 81 % 1003,5 hPa 0,6 l/m 14,9 km/h (3 Bft) SW 229 0 min 0,3 UV-I 102 W/m 5,3 C 3,2 C 30,6 km/h (5 Bft)
01.05.2020 16:24 8,0 C 8,9 C 86 % 1003,4 hPa 0,2 l/m 9,6 km/h (2 Bft) W-SW 255 0 min 2,5 UV-I 181 W/m 5,8 C 5,6 C 17,7 km/h (3 Bft)
01.05.2020 16:26 8,2 C 11,1 C 88 % 1003,2 hPa 0,0 l/m 11,0 km/h (2 Bft) W-SW 243 2 min 3,9 UV-I 744 W/m 6,3 C 5,0 C 20,9 km/h (4 Bft)
01.05.2020 16:28 8,6 C 12,8 C 89 % 1003,1 hPa 0,2 l/m 8,1 km/h (2 Bft) SW 215 2 min 3,7 UV-I 732 W/m 6,9 C 7,3 C 11,3 km/h (2 Bft)
01.05.2020 16:30 8,8 C 12,8 C 86 % 1003,2 hPa 0,0 l/m 9,7 km/h (2 Bft) W-SW 254 2 min 3,6 UV-I 682 W/m 6,6 C 6,5 C 16,1 km/h (3 Bft)
01.05.2020 16:32 9,2 C 13,9 C 87 % 1003,1 hPa 0,0 l/m 9,4 km/h (2 Bft) SW 227 2 min 3,5 UV-I 657 W/m 7,2 C 7,1 C 14,5 km/h (3 Bft)
01.05.2020 16:34 9,2 C 13,9 C 84 % 1003,2 hPa 0,0 l/m 11,3 km/h (2 Bft) SW 222 2 min 3,4 UV-I 649 W/m 6,6 C 6,0 C 17,7 km/h (3 Bft)
01.05.2020 16:36 9,3 C 14,4 C 84 % 1003,3 hPa 0,0 l/m 8,8 km/h (2 Bft) SW 222 2 min 3,4 UV-I 650 W/m 6,7 C 7,6 C 12,9 km/h (3 Bft)
01.05.2020 16:38 9,4 C 15,0 C 86 % 1003,2 hPa 0,0 l/m 6,3 km/h (2 Bft) S-SW 202 2 min 3,4 UV-I 651 W/m 7,2 C 9,4 C 9,7 km/h (2 Bft)
01.05.2020 16:40 9,8 C 14,4 C 85 % 1003,1 hPa 0,0 l/m 7,6 km/h (2 Bft) SW 223 2 min 3,4 UV-I 654 W/m 7,4 C 8,9 C 17,7 km/h (3 Bft)
01.05.2020 16:42 9,9 C 15,0 C 84 % 1003,2 hPa 0,0 l/m 11,1 km/h (2 Bft) S-SW 211 2 min 3,3 UV-I 646 W/m 7,3 C 6,9 C 17,7 km/h (3 Bft)
01.05.2020 16:44 10,0 C 15,0 C 82 % 1003,2 hPa 0,0 l/m 16,6 km/h (3 Bft) SW 222 2 min 3,3 UV-I 641 W/m 7,1 C 4,5 C 22,5 km/h (4 Bft)
01.05.2020 16:46 10,1 C 15,6 C 82 % 1003,0 hPa 0,0 l/m 10,3 km/h (2 Bft) S-SW 209 2 min 3,2 UV-I 630 W/m 7,2 C 7,5 C 17,7 km/h (3 Bft)
01.05.2020 16:48 10,2 C 15,0 C 84 % 1003,1 hPa 0,0 l/m 11,2 km/h (2 Bft) S 184 2 min 3,1 UV-I 611 W/m 7,6 C 7,2 C 20,9 km/h (4 Bft)
01.05.2020 16:50 10,3 C 15,6 C 83 % 1003,1 hPa 0,0 l/m 17,4 km/h (3 Bft) S-SW 207 2 min 3,2 UV-I 634 W/m 7,5 C 4,6 C 22,5 km/h (4 Bft)
01.05.2020 16:52 10,3 C 15,6 C 82 % 1003,1 hPa 0,0 l/m 17,1 km/h (3 Bft) S-SW 192 2 min 3,2 UV-I 623 W/m 7,4 C 4,7 C 25,7 km/h (4 Bft)
01.05.2020 16:54 10,2 C 14,4 C 80 % 1003,1 hPa 0,0 l/m 17,1 km/h (3 Bft) S-SW 196 2 min 2,9 UV-I 652 W/m 6,9 C 4,5 C 25,7 km/h (4 Bft)
01.05.2020 16:56 10,3 C 15,6 C 82 % 1003,0 hPa 0,0 l/m 15,3 km/h (3 Bft) SW 225 2 min 3,1 UV-I 650 W/m 7,4 C 5,4 C 24,1 km/h (4 Bft)
01.05.2020 16:58 10,2 C 12,8 C 81 % 1003,1 hPa 0,0 l/m 15,0 km/h (3 Bft) SW 221 2 min 1,8 UV-I 650 W/m 7,1 C 5,4 C 22,5 km/h (4 Bft)
01.05.2020 17:00 10,1 C 13,9 C 80 % 1003,0 hPa 0,0 l/m 12,8 km/h (3 Bft) S-SW 204 2 min 2,5 UV-I 615 W/m 6,8 C 6,2 C 16,1 km/h (3 Bft)
01.05.2020 17:02 10,3 C 13,3 C 81 % 1003,1 hPa 0,0 l/m 11,7 km/h (2 Bft) S-SW 194 0 min 2,8 UV-I 447 W/m 7,2 C 7,0 C 16,1 km/h (3 Bft)
01.05.2020 17:04 10,3 C 13,3 C 80 % 1003,1 hPa 0,0 l/m 16,0 km/h (3 Bft) S-SW 198 0 min 2,2 UV-I 347 W/m 7,0 C 5,1 C 22,5 km/h (4 Bft)
01.05.2020 17:06 10,3 C 12,8 C 79 % 1003,1 hPa 0,0 l/m 15,9 km/h (3 Bft) W-SW 240 0 min 2,1 UV-I 399 W/m 6,8 C 5,1 C 25,7 km/h (4 Bft)
01.05.2020 17:08 10,3 C 12,8 C 78 % 1003,2 hPa 0,0 l/m 14,4 km/h (3 Bft) SW 220 0 min 2,0 UV-I 367 W/m 6,6 C 5,8 C 20,9 km/h (4 Bft)
01.05.2020 17:10 10,3 C 12,2 C 77 % 1003,2 hPa 0,0 l/m 17,0 km/h (3 Bft) SW 220 0 min 1,9 UV-I 326 W/m 6,4 C 4,7 C 25,7 km/h (4 Bft)
01.05.2020 17:12 10,5 C 13,3 C 78 % 1003,1 hPa 0,0 l/m 18,4 km/h (3 Bft) W 267 2 min 2,5 UV-I 610 W/m 6,8 C 4,5 C 29,0 km/h (5 Bft)
01.05.2020 17:14 10,4 C 13,3 C 77 % 1003,2 hPa 0,0 l/m 17,3 km/h (3 Bft) SW 228 0 min 2,1 UV-I 374 W/m 6,5 C 4,7 C 40,2 km/h (6 Bft)
01.05.2020 17:16 10,2 C 11,7 C 75 % 1003,2 hPa 0,0 l/m 23,6 km/h (4 Bft) SW 234 0 min 1,7 UV-I 337 W/m 6,0 C 2,5 C 37,0 km/h (5 Bft)
01.05.2020 17:18 9,9 C 10,6 C 76 % 1003,4 hPa 0,0 l/m 16,8 km/h (3 Bft) SW 224 0 min 1,3 UV-I 185 W/m 5,9 C 4,3 C 27,4 km/h (4 Bft)
01.05.2020 17:20 9,7 C 10,0 C 76 % 1003,2 hPa 0,0 l/m 16,8 km/h (3 Bft) SW 221 0 min 1,3 UV-I 210 W/m 5,7 C 4,0 C 27,4 km/h (4 Bft)
01.05.2020 17:22 9,6 C 10,0 C 76 % 1003,3 hPa 0,0 l/m 19,9 km/h (4 Bft) S-SW 202 0 min 1,3 UV-I 231 W/m 5,6 C 2,8 C 32,2 km/h (5 Bft)
01.05.2020 17:24 9,5 C 10,0 C 77 % 1003,4 hPa 0,0 l/m 21,1 km/h (4 Bft) S-SW 192 0 min 1,3 UV-I 231 W/m 5,7 C 2,3 C 29,0 km/h (5 Bft)
01.05.2020 17:26 9,4 C 10,0 C 77 % 1003,4 hPa 0,0 l/m 17,4 km/h (3 Bft) SW 217 0 min 1,2 UV-I 234 W/m 5,6 C 3,4 C 27,4 km/h (4 Bft)
01.05.2020 17:28 9,6 C 10,6 C 78 % 1003,4 hPa 0,0 l/m 16,2 km/h (3 Bft) SW 219 0 min 1,8 UV-I 262 W/m 6,0 C 4,2 C 27,4 km/h (4 Bft)
01.05.2020 17:30 9,9 C 13,3 C 78 % 1003,4 hPa 0,0 l/m 16,9 km/h (3 Bft) S-SW 192 2 min 2,6 UV-I 627 W/m 6,2 C 4,3 C 29,0 km/h (5 Bft)
01.05.2020 17:32 9,9 C 13,9 C 78 % 1003,4 hPa 0,0 l/m 22,4 km/h (4 Bft) S-SW 213 2 min 2,5 UV-I 588 W/m 6,2 C 2,4 C 33,8 km/h (5 Bft)
01.05.2020 17:34 10,1 C 14,4 C 79 % 1003,3 hPa 0,0 l/m 14,0 km/h (3 Bft) S-SW 210 0 min 2,4 UV-I 554 W/m 6,6 C 5,7 C 20,9 km/h (4 Bft)
01.05.2020 17:36 10,2 C 15,0 C 80 % 1003,3 hPa 0,0 l/m 13,0 km/h (3 Bft) S 182 0 min 2,1 UV-I 558 W/m 6,9 C 6,3 C 24,1 km/h (4 Bft)
01.05.2020 17:38 10,2 C 13,9 C 77 % 1003,3 hPa 0,0 l/m 18,8 km/h (3 Bft) W-SW 248 0 min 2,0 UV-I 556 W/m 6,4 C 3,9 C 29,0 km/h (5 Bft)
01.05.2020 17:40 9,9 C 13,9 C 77 % 1003,4 hPa 0,0 l/m 20,9 km/h (4 Bft) SW 219 0 min 2,3 UV-I 539 W/m 6,1 C 2,9 C 30,6 km/h (5 Bft)
01.05.2020 17:42 9,9 C 14,4 C 77 % 1003,3 hPa 0,0 l/m 19,8 km/h (3 Bft) S-SW 209 0 min 2,2 UV-I 528 W/m 6,1 C 3,2 C 27,4 km/h (4 Bft)
01.05.2020 17:44 10,1 C 14,4 C 78 % 1003,4 hPa 0,0 l/m 16,3 km/h (3 Bft) S-SW 208 0 min 2,2 UV-I 532 W/m 6,4 C 4,7 C 25,7 km/h (4 Bft)
01.05.2020 17:46 10,1 C 14,4 C 75 % 1003,3 hPa 0,0 l/m 18,5 km/h (3 Bft) SW 219 0 min 2,2 UV-I 537 W/m 5,9 C 3,9 C 24,1 km/h (4 Bft)
01.05.2020 17:48 10,1 C 13,9 C 74 % 1003,4 hPa 0,0 l/m 17,7 km/h (3 Bft) S 182 0 min 2,1 UV-I 537 W/m 5,7 C 4,2 C 29,0 km/h (5 Bft)
01.05.2020 17:50 10,1 C 13,9 C 75 % 1003,5 hPa 0,0 l/m 18,8 km/h (3 Bft) S-SW 211 0 min 2,1 UV-I 482 W/m 5,9 C 3,8 C 30,6 km/h (5 Bft)
01.05.2020 17:52 10,1 C 13,9 C 74 % 1003,5 hPa 0,0 l/m 18,0 km/h (3 Bft) SW 217 0 min 2,0 UV-I 473 W/m 5,7 C 4,1 C 24,1 km/h (4 Bft)
01.05.2020 17:54 10,1 C 13,3 C 74 % 1003,5 hPa 0,0 l/m 20,9 km/h (4 Bft) S-SW 194 0 min 1,8 UV-I 425 W/m 5,7 C 3,1 C 27,4 km/h (4 Bft)
01.05.2020 17:56 9,9 C 11,7 C 74 % 1003,5 hPa 0,0 l/m 15,7 km/h (3 Bft) S-SW 211 0 min 1,3 UV-I 385 W/m 5,5 C 4,7 C 30,6 km/h (5 Bft)
01.05.2020 17:58 9,7 C 10,6 C 74 % 1003,5 hPa 0,0 l/m 19,9 km/h (4 Bft) S-SW 212 0 min 1,2 UV-I 196 W/m 5,3 C 2,9 C 29,0 km/h (5 Bft)
01.05.2020 18:00 9,6 C 9,4 C 75 % 1003,5 hPa 0,0 l/m 18,8 km/h (3 Bft) SW 215 0 min 1,0 UV-I 92 W/m 5,4 C 3,2 C 25,7 km/h (4 Bft)
01.05.2020 18:02 9,4 C 8,9 C 75 % 1003,5 hPa 0,0 l/m 15,9 km/h (3 Bft) SW 215 0 min 0,9 UV-I 75 W/m 5,2 C 4,0 C 25,7 km/h (4 Bft)
01.05.2020 18:04 9,3 C 8,9 C 75 % 1003,6 hPa 0,0 l/m 13,7 km/h (3 Bft) S-SW 198 0 min 0,8 UV-I 73 W/m 5,1 C 4,9 C 20,9 km/h (4 Bft)
01.05.2020 18:06 9,3 C 8,9 C 76 % 1003,5 hPa 0,0 l/m 13,8 km/h (3 Bft) S-SW 207 0 min 0,8 UV-I 78 W/m 5,3 C 4,8 C 25,7 km/h (4 Bft)
01.05.2020 18:08 9,3 C 8,9 C 77 % 1003,5 hPa 0,0 l/m 11,3 km/h (2 Bft) SW 234 0 min 0,7 UV-I 82 W/m 5,5 C 6,1 C 16,1 km/h (3 Bft)
01.05.2020 18:10 9,3 C 8,9 C 77 % 1003,5 hPa 0,0 l/m 8,1 km/h (2 Bft) SW 219 0 min 0,6 UV-I 81 W/m 5,5 C 8,0 C 14,5 km/h (3 Bft)
01.05.2020 18:12 9,3 C 8,9 C 78 % 1003,7 hPa 0,0 l/m 10,5 km/h (2 Bft) SW 221 0 min 0,3 UV-I 65 W/m 5,7 C 6,5 C 17,7 km/h (3 Bft)
01.05.2020 18:14 9,3 C 8,9 C 77 % 1003,7 hPa 0,0 l/m 10,2 km/h (2 Bft) SW 220 0 min 0,0 UV-I 37 W/m 5,5 C 6,7 C 17,7 km/h (3 Bft)
01.05.2020 18:16 9,3 C 8,9 C 78 % 1003,7 hPa 0,0 l/m 13,7 km/h (3 Bft) S-SW 205 0 min 0,0 UV-I 22 W/m 5,7 C 4,9 C 24,1 km/h (4 Bft)
01.05.2020 18:18 9,3 C 8,3 C 79 % 1004,0 hPa 0,0 l/m 19,2 km/h (3 Bft) W-SW 255 0 min 0,0 UV-I 24 W/m 5,8 C 2,7 C 27,4 km/h (4 Bft)
01.05.2020 18:20 9,1 C 7,8 C 79 % 1003,8 hPa 0,0 l/m 17,4 km/h (3 Bft) W-SW 252 0 min 0,0 UV-I 28 W/m 5,7 C 3,1 C 29,0 km/h (5 Bft)
01.05.2020 18:22 8,7 C 6,7 C 79 % 1003,9 hPa 0,2 l/m 19,6 km/h (3 Bft) W 265 0 min 0,0 UV-I 49 W/m 5,3 C 1,7 C 29,0 km/h (5 Bft)
01.05.2020 18:24 8,3 C 6,7 C 81 % 1003,9 hPa 0,0 l/m 14,9 km/h (3 Bft) W-SW 240 0 min 0,0 UV-I 60 W/m 5,2 C 3,1 C 25,7 km/h (4 Bft)
01.05.2020 18:26 8,0 C 6,7 C 82 % 1003,9 hPa 0,0 l/m 13,0 km/h (3 Bft) SW 214 0 min 0,0 UV-I 49 W/m 5,1 C 3,7 C 33,8 km/h (5 Bft)
01.05.2020 18:28 7,8 C 6,7 C 84 % 1003,9 hPa 0,0 l/m 11,6 km/h (2 Bft) SW 228 0 min 0,0 UV-I 39 W/m 5,3 C 4,2 C 25,7 km/h (4 Bft)
01.05.2020 18:30 7,6 C 6,7 C 84 % 1003,8 hPa 0,0 l/m 11,4 km/h (2 Bft) SW 217 0 min 0,0 UV-I 33 W/m 5,1 C 4,1 C 19,3 km/h (3 Bft)
01.05.2020 18:32 7,5 C 6,7 C 84 % 1003,9 hPa 0,0 l/m 11,9 km/h (2 Bft) S-SW 205 0 min 0,0 UV-I 34 W/m 5,0 C 3,7 C 24,1 km/h (4 Bft)
01.05.2020 18:34 7,4 C 6,7 C 85 % 1003,8 hPa 0,0 l/m 9,5 km/h (2 Bft) S-SW 204 0 min 0,0 UV-I 42 W/m 5,0 C 5,1 C 16,1 km/h (3 Bft)
01.05.2020 18:36 7,3 C 6,7 C 85 % 1003,7 hPa 0,0 l/m 13,5 km/h (3 Bft) S-SW 194 0 min 0,0 UV-I 117 W/m 4,9 C 2,6 C 17,7 km/h (3 Bft)
01.05.2020 18:38 7,6 C 8,9 C 85 % 1003,8 hPa 0,0 l/m 11,9 km/h (2 Bft) SW 215 0 min 0,9 UV-I 357 W/m 5,2 C 3,8 C 17,7 km/h (3 Bft)
01.05.2020 18:40 7,8 C 10,6 C 84 % 1003,8 hPa 0,0 l/m 11,0 km/h (2 Bft) SW 221 0 min 1,2 UV-I 343 W/m 5,3 C 4,6 C 17,7 km/h (3 Bft)
01.05.2020 18:42 8,2 C 12,2 C 85 % 1003,7 hPa 0,0 l/m 5,5 km/h (1 Bft) S-SW 202 0 min 1,2 UV-I 435 W/m 5,8 C 8,2 C 11,3 km/h (2 Bft)
01.05.2020 18:44 8,2 C 10,6 C 83 % 1003,6 hPa 0,0 l/m 7,9 km/h (2 Bft) S-SW 200 0 min 1,0 UV-I 347 W/m 5,5 C 7,0 C 12,9 km/h (3 Bft)
01.05.2020 18:46 8,2 C 8,9 C 82 % 1003,7 hPa 0,0 l/m 10,1 km/h (2 Bft) S-SW 213 0 min 0,8 UV-I 149 W/m 5,3 C 5,5 C 17,7 km/h (3 Bft)
01.05.2020 18:48 8,2 C 9,4 C 83 % 1003,6 hPa 0,0 l/m 8,1 km/h (2 Bft) S-SW 207 0 min 1,1 UV-I 261 W/m 5,5 C 6,9 C 16,1 km/h (3 Bft)
01.05.2020 18:50 8,3 C 8,9 C 83 % 1003,8 hPa 0,0 l/m 10,0 km/h (2 Bft) W 263 0 min 1,0 UV-I 302 W/m 5,6 C 5,7 C 17,7 km/h (3 Bft)
01.05.2020 18:52 8,4 C 8,9 C 82 % 1003,8 hPa 0,0 l/m 9,8 km/h (2 Bft) S-SW 205 0 min 1,0 UV-I 311 W/m 5,5 C 6,0 C 16,1 km/h (3 Bft)
01.05.2020 18:54 8,4 C 8,9 C 81 % 1003,7 hPa 0,0 l/m 10,4 km/h (2 Bft) SW 219 0 min 1,0 UV-I 324 W/m 5,3 C 5,6 C 14,5 km/h (3 Bft)
01.05.2020 18:56 8,4 C 8,9 C 81 % 1003,8 hPa 0,0 l/m 9,6 km/h (2 Bft) SW 232 0 min 1,0 UV-I 314 W/m 5,3 C 6,1 C 17,7 km/h (3 Bft)
01.05.2020 18:58 8,5 C 8,9 C 81 % 1003,8 hPa 0,0 l/m 10,4 km/h (2 Bft) S-SW 210 0 min 0,9 UV-I 278 W/m 5,4 C 5,7 C 17,7 km/h (3 Bft)
01.05.2020 19:00 8,3 C 8,3 C 80 % 1003,8 hPa 0,0 l/m 12,2 km/h (2 Bft) SW 234 0 min 0,8 UV-I 278 W/m 5,1 C 4,4 C 16,1 km/h (3 Bft)
01.05.2020 19:02 8,3 C 8,3 C 81 % 1003,8 hPa 0,0 l/m 8,3 km/h (2 Bft) SW 232 0 min 0,7 UV-I 174 W/m 5,2 C 6,9 C 14,5 km/h (3 Bft)
01.05.2020 19:04 8,3 C 8,3 C 82 % 1003,9 hPa 0,0 l/m 14,2 km/h (3 Bft) S-SW 209 0 min 0,9 UV-I 293 W/m 5,4 C 3,4 C 19,3 km/h (3 Bft)
01.05.2020 19:06 8,3 C 8,3 C 81 % 1003,8 hPa 0,0 l/m 12,3 km/h (3 Bft) SW 220 0 min 0,8 UV-I 284 W/m 5,2 C 4,4 C 17,7 km/h (3 Bft)
01.05.2020 19:08 8,3 C 8,9 C 81 % 1003,9 hPa 0,0 l/m 10,7 km/h (2 Bft) SW 214 0 min 0,8 UV-I 275 W/m 5,2 C 5,3 C 16,1 km/h (3 Bft)
01.05.2020 19:10 8,2 C 9,4 C 82 % 1003,9 hPa 0,0 l/m 10,1 km/h (2 Bft) SW 215 0 min 0,8 UV-I 275 W/m 5,3 C 5,5 C 14,5 km/h (3 Bft)
01.05.2020 19:12 8,3 C 10,0 C 82 % 1003,9 hPa 0,0 l/m 10,7 km/h (2 Bft) S 187 0 min 0,8 UV-I 276 W/m 5,4 C 5,3 C 16,1 km/h (3 Bft)
01.05.2020 19:14 8,3 C 10,6 C 82 % 1003,9 hPa 0,0 l/m 11,0 km/h (2 Bft) SW 217 0 min 0,7 UV-I 264 W/m 5,4 C 5,1 C 16,1 km/h (3 Bft)
01.05.2020 19:16 8,3 C 10,6 C 83 % 1003,8 hPa 0,0 l/m 10,8 km/h (2 Bft) S-SW 213 0 min 0,7 UV-I 245 W/m 5,6 C 5,2 C 16,1 km/h (3 Bft)
01.05.2020 19:18 8,3 C 9,4 C 82 % 1003,9 hPa 0,0 l/m 10,0 km/h (2 Bft) S 186 0 min 0,5 UV-I 215 W/m 5,4 C 5,7 C 16,1 km/h (3 Bft)
01.05.2020 19:20 8,3 C 8,9 C 82 % 1003,9 hPa 0,0 l/m 9,5 km/h (2 Bft) W-SW 243 0 min 0,5 UV-I 95 W/m 5,4 C 6,0 C 14,5 km/h (3 Bft)
01.05.2020 19:22 8,3 C 8,3 C 83 % 1004,0 hPa 0,0 l/m 9,6 km/h (2 Bft) S-SW 205 0 min 0,5 UV-I 97 W/m 5,6 C 6,0 C 14,5 km/h (3 Bft)
01.05.2020 19:24 8,2 C 8,3 C 83 % 1004,0 hPa 0,0 l/m 11,2 km/h (2 Bft) S-SW 202 0 min 0,4 UV-I 126 W/m 5,5 C 4,9 C 17,7 km/h (3 Bft)
01.05.2020 19:26 8,2 C 7,8 C 83 % 1004,0 hPa 0,0 l/m 12,5 km/h (3 Bft) S-SW 193 0 min 0,0 UV-I 84 W/m 5,5 C 4,2 C 19,3 km/h (3 Bft)
01.05.2020 19:28 8,1 C 7,8 C 83 % 1003,9 hPa 0,0 l/m 12,1 km/h (2 Bft) S 174 0 min 0,0 UV-I 95 W/m 5,4 C 4,3 C 20,9 km/h (4 Bft)
01.05.2020 19:30 8,1 C 7,8 C 83 % 1004,0 hPa 0,0 l/m 8,6 km/h (2 Bft) SW 221 0 min 0,0 UV-I 111 W/m 5,4 C 6,4 C 14,5 km/h (3 Bft)
01.05.2020 19:32 8,0 C 7,8 C 84 % 1004,0 hPa 0,0 l/m 10,9 km/h (2 Bft) SW 219 0 min 0,0 UV-I 95 W/m 5,5 C 4,8 C 14,5 km/h (3 Bft)
01.05.2020 19:34 8,0 C 7,8 C 84 % 1003,9 hPa 0,0 l/m 9,8 km/h (2 Bft) S-SW 198 0 min 0,2 UV-I 129 W/m 5,5 C 5,5 C 14,5 km/h (3 Bft)
01.05.2020 19:36 8,0 C 8,3 C 84 % 1004,0 hPa 0,0 l/m 10,2 km/h (2 Bft) S-SO 168 0 min 0,0 UV-I 147 W/m 5,5 C 5,3 C 17,7 km/h (3 Bft)
01.05.2020 19:38 8,0 C 7,8 C 84 % 1004,0 hPa 0,0 l/m 10,9 km/h (2 Bft) SW 222 0 min 0,0 UV-I 84 W/m 5,5 C 4,8 C 14,5 km/h (3 Bft)
01.05.2020 19:40 8,0 C 7,8 C 85 % 1004,0 hPa 0,0 l/m 10,9 km/h (2 Bft) S-SW 207 0 min 0,0 UV-I 58 W/m 5,6 C 4,8 C 20,9 km/h (4 Bft)
01.05.2020 19:42 7,8 C 7,2 C 84 % 1004,0 hPa 0,0 l/m 13,9 km/h (3 Bft) S-SW 212 0 min 0,0 UV-I 51 W/m 5,3 C 3,0 C 22,5 km/h (4 Bft)
01.05.2020 19:44 7,8 C 7,2 C 85 % 1003,9 hPa 0,0 l/m 13,3 km/h (3 Bft) S 178 0 min 0,0 UV-I 65 W/m 5,4 C 3,3 C 22,5 km/h (4 Bft)
01.05.2020 19:46 7,7 C 7,2 C 85 % 1003,9 hPa 0,0 l/m 10,3 km/h (2 Bft) S-SW 196 0 min 0,0 UV-I 78 W/m 5,3 C 4,9 C 17,7 km/h (3 Bft)
01.05.2020 19:48 7,7 C 7,2 C 85 % 1003,9 hPa 0,0 l/m 12,2 km/h (2 Bft) S-SW 205 0 min 0,0 UV-I 67 W/m 5,3 C 3,8 C 19,3 km/h (3 Bft)
01.05.2020 19:50 7,6 C 7,2 C 85 % 1003,9 hPa 0,0 l/m 13,3 km/h (3 Bft) SW 215 0 min 0,0 UV-I 59 W/m 5,2 C 3,1 C 20,9 km/h (4 Bft)
01.05.2020 19:52 7,6 C 7,2 C 85 % 1003,9 hPa 0,0 l/m 15,2 km/h (3 Bft) SW 227 0 min 0,0 UV-I 58 W/m 5,2 C 2,1 C 22,5 km/h (4 Bft)
01.05.2020 19:54 7,4 C 6,7 C 85 % 1004,0 hPa 0,0 l/m 12,1 km/h (2 Bft) S-SW 209 0 min 0,0 UV-I 86 W/m 5,0 C 3,5 C 17,7 km/h (3 Bft)
01.05.2020 19:56 7,4 C 6,7 C 86 % 1004,0 hPa 0,0 l/m 13,9 km/h (3 Bft) SW 219 0 min 0,0 UV-I 58 W/m 5,2 C 2,5 C 19,3 km/h (3 Bft)
01.05.2020 19:58 7,4 C 6,7 C 86 % 1004,0 hPa 0,0 l/m 12,4 km/h (3 Bft) SW 223 0 min 0,0 UV-I 63 W/m 5,2 C 3,3 C 20,9 km/h (4 Bft)
01.05.2020 20:00 7,3 C 6,7 C 86 % 1004,0 hPa 0,0 l/m 10,5 km/h (2 Bft) SW 214 0 min 0,0 UV-I 62 W/m 5,1 C 4,3 C 20,9 km/h (4 Bft)
01.05.2020 20:02 7,3 C 6,7 C 86 % 1004,0 hPa 0,0 l/m 10,3 km/h (2 Bft) SW 232 0 min 0,0 UV-I 53 W/m 5,1 C 4,4 C 14,5 km/h (3 Bft)
01.05.2020 20:04 7,3 C 6,7 C 87 % 1004,0 hPa 0,0 l/m 7,9 km/h (2 Bft) S-SW 207 0 min 0,0 UV-I 46 W/m 5,3 C 6,1 C 11,3 km/h (2 Bft)
01.05.2020 20:06 7,3 C 6,7 C 87 % 1004,1 hPa 0,0 l/m 10,6 km/h (2 Bft) S-SW 206 0 min 0,0 UV-I 29 W/m 5,3 C 4,2 C 14,5 km/h (3 Bft)
01.05.2020 20:08 7,2 C 6,7 C 87 % 1004,1 hPa 0,0 l/m 11,2 km/h (2 Bft) SW 214 0 min 0,0 UV-I 26 W/m 5,2 C 3,8 C 16,1 km/h (3 Bft)
01.05.2020 20:10 7,2 C 6,1 C 87 % 1004,1 hPa 0,0 l/m 9,9 km/h (2 Bft) S-SW 194 0 min 0,0 UV-I 25 W/m 5,2 C 4,6 C 14,5 km/h (3 Bft)
01.05.2020 20:12 7,2 C 6,1 C 87 % 1004,1 hPa 0,0 l/m 9,2 km/h (2 Bft) SW 215 0 min 0,0 UV-I 24 W/m 5,2 C 5,0 C 12,9 km/h (3 Bft)
01.05.2020 20:14 7,1 C 6,1 C 87 % 1004,3 hPa 0,0 l/m 8,0 km/h (2 Bft) S 188 0 min 0,0 UV-I 23 W/m 5,1 C 5,8 C 9,7 km/h (2 Bft)
01.05.2020 20:16 7,1 C 6,1 C 87 % 1004,2 hPa 0,0 l/m 9,7 km/h (2 Bft) S-SW 206 0 min 0,0 UV-I 23 W/m 5,1 C 4,6 C 16,1 km/h (3 Bft)
01.05.2020 20:18 7,1 C 6,1 C 87 % 1004,3 hPa 0,0 l/m 10,3 km/h (2 Bft) S-SW 201 0 min 0,0 UV-I 23 W/m 5,1 C 4,2 C 16,1 km/h (3 Bft)
01.05.2020 20:20 7,1 C 6,1 C 87 % 1004,3 hPa 0,0 l/m 10,2 km/h (2 Bft) S-SW 200 0 min 0,0 UV-I 19 W/m 5,1 C 4,3 C 14,5 km/h (3 Bft)
01.05.2020 20:22 7,0 C 6,1 C 87 % 1004,3 hPa 0,0 l/m 8,8 km/h (2 Bft) S-SW 211 0 min 0,0 UV-I 16 W/m 5,0 C 5,1 C 12,9 km/h (3 Bft)
01.05.2020 20:24 7,0 C 6,1 C 88 % 1004,4 hPa 0,0 l/m 8,7 km/h (2 Bft) S-SW 213 0 min 0,0 UV-I 14 W/m 5,2 C 5,2 C 14,5 km/h (3 Bft)
01.05.2020 20:26 6,9 C 5,6 C 88 % 1004,3 hPa 0,0 l/m 9,2 km/h (2 Bft) SW 215 0 min 0,0 UV-I 13 W/m 5,1 C 4,7 C 12,9 km/h (3 Bft)
01.05.2020 20:28 6,9 C 5,6 C 88 % 1004,4 hPa 0,0 l/m 10,5 km/h (2 Bft) SW 216 0 min 0,0 UV-I 12 W/m 5,1 C 3,8 C 16,1 km/h (3 Bft)
01.05.2020 20:30 6,9 C 5,6 C 88 % 1004,3 hPa 0,0 l/m 9,6 km/h (2 Bft) S-SW 205 0 min 0,0 UV-I 12 W/m 5,1 C 4,4 C 12,9 km/h (3 Bft)
01.05.2020 20:32 6,8 C 5,6 C 88 % 1004,3 hPa 0,0 l/m 6,1 km/h (2 Bft) S-SW 205 0 min 0,0 UV-I 11 W/m 5,0 C 6,8 C 12,9 km/h (3 Bft)
01.05.2020 20:34 6,8 C 5,6 C 88 % 1004,3 hPa 0,0 l/m 5,4 km/h (1 Bft) S-SW 198 0 min 0,0 UV-I 11 W/m 5,0 C 6,8 C 9,7 km/h (2 Bft)
01.05.2020 20:36 6,7 C 5,6 C 88 % 1004,3 hPa 0,0 l/m 7,5 km/h (2 Bft) S-SW 192 0 min 0,0 UV-I 9 W/m 4,9 C 5,8 C 11,3 km/h (2 Bft)
01.05.2020 20:38 6,7 C 5,6 C 88 % 1004,3 hPa 0,0 l/m 5,6 km/h (1 Bft) S-SW 194 0 min 0,0 UV-I 9 W/m 4,9 C 6,7 C 8,0 km/h (2 Bft)
01.05.2020 20:40 6,6 C 5,6 C 88 % 1004,3 hPa 0,0 l/m 4,6 km/h (1 Bft) S-SW 196 0 min 0,0 UV-I 9 W/m 4,8 C 6,6 C 8,0 km/h (2 Bft)
01.05.2020 20:42 6,5 C 5,0 C 89 % 1004,4 hPa 0,0 l/m 6,5 km/h (2 Bft) S 189 0 min 0,0 UV-I 7 W/m 4,8 C 6,4 C 9,7 km/h (2 Bft)
01.05.2020 20:44 6,4 C 5,0 C 89 % 1004,4 hPa 0,0 l/m 5,8 km/h (2 Bft) S-SW 199 0 min 0,0 UV-I 7 W/m 4,7 C 6,4 C 8,0 km/h (2 Bft)
01.05.2020 20:46 6,4 C 5,0 C 89 % 1004,4 hPa 0,0 l/m 8,0 km/h (2 Bft) S 184 0 min 0,0 UV-I 5 W/m 4,7 C 5,1 C 11,3 km/h (2 Bft)
01.05.2020 20:48 6,3 C 5,0 C 89 % 1004,5 hPa 0,0 l/m 9,0 km/h (2 Bft) S 182 0 min 0,0 UV-I 5 W/m 4,6 C 4,2 C 12,9 km/h (3 Bft)
01.05.2020 20:50 6,3 C 5,0 C 89 % 1004,5 hPa 0,0 l/m 8,3 km/h (2 Bft) S-SW 209 0 min 0,0 UV-I 5 W/m 4,6 C 4,7 C 14,5 km/h (3 Bft)
01.05.2020 20:52 6,3 C 5,0 C 90 % 1004,6 hPa 0,0 l/m 9,4 km/h (2 Bft) S-SW 199 0 min 0,0 UV-I 0 W/m 4,8 C 3,9 C 14,5 km/h (3 Bft)
01.05.2020 20:54 6,3 C 5,0 C 90 % 1004,6 hPa 0,0 l/m 5,7 km/h (1 Bft) S-SW 213 0 min 0,0 UV-I 0 W/m 4,8 C 6,3 C 8,0 km/h (2 Bft)
01.05.2020 20:56 6,3 C 5,0 C 90 % 1004,5 hPa 0,0 l/m 5,5 km/h (1 Bft) S-SW 194 0 min 0,0 UV-I 0 W/m 4,8 C 6,3 C 8,0 km/h (2 Bft)
01.05.2020 20:58 6,3 C 5,0 C 90 % 1004,5 hPa 0,0 l/m 6,7 km/h (2 Bft) S-SW 205 0 min 0,0 UV-I 0 W/m 4,8 C 6,1 C 11,3 km/h (2 Bft)
01.05.2020 21:00 6,3 C 5,0 C 90 % 1004,5 hPa 0,0 l/m 7,1 km/h (2 Bft) S-SW 212 0 min 0,0 UV-I 0 W/m 4,8 C 5,7 C 9,7 km/h (2 Bft)
01.05.2020 21:02 6,3 C 5,6 C 90 % 1004,6 hPa 0,0 l/m 8,0 km/h (2 Bft) S-SW 196 0 min 0,0 UV-I 0 W/m 4,8 C 5,0 C 11,3 km/h (2 Bft)
01.05.2020 21:04 6,3 C 5,6 C 90 % 1004,7 hPa 0,0 l/m 9,3 km/h (2 Bft) S-SW 208 0 min 0,0 UV-I 0 W/m 4,8 C 4,0 C 14,5 km/h (3 Bft)
01.05.2020 21:06 6,4 C 5,6 C 90 % 1004,8 hPa 0,0 l/m 10,0 km/h (2 Bft) SW 215 0 min 0,0 UV-I 0 W/m 4,9 C 3,6 C 14,5 km/h (3 Bft)
01.05.2020 21:08 6,5 C 5,6 C 90 % 1004,7 hPa 0,0 l/m 10,3 km/h (2 Bft) S-SW 203 0 min 0,0 UV-I 0 W/m 5,0 C 3,5 C 14,5 km/h (3 Bft)
01.05.2020 21:10 6,5 C 5,6 C 90 % 1004,7 hPa 0,0 l/m 10,9 km/h (2 Bft) SW 215 0 min 0,0 UV-I 0 W/m 5,0 C 3,1 C 14,5 km/h (3 Bft)
01.05.2020 21:12 6,5 C 5,6 C 90 % 1004,8 hPa 0,0 l/m 8,6 km/h (2 Bft) S-SW 203 0 min 0,0 UV-I 0 W/m 5,0 C 4,7 C 12,9 km/h (3 Bft)
01.05.2020 21:14 6,5 C 5,6 C 89 % 1004,9 hPa 0,0 l/m 8,7 km/h (2 Bft) S-SW 200 0 min 0,0 UV-I 0 W/m 4,8 C 4,6 C 12,9 km/h (3 Bft)
01.05.2020 21:16 6,6 C 5,6 C 90 % 1004,9 hPa 0,0 l/m 10,1 km/h (2 Bft) S-SW 210 0 min 0,0 UV-I 0 W/m 5,1 C 3,8 C 14,5 km/h (3 Bft)
01.05.2020 21:18 6,6 C 5,6 C 90 % 1004,9 hPa 0,0 l/m 11,2 km/h (2 Bft) S-SW 198 0 min 0,0 UV-I 0 W/m 5,1 C 3,1 C 16,1 km/h (3 Bft)
01.05.2020 21:20 6,7 C 5,6 C 90 % 1005,0 hPa 0,0 l/m 12,2 km/h (2 Bft) SW 215 0 min 0,0 UV-I 0 W/m 5,2 C 2,6 C 20,9 km/h (4 Bft)
01.05.2020 21:22 6,8 C 6,1 C 90 % 1004,9 hPa 0,0 l/m 10,4 km/h (2 Bft) S-SW 210 0 min 0,0 UV-I 0 W/m 5,3 C 3,8 C 16,1 km/h (3 Bft)
01.05.2020 21:24 6,8 C 6,1 C 90 % 1005,0 hPa 0,0 l/m 12,9 km/h (3 Bft) SW 215 0 min 0,0 UV-I 0 W/m 5,3 C 2,3 C 19,3 km/h (3 Bft)
01.05.2020 21:26 6,9 C 6,1 C 89 % 1005,0 hPa 0,0 l/m 9,4 km/h (2 Bft) SW 223 0 min 0,0 UV-I 0 W/m 5,2 C 4,6 C 14,5 km/h (3 Bft)
01.05.2020 21:28 6,9 C 6,1 C 89 % 1005,0 hPa 0,0 l/m 9,9 km/h (2 Bft) S-SW 213 0 min 0,0 UV-I 0 W/m 5,2 C 4,2 C 17,7 km/h (3 Bft)
01.05.2020 21:30 6,9 C 6,1 C 89 % 1005,0 hPa 0,0 l/m 10,6 km/h (2 Bft) S 180 0 min 0,0 UV-I 0 W/m 5,2 C 3,8 C 12,9 km/h (3 Bft)
01.05.2020 21:32 7,0 C 6,1 C 89 % 1005,1 hPa 0,0 l/m 12,7 km/h (3 Bft) SW 215 0 min 0,0 UV-I 0 W/m 5,3 C 2,7 C 17,7 km/h (3 Bft)
01.05.2020 21:34 7,1 C 6,1 C 89 % 1005,0 hPa 0,0 l/m 10,9 km/h (2 Bft) S 188 0 min 0,0 UV-I 0 W/m 5,4 C 3,8 C 17,7 km/h (3 Bft)
01.05.2020 21:36 7,1 C 6,7 C 89 % 1005,2 hPa 0,0 l/m 8,8 km/h (2 Bft) SW 218 0 min 0,0 UV-I 0 W/m 5,4 C 5,2 C 14,5 km/h (3 Bft)
01.05.2020 21:38 7,1 C 6,7 C 89 % 1005,0 hPa 0,0 l/m 9,0 km/h (2 Bft) S-SW 200 0 min 0,0 UV-I 0 W/m 5,4 C 5,1 C 16,1 km/h (3 Bft)
01.05.2020 21:40 7,1 C 6,1 C 89 % 1005,1 hPa 0,0 l/m 10,3 km/h (2 Bft) S-SW 205 0 min 0,0 UV-I 0 W/m 5,4 C 4,2 C 14,5 km/h (3 Bft)
01.05.2020 21:42 7,1 C 6,1 C 89 % 1005,3 hPa 0,0 l/m 10,6 km/h (2 Bft) SW 230 0 min 0,0 UV-I 0 W/m 5,4 C 4,0 C 14,5 km/h (3 Bft)
01.05.2020 21:44 7,2 C 6,7 C 89 % 1005,3 hPa 0,0 l/m 12,3 km/h (3 Bft) S-SW 205 0 min 0,0 UV-I 0 W/m 5,5 C 3,1 C 17,7 km/h (3 Bft)
01.05.2020 21:46 7,2 C 6,7 C 89 % 1005,5 hPa 0,0 l/m 10,7 km/h (2 Bft) SW 216 0 min 0,0 UV-I 0 W/m 5,5 C 4,1 C 20,9 km/h (4 Bft)
01.05.2020 21:48 7,2 C 6,7 C 89 % 1005,5 hPa 0,0 l/m 18,0 km/h (3 Bft) SW 221 0 min 0,0 UV-I 0 W/m 5,5 C 0,4 C 27,4 km/h (4 Bft)
01.05.2020 21:50 7,2 C 6,1 C 89 % 1005,5 hPa 0,0 l/m 19,6 km/h (3 Bft) SW 232 0 min 0,0 UV-I 0 W/m 5,5 C -0,2 C 29,0 km/h (5 Bft)
01.05.2020 21:52 7,2 C 6,1 C 89 % 1005,4 hPa 0,0 l/m 16,7 km/h (3 Bft) SW 223 0 min 0,0 UV-I 0 W/m 5,5 C 1,0 C 27,4 km/h (4 Bft)
01.05.2020 21:54 7,2 C 6,1 C 89 % 1005,5 hPa 0,2 l/m 15,0 km/h (3 Bft) SW 221 0 min 0,0 UV-I 0 W/m 5,5 C 1,7 C 25,7 km/h (4 Bft)
01.05.2020 21:56 7,1 C 6,1 C 89 % 1005,5 hPa 0,0 l/m 17,2 km/h (3 Bft) SW 214 0 min 0,0 UV-I 0 W/m 5,4 C 0,6 C 25,7 km/h (4 Bft)
01.05.2020 21:58 7,0 C 6,1 C 89 % 1005,6 hPa 0,0 l/m 12,8 km/h (3 Bft) S-SW 213 0 min 0,0 UV-I 0 W/m 5,3 C 2,6 C 19,3 km/h (3 Bft)
01.05.2020 22:00 6,9 C 6,1 C 89 % 1005,5 hPa 0,0 l/m 13,4 km/h (3 Bft) SW 227 0 min 0,0 UV-I 0 W/m 5,2 C 2,2 C 19,3 km/h (3 Bft)
01.05.2020 22:02 6,8 C 5,6 C 89 % 1005,5 hPa 0,0 l/m 13,2 km/h (3 Bft) W-SW 242 0 min 0,0 UV-I 0 W/m 5,1 C 2,2 C 20,9 km/h (4 Bft)
01.05.2020 22:04 6,8 C 5,6 C 89 % 1005,5 hPa 0,0 l/m 9,8 km/h (2 Bft) SW 236 0 min 0,0 UV-I 0 W/m 5,1 C 4,2 C 14,5 km/h (3 Bft)
01.05.2020 22:06 6,7 C 5,6 C 89 % 1005,6 hPa 0,0 l/m 10,8 km/h (2 Bft) SW 227 0 min 0,0 UV-I 0 W/m 5,0 C 3,4 C 17,7 km/h (3 Bft)
01.05.2020 22:08 6,6 C 5,6 C 89 % 1005,6 hPa 0,0 l/m 9,0 km/h (2 Bft) SW 217 0 min 0,0 UV-I 0 W/m 4,9 C 4,5 C 14,5 km/h (3 Bft)
01.05.2020 22:10 6,6 C 5,6 C 89 % 1005,5 hPa 0,0 l/m 9,0 km/h (2 Bft) S 184 0 min 0,0 UV-I 0 W/m 4,9 C 4,5 C 14,5 km/h (3 Bft)
01.05.2020 22:12 6,5 C 5,6 C 89 % 1005,6 hPa 0,0 l/m 7,7 km/h (2 Bft) SW 215 0 min 0,0 UV-I 0 W/m 4,8 C 5,4 C 12,9 km/h (3 Bft)
01.05.2020 22:14 6,4 C 5,6 C 89 % 1005,6 hPa 0,0 l/m 9,8 km/h (2 Bft) SW 229 0 min 0,0 UV-I 0 W/m 4,7 C 3,8 C 14,5 km/h (3 Bft)
01.05.2020 22:16 6,4 C 5,0 C 89 % 1005,6 hPa 0,0 l/m 9,5 km/h (2 Bft) SW 221 0 min 0,0 UV-I 0 W/m 4,7 C 4,0 C 12,9 km/h (3 Bft)
01.05.2020 22:18 6,3 C 5,0 C 89 % 1005,6 hPa 0,0 l/m 7,1 km/h (2 Bft) W 261 0 min 0,0 UV-I 0 W/m 4,6 C 5,7 C 11,3 km/h (2 Bft)
01.05.2020 22:20 6,3 C 5,0 C 89 % 1005,7 hPa 0,0 l/m 12,7 km/h (3 Bft) SW 218 0 min 0,0 UV-I 0 W/m 4,6 C 1,9 C 24,1 km/h (4 Bft)
01.05.2020 22:22 6,3 C 5,0 C 89 % 1005,7 hPa 0,0 l/m 11,5 km/h (2 Bft) S-SW 207 0 min 0,0 UV-I 0 W/m 4,6 C 2,6 C 17,7 km/h (3 Bft)
01.05.2020 22:24 6,3 C 5,0 C 89 % 1005,8 hPa 0,0 l/m 9,9 km/h (2 Bft) SW 215 0 min 0,0 UV-I 0 W/m 4,6 C 3,6 C 14,5 km/h (3 Bft)
01.05.2020 22:26 6,2 C 5,0 C 89 % 1005,8 hPa 0,0 l/m 8,2 km/h (2 Bft) S-SW 211 0 min 0,0 UV-I 0 W/m 4,5 C 4,7 C 12,9 km/h (3 Bft)
01.05.2020 22:28 6,1 C 5,0 C 89 % 1005,8 hPa 0,0 l/m 7,3 km/h (2 Bft) S-SW 207 0 min 0,0 UV-I 0 W/m 4,4 C 5,3 C 11,3 km/h (2 Bft)
01.05.2020 22:30 6,1 C 5,0 C 89 % 1005,7 hPa 0,0 l/m 8,3 km/h (2 Bft) S-SW 211 0 min 0,0 UV-I 0 W/m 4,4 C 4,5 C 12,9 km/h (3 Bft)
01.05.2020 22:32 5,9 C 4,4 C 90 % 1005,8 hPa 0,0 l/m 8,4 km/h (2 Bft) S-SW 207 0 min 0,0 UV-I 0 W/m 4,4 C 4,2 C 14,5 km/h (3 Bft)
01.05.2020 22:34 5,9 C 4,4 C 90 % 1005,8 hPa 0,0 l/m 9,6 km/h (2 Bft) SW 219 0 min 0,0 UV-I 0 W/m 4,4 C 3,3 C 16,1 km/h (3 Bft)
01.05.2020 22:36 5,8 C 4,4 C 90 % 1005,9 hPa 0,0 l/m 9,8 km/h (2 Bft) SW 215 0 min 0,0 UV-I 0 W/m 4,3 C 3,1 C 14,5 km/h (3 Bft)
01.05.2020 22:38 5,8 C 4,4 C 90 % 1006,0 hPa 0,0 l/m 10,3 km/h (2 Bft) S-SW 207 0 min 0,0 UV-I 0 W/m 4,3 C 2,8 C 14,5 km/h (3 Bft)
01.05.2020 22:40 5,8 C 4,4 C 90 % 1005,9 hPa 0,0 l/m 9,5 km/h (2 Bft) S-SW 206 0 min 0,0 UV-I 0 W/m 4,3 C 3,3 C 12,9 km/h (3 Bft)
01.05.2020 22:42 5,8 C 4,4 C 90 % 1006,0 hPa 0,0 l/m 11,5 km/h (2 Bft) SW 223 0 min 0,0 UV-I 0 W/m 4,3 C 2,0 C 14,5 km/h (3 Bft)
01.05.2020 22:44 5,8 C 4,4 C 91 % 1006,0 hPa 0,0 l/m 11,9 km/h (2 Bft) S 184 0 min 0,0 UV-I 0 W/m 4,4 C 1,7 C 14,5 km/h (3 Bft)
01.05.2020 22:46 5,8 C 5,0 C 91 % 1006,0 hPa 0,0 l/m 9,9 km/h (2 Bft) S-SW 202 0 min 0,0 UV-I 0 W/m 4,4 C 3,0 C 16,1 km/h (3 Bft)
01.05.2020 22:48 5,8 C 5,0 C 91 % 1006,0 hPa 0,0 l/m 10,3 km/h (2 Bft) S-SW 213 0 min 0,0 UV-I 0 W/m 4,4 C 2,8 C 16,1 km/h (3 Bft)
01.05.2020 22:50 5,8 C 5,0 C 91 % 1006,1 hPa 0,0 l/m 9,7 km/h (2 Bft) S-SW 204 0 min 0,0 UV-I 0 W/m 4,4 C 3,2 C 12,9 km/h (3 Bft)
01.05.2020 22:52 5,8 C 5,0 C 91 % 1005,9 hPa 0,0 l/m 7,8 km/h (2 Bft) S-SW 202 0 min 0,0 UV-I 0 W/m 4,4 C 4,6 C 11,3 km/h (2 Bft)
01.05.2020 22:54 5,8 C 5,0 C 91 % 1006,1 hPa 0,0 l/m 10,3 km/h (2 Bft) S-SW 213 0 min 0,0 UV-I 0 W/m 4,4 C 2,8 C 14,5 km/h (3 Bft)
01.05.2020 22:56 5,9 C 5,0 C 91 % 1006,0 hPa 0,0 l/m 9,9 km/h (2 Bft) S-SW 211 0 min 0,0 UV-I 0 W/m 4,5 C 3,1 C 16,1 km/h (3 Bft)
01.05.2020 22:58 5,9 C 5,0 C 91 % 1006,0 hPa 0,0 l/m 8,2 km/h (2 Bft) S-SW 207 0 min 0,0 UV-I 0 W/m 4,5 C 4,4 C 14,5 km/h (3 Bft)
01.05.2020 23:00 5,9 C 5,0 C 91 % 1006,0 hPa 0,0 l/m 10,0 km/h (2 Bft) S-SW 199 0 min 0,0 UV-I 0 W/m 4,5 C 3,1 C 14,5 km/h (3 Bft)
01.05.2020 23:02 5,9 C 5,0 C 91 % 1005,9 hPa 0,0 l/m 7,5 km/h (2 Bft) S-SW 207 0 min 0,0 UV-I 0 W/m 4,5 C 5,0 C 11,3 km/h (2 Bft)
01.05.2020 23:04 5,9 C 5,0 C 91 % 1005,8 hPa 0,0 l/m 6,7 km/h (2 Bft) S-SW 213 0 min 0,0 UV-I 0 W/m 4,5 C 5,7 C 9,7 km/h (2 Bft)
01.05.2020 23:06 5,9 C 5,0 C 91 % 1005,8 hPa 0,0 l/m 9,3 km/h (2 Bft) SW 220 0 min 0,0 UV-I 0 W/m 4,5 C 3,6 C 14,5 km/h (3 Bft)
01.05.2020 23:08 5,9 C 5,0 C 91 % 1005,8 hPa 0,0 l/m 7,5 km/h (2 Bft) S-SW 207 0 min 0,0 UV-I 0 W/m 4,5 C 5,0 C 9,7 km/h (2 Bft)
01.05.2020 23:10 5,8 C 5,0 C 91 % 1005,8 hPa 0,0 l/m 8,1 km/h (2 Bft) S-SW 195 0 min 0,0 UV-I 0 W/m 4,4 C 4,4 C 12,9 km/h (3 Bft)
01.05.2020 23:12 5,8 C 4,4 C 90 % 1005,9 hPa 0,0 l/m 9,4 km/h (2 Bft) S-SW 210 0 min 0,0 UV-I 0 W/m 4,3 C 3,4 C 12,9 km/h (3 Bft)
01.05.2020 23:14 5,8 C 4,4 C 90 % 1005,9 hPa 0,0 l/m 8,6 km/h (2 Bft) S-SW 193 0 min 0,0 UV-I 0 W/m 4,3 C 4,0 C 12,9 km/h (3 Bft)
01.05.2020 23:16 5,7 C 4,4 C 90 % 1005,8 hPa 0,0 l/m 7,8 km/h (2 Bft) S-SW 198 0 min 0,0 UV-I 0 W/m 4,2 C 4,5 C 14,5 km/h (3 Bft)
01.05.2020 23:18 5,7 C 4,4 C 91 % 1005,8 hPa 0,0 l/m 7,7 km/h (2 Bft) S-SW 202 0 min 0,0 UV-I 0 W/m 4,3 C 4,6 C 14,5 km/h (3 Bft)
01.05.2020 23:20 5,6 C 4,4 C 91 % 1005,9 hPa 0,0 l/m 9,4 km/h (2 Bft) SW 219 0 min 0,0 UV-I 0 W/m 4,2 C 3,2 C 14,5 km/h (3 Bft)
01.05.2020 23:22 5,6 C 4,4 C 91 % 1005,9 hPa 0,0 l/m 8,1 km/h (2 Bft) SW 218 0 min 0,0 UV-I 0 W/m 4,2 C 4,2 C 11,3 km/h (2 Bft)
01.05.2020 23:24 5,6 C 4,4 C 91 % 1006,0 hPa 0,0 l/m 12,0 km/h (2 Bft) S-SW 209 0 min 0,0 UV-I 0 W/m 4,2 C 1,4 C 17,7 km/h (3 Bft)
01.05.2020 23:26 5,7 C 5,0 C 91 % 1006,1 hPa 0,0 l/m 10,0 km/h (2 Bft) S-SW 202 0 min 0,0 UV-I 0 W/m 4,3 C 2,8 C 16,1 km/h (3 Bft)
01.05.2020 23:28 5,7 C 5,0 C 91 % 1006,2 hPa 0,2 l/m 14,5 km/h (3 Bft) S-SW 202 0 min 0,0 UV-I 0 W/m 4,3 C 0,2 C 24,1 km/h (4 Bft)
01.05.2020 23:30 5,7 C 5,0 C 91 % 1006,2 hPa 0,0 l/m 18,5 km/h (3 Bft) S-SW 195 0 min 0,0 UV-I 0 W/m 4,3 C -1,7 C 35,4 km/h (5 Bft)
01.05.2020 23:32 5,7 C 5,0 C 90 % 1006,1 hPa 0,0 l/m 13,7 km/h (3 Bft) W-SW 242 0 min 0,0 UV-I 0 W/m 4,2 C 0,6 C 19,3 km/h (3 Bft)
01.05.2020 23:34 5,7 C 5,0 C 90 % 1006,1 hPa 0,2 l/m 9,7 km/h (2 Bft) S-SW 213 0 min 0,0 UV-I 0 W/m 4,2 C 3,1 C 14,5 km/h (3 Bft)
01.05.2020 23:36 5,7 C 4,4 C 90 % 1006,1 hPa 0,0 l/m 9,6 km/h (2 Bft) SW 231 0 min 0,0 UV-I 0 W/m 4,2 C 3,1 C 16,1 km/h (3 Bft)
01.05.2020 23:38 5,6 C 4,4 C 90 % 1006,2 hPa 0,0 l/m 10,8 km/h (2 Bft) SW 214 0 min 0,0 UV-I 0 W/m 4,1 C 2,2 C 16,1 km/h (3 Bft)
01.05.2020 23:40 5,6 C 4,4 C 90 % 1006,2 hPa 0,0 l/m 7,9 km/h (2 Bft) S 191 0 min 0,0 UV-I 0 W/m 4,1 C 4,3 C 12,9 km/h (3 Bft)
01.05.2020 23:42 5,6 C 4,4 C 90 % 1006,1 hPa 0,0 l/m 5,9 km/h (2 Bft) S-SW 207 0 min 0,0 UV-I 0 W/m 4,1 C 5,6 C 11,3 km/h (2 Bft)
01.05.2020 23:44 5,6 C 4,4 C 90 % 1006,3 hPa 0,0 l/m 8,0 km/h (2 Bft) S-SW 194 0 min 0,0 UV-I 0 W/m 4,1 C 4,2 C 12,9 km/h (3 Bft)
01.05.2020 23:46 5,6 C 4,4 C 91 % 1006,2 hPa 0,0 l/m 7,5 km/h (2 Bft) SW 234 0 min 0,0 UV-I 0 W/m 4,2 C 4,6 C 11,3 km/h (2 Bft)
01.05.2020 23:48 5,6 C 5,0 C 91 % 1006,3 hPa 0,0 l/m 9,0 km/h (2 Bft) SW 227 0 min 0,0 UV-I 0 W/m 4,2 C 3,5 C 14,5 km/h (3 Bft)
01.05.2020 23:50 5,6 C 5,0 C 91 % 1006,2 hPa 0,0 l/m 8,7 km/h (2 Bft) S-SW 197 0 min 0,0 UV-I 0 W/m 4,2 C 3,7 C 12,9 km/h (3 Bft)
01.05.2020 23:52 5,6 C 5,0 C 91 % 1006,2 hPa 0,0 l/m 7,3 km/h (2 Bft) SW 228 0 min 0,0 UV-I 0 W/m 4,2 C 4,8 C 11,3 km/h (2 Bft)
01.05.2020 23:54 5,6 C 5,0 C 91 % 1006,3 hPa 0,0 l/m 8,4 km/h (2 Bft) S-SW 205 0 min 0,0 UV-I 0 W/m 4,2 C 3,9 C 12,9 km/h (3 Bft)
01.05.2020 23:56 5,6 C 5,0 C 91 % 1006,4 hPa 0,0 l/m 7,5 km/h (2 Bft) SW 222 0 min 0,0 UV-I 0 W/m 4,2 C 4,6 C 14,5 km/h (3 Bft)
01.05.2020 23:58 5,6 C 5,0 C 91 % 1006,3 hPa 0,0 l/m 6,9 km/h (2 Bft) SW 215 0 min 0,0 UV-I 0 W/m 4,2 C 5,2 C 12,9 km/h (3 Bft)
01.05.2020 23:59 5,6 C 5,0 C 91 % 1006,3 hPa 0,0 l/m 6,4 km/h (2 Bft) S-SW 202 0 min 0,0 UV-I 0 W/m 4,2 C 5,6 C 9,7 km/h (2 Bft)
_ Min-Zeit 04:53 04:41 14:20 04:11 - 04:48 - - - - - 04:53 04:29 04:48
Minimum _ 2,8 C 2,2 C 65 % 1002,5 hPa - 3,2 km/h (1 Bft) - - - - - 1,5 C -5,6 C 4,8 km/h (1 Bft)
_ Max-Zeit 14:24 14:22 05:16 23:56 14:56 09:30 - - 12:16 13:56 14:24 15:30 15:52 14:30
Maximum _ 12,0 C 17,8 C 93 % 1006,4 hPa 0,6 l/m 32,2 km/h
S-SW (5 Bft)
- - 2 min 5,8 UV-I 1041 W/m 7,9 C 9,4 C 46,7 km/h
S-SO (6 Bft)
Durchschnitt _ 7,0 C 7,4 C 86 % 1003,6 hPa #10,6 l/m 14,4 km/h (3 Bft) S-SW - #2:14 h 2,2 UV-I 297 W/m 4,8 C 2,1 C 21,7 km/h (4 Bft)